[[{"header":{"parameterUnit":"m.s-1","parameterCategory":1,"la1":30.6,"la2":29.2853,"lo1":-89.7004,"lo2":-87.6739,"dx":0.0162,"dy":0.0183,"nx":112,"ny":82,"refTime":"2023-01-31T06:00:00:Z","depth":0,"parameterNumber":2,"parameterNumberName":"U-component_of_WINDS"},"data":[0.0,0.0,0.0,0.0,0.0,0.0,0.0,0.0,0.0,0.0,0.0,0.0,0.0,0.0,0.0,0.0,0.0,0.0,0.0,0.0,0.0,0.0,0.0,0.0,0.0,0.0,0.0,0.0,0.0,0.0,0.0,0.0,0.0,0.0,0.0,0.0,0.0,0.0,0.0,0.0,0.0,0.0,0.0,0.0,0.0,0.0,0.0,0.0,0.0,0.0,0.0,0.0,0.0,0.0,0.0,0.0,0.0,0.0,0.0,0.0,0.0,0.0,0.0,0.0,0.0,0.0,0.0,0.0,0.0,0.0,0.0,0.0,0.0,0.0,0.0,0.0,0.0,0.0,0.0,0.0,0.0,0.0,0.0,0.0,0.0,0.0,0.0,0.0,0.0,0.0,1.0427,1.1045,1.2533,1.2958,1.1612,1.1737,1.1346,1.0054,0.0,0.0,0.0,0.0,0.0,0.0,0.0,0.0,0.0,0.0,0.0,0.0,0.0,0.0,0.0,0.0,0.0,0.0,0.0,0.0,0.0,0.0,0.0,0.0,0.0,0.0,0.0,0.0,0.0,0.0,0.0,0.0,0.0,0.0,0.0,0.0,0.0,0.0,0.0,0.0,0.0,0.0,0.0,0.0,0.0,0.0,0.0,0.0,0.0,0.0,0.0,0.0,0.0,0.0,0.0,0.0,0.0,0.0,0.0,0.0,0.0,0.0,0.0,0.0,0.0,0.0,0.0,0.0,0.0,0.0,0.0,0.0,0.0,0.0,0.0,0.0,0.0,0.0,0.0,0.0,0.0,0.0,0.0,0.0,0.0,0.0,0.0,0.0,0.0,0.0,0.0,0.0,0.0,0.0,0.0,0.0,0.0,0.0,0.0,0.0,0.0,0.0,0.0,0.0,1.0683,1.1944,1.2637,1.246,1.1117,1.0392,0.9834,0.944,0.0,0.0,0.0,0.0,0.0,0.0,0.0,0.0,0.0,0.0,0.0,0.0,0.0,0.0,0.0,0.0,0.0,0.0,0.0,0.0,0.0,0.0,0.0,0.0,0.0,0.0,0.0,0.0,0.0,0.0,0.0,0.0,0.0,0.0,0.0,0.0,0.0,0.0,0.0,0.0,0.0,0.0,0.0,0.0,0.0,0.0,0.0,0.0,0.0,0.0,0.0,0.0,0.0,0.0,0.0,0.0,0.0,0.0,0.0,0.0,0.0,0.0,0.0,0.0,0.0,0.0,0.0,0.0,0.0,0.0,0.0,0.0,0.0,0.0,0.0,0.0,0.0,0.0,0.0,0.0,0.0,0.0,0.0,0.0,0.0,0.0,0.0,0.0,0.0,0.0,0.0,0.0,0.0,0.0,0.0,0.0,0.0,0.0,0.0,0.0,0.0,0.0,0.0,1.0961,1.1385,1.2503,1.2768,1.2292,1.0946,1.0209,0.9659,0.9275,0.8775,0.0,0.0,0.0,0.0,0.0,0.0,0.0,0.0,0.0,0.0,0.0,0.0,0.0,0.0,0.0,0.0,0.0,0.0,0.0,0.0,0.0,0.0,0.0,0.0,0.0,0.0,0.0,0.0,0.0,0.0,0.0,0.0,0.0,0.0,0.0,0.0,0.0,0.0,0.0,0.0,0.0,0.0,0.0,0.0,0.0,0.0,0.0,0.0,0.0,0.0,0.0,0.0,0.0,0.0,0.0,0.0,0.0,0.0,0.0,0.0,0.0,0.0,0.0,0.0,0.0,0.0,0.0,0.0,0.0,0.0,0.0,0.0,0.0,0.0,0.0,0.0,0.0,0.0,0.0,0.0,0.0,0.0,0.0,0.0,0.0,0.0,0.0,0.0,0.0,0.0,0.0,0.0,0.0,0.0,0.0,0.0,0.0,0.0,0.0,0.0,0.0,0.0,1.1498,1.1768,1.2668,1.2498,1.1818,1.0588,0.9904,0.941,0.9049,0.8192,0.0,0.0,0.0,0.0,0.0,0.0,0.0,0.0,0.0,0.0,0.0,0.0,0.0,0.0,0.0,0.0,0.0,0.0,0.0,0.0,0.0,0.0,0.0,0.0,0.0,0.0,0.0,0.0,0.0,0.0,0.0,0.0,0.0,0.0,0.0,0.0,0.0,0.0,0.0,0.0,0.0,0.0,0.0,0.0,0.0,0.0,0.0,0.0,0.0,0.0,0.0,0.0,0.0,0.0,0.0,0.0,0.0,0.0,0.0,0.0,0.0,0.0,0.0,0.0,0.0,0.0,0.0,0.0,0.0,0.0,0.0,0.0,0.0,0.0,0.0,0.0,0.0,0.0,0.0,0.0,0.0,0.0,0.0,0.0,0.0,0.0,0.0,0.0,0.0,0.0,0.0,0.0,0.0,0.0,0.0,0.0,0.0,0.0,0.0,0.0,0.0,0.0,1.1219,1.1313,1.2234,1.151,1.0557,0.9569,0.8731,0.8326,0.8531,0.7789,0.0,0.0,0.0,0.0,0.0,0.0,0.0,0.0,0.0,0.0,0.0,0.0,0.0,0.0,0.0,0.0,0.0,0.0,0.0,0.0,0.0,0.0,0.0,0.0,0.0,0.0,0.0,0.0,0.0,0.0,0.0,0.0,0.0,0.0,0.0,0.0,0.0,0.0,0.0,0.0,0.0,0.0,0.0,0.0,0.0,0.0,0.0,0.0,0.0,0.0,0.0,0.0,0.0,0.0,0.0,0.0,0.0,0.0,0.0,0.0,0.0,0.0,0.0,0.0,0.0,0.0,0.0,0.0,0.0,0.0,0.0,0.0,0.0,0.0,0.0,0.0,0.0,0.0,0.0,0.0,0.0,0.0,0.0,0.0,0.0,0.0,0.0,0.0,0.0,0.0,0.0,0.0,0.0,0.0,0.0,0.0,0.0,0.0,0.0,0.0,0.0,0.0,1.1261,1.1334,1.1366,1.094,1.0175,0.8953,0.8505,0.8334,0.8426,0.0,0.0,0.0,0.0,0.0,0.0,0.0,0.0,0.0,0.0,0.0,0.0,0.0,0.0,0.0,0.0,0.0,0.0,0.0,0.0,0.0,0.0,0.0,0.0,0.0,0.0,0.0,0.0,0.0,0.0,0.0,0.0,0.0,0.0,0.0,0.0,0.0,0.0,0.0,0.0,0.0,0.0,0.0,0.0,0.0,0.0,0.0,0.0,0.0,0.0,0.0,0.0,0.0,0.0,0.0,0.0,0.0,0.0,0.0,0.0,0.0,0.0,0.0,0.0,0.0,0.0,0.0,0.0,0.0,0.0,0.0,0.0,0.0,0.0,0.0,0.0,0.0,0.0,0.0,0.0,0.0,0.0,0.0,0.0,0.0,0.0,0.0,0.0,0.0,0.0,0.0,0.0,0.0,0.0,0.0,0.0,0.0,0.0,0.0,0.0,0.0,0.0,1.1096,1.1137,1.1065,1.0843,1.0303,0.9517,0.8434,0.8144,0.808,0.8235,0.0,0.0,0.0,0.0,0.0,0.0,0.0,0.0,0.0,0.0,0.0,0.0,0.0,0.0,0.0,0.0,0.0,0.0,0.0,0.0,0.0,0.0,0.0,0.0,0.0,0.0,0.0,0.0,0.0,0.0,0.0,0.0,0.0,0.0,0.0,0.0,0.0,0.0,0.0,0.0,0.0,0.0,0.0,0.0,0.0,0.0,0.0,0.0,0.0,0.0,0.0,0.0,0.0,0.0,0.0,0.0,0.0,0.0,0.0,0.0,0.0,0.0,0.0,0.0,0.0,0.0,0.0,0.0,0.0,0.0,0.0,0.0,0.0,0.0,0.0,0.0,0.0,0.0,0.0,0.0,0.0,0.0,0.0,0.0,0.0,0.0,0.0,0.0,0.0,0.0,0.0,0.0,0.0,0.0,0.0,0.0,0.0,0.0,0.0,0.0,0.0,0.0,1.1529,1.0785,1.0357,1.0742,0.9481,0.8434,0.8036,0.7522,0.7407,0.0,0.0,0.0,0.0,0.0,0.0,0.0,0.0,0.0,0.0,0.0,0.0,0.0,0.0,0.0,0.0,0.0,0.0,0.0,0.0,0.0,0.0,0.0,0.0,0.0,0.0,0.0,0.0,0.0,0.0,0.0,0.0,0.0,0.0,0.0,0.0,0.0,0.0,0.0,0.0,0.0,0.0,0.0,0.0,0.0,0.0,0.0,0.0,0.0,0.0,0.0,0.0,0.0,0.0,0.0,0.0,0.0,0.0,0.0,0.0,0.0,0.0,0.0,0.0,0.0,0.0,0.0,0.0,0.0,0.0,0.0,0.0,0.0,0.0,0.0,0.0,0.0,0.0,0.0,0.0,0.0,0.0,0.0,0.0,0.0,0.0,0.0,0.0,0.0,0.0,0.0,0.0,0.0,0.0,0.0,0.0,0.0,0.0,0.0,0.0,0.0,0.0,0.0,1.1076,1.081,1.0395,0.9795,0.9315,0.8677,0.7859,0.765,0.7749,0.8218,0.0,0.0,0.0,0.0,0.0,0.0,0.0,0.0,0.0,0.0,0.0,0.0,0.0,0.0,0.0,0.0,0.0,0.0,0.0,0.0,0.0,0.0,0.0,0.0,0.0,0.0,0.0,0.0,0.0,0.0,0.0,0.0,0.0,0.0,0.0,0.0,0.0,0.0,0.0,0.0,0.0,0.0,0.0,0.0,0.0,0.0,0.0,0.0,0.0,0.0,0.0,0.0,0.0,0.0,0.0,0.0,0.0,0.0,0.0,0.0,0.0,0.0,0.0,0.0,0.0,0.0,0.0,0.0,0.0,0.0,0.0,0.0,0.0,0.0,0.0,0.0,0.0,0.0,0.0,0.0,0.0,0.0,0.0,0.0,0.0,0.0,0.0,0.0,0.0,0.0,0.0,0.0,0.0,0.0,0.0,0.0,0.0,0.0,0.0,0.0,0.0,0.0,1.1188,1.0791,1.0205,0.9396,0.9224,0.8718,0.7591,0.7797,0.8034,0.8184,0.0,0.0,0.0,0.0,0.0,0.0,0.0,0.0,0.0,0.0,0.0,0.0,0.0,0.0,0.0,0.0,0.0,0.0,0.0,0.0,0.0,0.0,0.0,0.0,0.0,0.0,0.0,0.0,0.0,0.0,0.0,0.0,0.0,0.0,0.0,0.0,0.0,0.0,0.0,0.0,0.0,0.0,0.0,0.0,0.0,0.0,0.0,0.0,0.0,0.0,0.0,0.0,0.0,0.0,0.0,0.0,0.0,0.0,0.0,0.0,0.0,0.0,0.0,0.0,0.0,0.0,0.0,0.0,0.0,0.0,0.0,0.0,0.0,0.0,0.0,0.0,0.0,0.0,0.0,0.0,0.0,0.0,0.0,0.0,0.0,0.0,0.0,0.0,0.0,0.0,0.0,0.0,0.0,0.0,0.0,0.0,0.0,0.0,0.0,0.0,0.0,0.0,1.1591,1.0761,0.9935,0.9359,0.921,0.8642,0.7414,0.7974,0.8261,0.7972,0.0,0.0,0.0,0.0,0.0,0.0,0.0,0.0,0.0,0.0,0.0,0.0,0.0,0.0,0.0,0.0,0.0,0.0,0.0,0.0,0.0,0.0,0.0,0.0,0.0,0.0,0.0,0.0,0.0,0.0,0.0,0.0,0.0,0.0,0.0,0.0,0.0,0.0,0.0,0.0,0.0,0.0,0.0,0.0,0.0,0.0,0.0,0.0,0.0,0.0,0.0,0.0,0.0,0.0,0.0,0.0,0.0,0.0,0.0,0.0,0.9406,0.0,0.0,0.0,0.0,0.0,0.0,0.0,0.0,0.0,0.0,0.0,0.0,0.0,0.0,0.0,0.0,0.0,0.0,0.0,0.0,0.0,0.0,0.0,0.0,0.0,0.0,0.0,0.0,0.0,0.0,0.0,0.0,0.0,0.0,0.0,0.0,0.0,0.0,0.0,0.0,0.0,1.1591,1.0959,1.0187,0.9379,0.942,0.9133,0.8222,0.8299,0.838,0.8295,0.7927,0.0,0.0,0.0,0.0,0.0,0.0,0.0,0.0,0.0,0.0,0.0,0.0,0.0,0.0,0.0,0.0,0.0,0.0,0.0,0.0,0.0,0.0,0.0,0.0,0.0,0.0,0.0,0.0,0.0,0.0,0.0,0.0,0.0,0.0,0.0,0.0,0.0,0.0,0.0,0.0,0.0,0.0,0.0,0.0,0.0,0.0,0.0,0.0,0.0,0.0,0.0,0.0,0.0,0.0,0.0,0.0,0.0,0.0,0.0,0.0,0.8902,0.0,0.0,0.0,0.0,0.0,0.0,0.0,0.0,0.0,0.0,0.0,0.0,0.0,0.0,0.0,0.0,0.0,0.0,0.0,0.0,0.0,0.0,0.0,0.0,0.0,0.0,0.0,0.0,0.0,0.0,0.0,0.0,0.0,0.0,0.0,0.0,0.0,0.0,0.0,0.0,1.1861,1.1104,1.0321,0.9622,0.9779,0.9527,0.8491,0.8574,0.8503,0.8098,0.7833,0.0,0.0,0.0,0.0,0.0,0.0,0.0,0.0,0.0,0.0,0.0,0.0,0.0,0.0,0.0,0.0,0.0,0.0,0.0,0.0,0.0,0.0,0.0,0.0,0.0,0.0,0.0,0.0,0.0,0.0,0.0,0.0,0.0,0.0,0.0,0.0,0.0,0.0,0.0,0.0,0.0,0.0,0.0,0.0,0.0,0.0,0.0,0.0,0.0,0.0,0.0,0.0,0.0,0.7965,0.834,0.8568,0.911,0.8783,0.7798,0.8518,0.8487,0.8018,0.9035,0.0,0.0,0.0,0.0,0.0,0.0,0.0,0.0,0.0,0.0,0.0,0.0,0.0,0.0,0.0,0.0,0.0,0.0,0.0,0.0,0.0,0.0,0.0,0.0,1.0419,1.0496,0.0,0.0,0.0,0.0,0.0,0.0,0.0,0.0,0.0,0.0,0.0,0.0,1.2114,1.1277,1.0426,0.9761,0.9982,0.9687,0.8504,0.8709,0.8588,0.7862,0.7749,0.7691,0.0,0.0,0.0,0.0,0.0,0.0,0.0,0.0,0.0,0.0,0.0,0.0,0.0,0.0,0.0,0.0,0.0,0.0,0.0,0.0,0.0,0.0,0.0,0.0,0.0,0.0,0.0,0.0,0.0,0.0,0.0,0.0,0.6402,0.6464,0.0,0.0,0.0,0.0,0.0,0.0,0.0,0.0,0.0,0.0,0.0,0.0,0.0,0.7066,0.7066,0.7332,0.7469,0.7494,0.8042,0.8313,0.834,0.8436,0.8291,0.7994,0.869,0.0,0.8207,0.8698,0.0,0.0,0.0,0.0,0.0,0.0,0.0,0.0,0.0,0.0,0.0,0.0,0.0,0.0,0.0,0.0,0.0,0.0,0.0,0.0,0.0,0.0,1.0496,1.047,1.0496,1.0496,0.0,1.0871,1.1226,1.1301,1.1685,0.0,0.0,0.0,0.0,0.0,0.0,0.0,1.2155,1.1488,1.0577,0.9394,0.9524,0.9338,0.8466,0.8452,0.8439,0.8309,0.7917,0.7691,0.7691,0.7587,0.0,0.0,0.0,0.0,0.0,0.0,0.0,0.0,0.0,0.0,0.0,0.0,0.0,0.0,0.0,0.0,0.0,0.0,0.0,0.0,0.0,0.0,0.0,0.0,0.0,0.0,0.0,0.0,0.0,0.6332,0.6548,0.6666,0.6577,0.6501,0.0,0.0,0.0,0.0,0.0,0.0,0.0,0.0,0.0,0.7366,0.7569,0.7712,0.7712,0.7797,0.7902,0.802,0.8142,0.8485,0.9053,0.9287,0.9432,0.9422,0.9988,0.995,0.9503,0.9535,0.9483,0.9442,0.0,0.0,0.0,0.0,0.9011,0.8835,0.891,0.8889,0.0,0.9369,0.0,0.0,0.0,0.0,0.0,0.0,0.0,0.0,0.0,0.0,0.0,1.0573,1.0553,1.0604,1.051,1.0624,1.0769,0.0,1.1167,1.1626,1.2236,0.0,0.0,0.0,0.0,1.2142,1.1856,1.1414,1.066,0.9497,0.9516,0.9279,0.8461,0.8407,0.8291,0.8023,0.7816,0.7691,0.7691,0.7691,0.7778,0.0,0.0,0.0,0.0,0.0,0.0,0.0,0.0,0.0,0.0,0.0,0.0,0.0,0.0,0.0,0.0,0.0,0.0,0.0,0.0,0.0,0.0,0.0,0.0,0.0,0.0,0.0,0.0,0.6596,0.6723,0.6882,0.6807,0.6747,0.0,0.0,0.0,0.0,0.0,0.0,0.7493,0.765,0.783,0.8009,0.8212,0.8321,0.8321,0.8373,0.8477,0.8637,0.8477,0.881,0.9515,0.9827,1.0005,1.0078,1.0545,1.0505,1.0116,0.9946,0.9785,0.9618,0.9607,0.9462,0.9274,0.9274,0.9137,0.8956,0.8959,0.8956,0.9007,0.9408,0.0,0.9321,1.0003,0.0,0.0,0.0,0.0,1.0891,1.1046,1.1151,1.1125,1.0725,1.0684,1.0752,1.0664,1.0486,1.0374,0.0,1.0608,1.0956,1.1576,0.0,0.0,0.0,0.0,1.1606,1.1411,1.1063,1.0458,0.9435,0.9295,0.8999,0.8291,0.8209,0.8064,0.7712,0.7691,0.7691,0.7691,0.7691,0.7808,0.807,0.0,0.0,0.0,0.0,0.0,0.0,0.0,0.0,0.0,0.0,0.0,0.0,0.0,0.0,0.0,0.0,0.0,0.0,0.0,0.0,0.0,0.0,0.0,0.0,0.0,0.0,0.0,0.0,0.0,0.7171,0.7337,0.0,0.0,0.0,0.0,0.7432,0.7645,0.791,0.8316,0.8349,0.8448,0.8647,0.8864,0.8938,0.8938,0.9126,0.9225,0.9235,0.9225,0.9266,0.9311,0.9147,0.898,0.8808,0.9296,0.9389,0.9173,0.9239,0.9761,1.0479,0.9834,0.9971,1.0507,1.0507,1.0683,1.0915,1.061,1.0675,1.0797,0.9885,0.9662,0.9871,1.0564,1.0863,0.0,0.0,1.0986,1.0986,1.1001,1.1009,1.1009,1.0986,1.0986,1.0978,1.0991,1.0733,1.044,0.0,1.0162,1.0223,1.0778,0.0,1.1015,1.1591,1.1548,1.1284,1.0902,1.0435,0.981,0.8921,0.8622,0.827,0.7774,0.7732,0.7732,0.7691,0.7691,0.7691,0.7691,0.7691,0.7698,0.772,0.7761,0.0,0.0,0.0,0.0,0.0,0.0,0.0,0.0,0.0,0.0,0.0,0.0,0.0,0.0,0.0,0.0,0.0,0.0,0.0,0.0,0.0,0.0,0.0,0.0,0.0,0.0,0.0,0.0,0.7769,0.7973,0.0,0.7966,0.7962,0.8042,0.8245,0.8458,0.8765,0.9141,0.9327,0.9539,0.9705,0.9913,1.0022,1.0022,0.9965,0.9937,0.9932,0.9616,0.9775,1.0259,1.007,1.02,1.0622,1.0686,1.0602,1.0396,0.9734,0.9681,0.9983,0.9525,0.9234,0.911,0.911,0.9055,0.9037,0.9332,0.9804,1.0315,1.0759,1.057,1.0319,1.1088,1.1189,1.113,1.1428,1.1368,1.1248,1.1466,1.1518,1.1466,1.1248,1.1195,1.1172,1.1026,1.0846,1.0629,1.034,1.0072,1.0076,1.0702,1.0362,1.0354,1.1341,1.1057,1.0695,1.0573,1.0471,1.0062,0.9164,0.8812,0.8493,0.8048,0.7815,0.7691,0.7691,0.7691,0.7566,0.7259,0.7259,0.7199,0.7126,0.6924,0.6984,0.0,0.0,0.0,0.0,0.0,0.0,0.0,0.0,0.0,0.0,0.0,0.0,0.0,0.0,0.0,0.0,0.0,0.0,0.0,0.0,0.0,0.0,0.0,0.0,0.0,0.7821,0.817,0.8373,0.8647,0.8793,0.8722,0.8779,0.8907,0.911,0.9322,0.9597,0.9941,1.0132,1.027,1.0417,1.055,1.0621,1.0621,1.0488,1.0417,1.0417,1.0022,1.011,1.0605,1.0341,1.049,1.0969,1.0795,1.065,1.051,0.9773,0.9543,0.9537,0.9254,0.9064,0.8898,0.8898,0.8849,0.8816,0.926,0.9474,0.9738,1.0764,1.0568,1.0144,1.1198,1.134,1.1283,1.188,1.1798,1.1597,1.182,1.1798,1.1688,1.1442,1.139,1.1361,1.1241,1.104,1.0834,1.0598,1.0206,1.0023,1.0334,0.995,0.9903,1.0832,1.0476,1.0177,1.0266,1.0208,0.9873,0.9267,0.8942,0.8648,0.8385,0.8165,0.8041,0.8041,0.7938,0.7681,0.7286,0.715,0.7038,0.6862,0.6327,0.6384,0.7134,0.0,0.0,0.0,0.0,0.0,0.0,0.0,0.0,0.0,0.0,0.0,0.0,0.0,0.0,0.0,0.0,0.0,0.0,0.0,0.0,0.0,0.0,0.0,0.7867,0.8344,0.8817,0.899,0.938,0.955,0.9343,0.9512,0.9762,1.0009,1.0217,1.0426,1.063,1.064,1.064,1.064,1.064,1.064,1.064,1.063,1.063,1.0626,1.0417,1.0317,1.0258,0.9804,0.9616,0.9602,0.9385,0.9296,0.9341,0.9286,0.9286,0.9292,0.9165,0.9484,1.0078,1.0072,1.0261,1.0545,1.0587,0.9916,0.9217,0.9916,0.9671,0.9392,1.0886,1.1333,1.1498,1.2296,1.2266,1.2018,1.2018,1.1823,1.1621,1.1621,1.1613,1.1606,1.1606,1.1349,1.1114,1.1107,1.0594,1.0024,0.9687,0.961,0.9746,1.0038,0.9826,0.0,1.0046,0.9563,0.9214,0.9214,0.8921,0.8707,0.8707,0.8715,0.8692,0.8692,0.8369,0.807,0.7781,0.7449,0.7167,0.6972,0.601,0.5729,0.62,0.0,0.0,0.0,0.0,0.0,0.0,0.0,0.0,0.0,0.0,0.0,0.0,0.0,0.0,0.0,0.0,0.0,0.0,0.0,0.0,0.0,0.8313,0.876,0.8486,0.9154,0.9672,0.9729,1.0064,1.0296,1.0234,1.0282,1.0409,1.0622,1.0693,1.0811,1.1014,1.1023,1.1023,1.1023,1.1023,1.1023,1.1023,1.0877,1.0806,1.0801,1.0493,1.0317,1.0308,1.0037,0.9909,0.9856,0.9606,0.9639,0.98,0.945,0.9376,0.9516,0.9328,0.937,0.9506,0.9351,0.9263,0.9311,1.0046,0.9647,0.9045,1.0375,1.0307,0.9976,1.155,1.1868,1.1842,1.2626,1.2602,1.2353,1.2353,1.2321,1.2255,1.2255,1.2072,1.1904,1.1904,1.1655,1.1386,1.1151,1.096,1.0631,1.006,1.0163,1.0192,0.9804,0.987,0.0,0.9768,0.9599,0.9497,0.9497,0.9219,0.9068,0.9068,0.8848,0.8692,0.8692,0.8203,0.7722,0.7301,0.6824,0.6447,0.6218,0.5923,0.5935,0.0,0.0,0.0,0.0,0.0,0.0,0.0,0.0,0.0,0.0,0.0,0.0,0.0,0.0,0.0,0.0,0.0,0.0,0.0,0.0,0.0,0.0,0.9007,0.9535,0.9493,0.9947,1.0289,1.0384,1.0683,1.0834,1.0834,1.0915,1.0981,1.1019,1.1104,1.1165,1.1194,1.1194,1.1194,1.1194,1.1194,1.1194,1.1194,1.108,1.1019,1.1019,1.0688,1.0537,1.0527,1.027,1.0132,0.0,0.9866,0.9842,0.9975,0.9686,0.9663,0.0,0.0,0.0,0.0,0.0,0.8996,0.9007,0.9512,0.9325,0.899,0.9909,0.9845,0.9647,1.0925,1.115,1.1168,1.1972,1.2226,1.2199,1.2199,1.2348,1.2485,1.2485,1.2339,1.2207,1.2207,1.2094,1.1911,1.1714,1.1684,0.0,1.0828,1.0528,1.0302,1.006,0.995,0.9877,0.9826,0.9702,0.9588,0.9588,0.946,0.9358,0.9358,0.8984,0.0,0.0,0.0,0.7419,0.6915,0.649,0.0,0.0,0.0,0.6078,0.6205,0.0,0.0,0.0,0.6141,0.6305,0.0,0.0,0.0,0.0,0.0,0.0,0.0,0.0,0.0,0.0,0.0,0.0,0.0,0.0,0.0,0.0,0.996,1.0433,1.0679,1.0758,1.0778,1.0948,1.1142,1.1264,1.1264,1.1439,1.1463,1.1246,1.1411,1.1425,1.1208,0.0,0.0,0.0,0.0,1.1194,1.1194,1.1194,1.1194,1.1194,1.099,1.0896,1.0882,1.049,1.031,1.0341,1.0123,1.0032,1.0028,1.0004,0.9994,0.9956,0.954,0.9338,0.9301,0.9185,0.9195,0.923,0.9098,0.0,0.0,0.8985,0.8897,0.8885,0.9663,0.9884,1.0073,1.0885,1.1474,1.1846,1.1879,1.2235,1.2594,1.2594,1.2565,1.2543,1.2543,1.2548,1.2485,1.2485,1.2485,1.2343,1.1804,1.0916,1.0382,1.0558,1.0089,0.9819,1.0068,0.9819,0.9588,0.9588,0.0,0.0,0.951,0.9014,0.8692,0.8692,0.7856,0.7115,0.6587,0.6316,0.6205,0.6205,0.6205,0.6205,0.6205,0.615,0.5955,0.5595,0.5841,0.5918,0.0,0.0,0.0,0.0,0.0,0.0,0.0,0.0,0.0,0.0,0.0,0.0,0.0,0.0,0.0,1.0027,1.0584,1.0962,1.1501,1.1576,1.1529,1.1411,1.1576,1.1699,1.1699,1.1737,1.1676,1.1472,1.1491,1.1425,1.1208,1.1194,1.1194,1.1194,1.1194,1.1194,1.1194,1.1194,1.1194,1.1194,0.0,0.0,1.0886,1.0631,1.0564,1.055,1.0346,1.0255,1.0241,1.0066,0.9994,0.9985,0.9904,0.9729,0.9559,0.9724,0.9478,0.9084,0.938,0.9263,0.8985,0.8985,0.8957,0.9047,0.971,0.9884,0.0,1.1053,1.1759,1.2234,1.2386,1.2868,1.3309,1.3309,1.3104,1.2914,1.2914,1.2674,1.2485,1.2485,1.2485,1.2448,1.2358,1.193,1.1414,1.0697,1.0485,1.0331,1.0126,0.9819,0.9588,0.9588,0.9223,0.8955,0.8955,0.8402,0.8084,0.8084,0.7511,0.6881,0.6301,0.6236,0.6205,0.6205,0.6205,0.6205,0.6205,0.5868,0.5677,0.5595,0.565,0.5481,0.0,0.0,0.0,0.0,0.0,0.0,0.0,0.0,0.0,0.0,0.0,0.581,0.6805,0.0,0.9133,1.021,1.0918,1.1463,1.1775,1.1912,1.1902,1.1694,1.1756,1.1817,1.1817,1.1912,1.1893,1.1685,1.1666,1.1576,1.1368,1.1255,1.1194,1.1194,1.1194,1.1194,1.1194,1.1194,1.1194,1.1194,1.1094,1.1047,1.1038,1.083,1.0735,1.0721,1.0559,1.0412,1.0303,1.0085,0.9994,0.9994,0.9994,0.9933,0.98,0.98,0.9667,0.9502,0.9569,0.947,0.9296,0.9296,0.9221,0.9192,0.9518,0.9606,0.9705,1.0203,1.0852,1.1414,1.1414,1.2005,1.2551,1.2334,1.2337,1.2289,1.2108,1.2081,1.2067,1.1952,1.1962,1.1909,1.1728,1.1464,1.1249,1.1125,1.0968,1.0596,0.9939,0.9624,0.9321,0.8944,0.8572,0.8349,0.8349,0.7818,0.7369,0.7079,0.6788,0.6527,0.6205,0.6205,0.6205,0.6205,0.6205,0.6096,0.59,0.5704,0.5371,0.4901,0.4958,0.4836,0.0,0.0,0.0,0.0,0.0,0.0,0.0,0.3474,0.3867,0.4639,0.5539,0.6381,0.702,0.8617,0.9915,1.0281,1.1194,1.1893,1.1931,1.2034,1.2081,1.1959,1.194,1.194,1.194,1.2043,1.2038,1.1836,1.1817,1.1709,1.1468,1.1288,1.1194,1.1194,1.1194,1.1194,1.1194,1.1194,1.1194,1.1194,1.1194,1.1194,1.1189,1.1028,1.0953,1.0943,1.0731,1.0523,1.036,1.0146,1.0056,1.0056,1.0013,0.9994,0.9975,0.9767,0.9786,0.9919,0.9748,0.9635,0.9602,0.9602,0.9484,0.9338,0.9296,0.9282,0.9291,0.9333,0.9917,1.0487,1.0354,1.0982,1.1635,1.1288,1.1477,1.1629,1.1282,1.1483,1.1637,1.1501,1.1453,1.1388,1.1097,1.0885,1.0876,1.1238,1.1005,1.0463,0.9659,0.9326,0.8916,0.8257,0.7972,0.7737,0.7589,0.716,0.6712,0.6232,0.6205,0.6205,0.6205,0.6133,0.6096,0.6096,0.605,0.5873,0.5533,0.545,0.5026,0.4291,0.4294,0.424,0.2382,0.2662,0.2941,0.3056,0.3407,0.3818,0.0,0.4549,0.4899,0.5195,0.5701,0.6381,0.7361,0.8435,0.9524,1.0558,1.1495,1.2114,1.2292,1.2335,1.2344,1.2316,1.2316,1.2316,1.2316,1.234,1.2189,1.1846,1.1817,1.1647,1.125,1.1208,1.1194,1.1194,1.1194,1.1194,1.1194,1.1194,1.1194,1.1194,1.1194,1.1194,1.1194,1.1175,1.1161,1.1151,1.0948,1.0735,1.0569,1.0365,1.0284,1.0265,1.007,0.9994,0.9994,0.9971,0.9819,0.9658,0.9861,0.98,0.9602,0.9602,0.9587,0.9531,0.9338,0.9282,0.9324,0.9517,1.0038,1.0527,1.0672,1.12,1.169,1.1631,1.166,1.169,1.1631,1.166,1.1696,1.166,1.1655,1.1649,1.1619,1.1426,1.1061,1.0373,0.9816,0.9446,0.9358,0.8957,0.8566,0.8247,0.774,0.7166,0.646,0.6337,0.6287,0.6205,0.6205,0.6205,0.6205,0.5925,0.5755,0.5755,0.5535,0.5374,0.5344,0.492,0.4649,0.4559,0.4151,0.3909,0.2489,0.2857,0.3286,0.3258,0.3755,0.4387,0.4874,0.5163,0.5465,0.5979,0.6667,0.7363,0.7914,0.9145,1.027,1.0854,1.1715,1.2288,1.2372,1.2283,1.2212,1.2212,1.21,1.2118,1.2363,1.2278,1.2137,1.1968,1.1779,1.1567,1.1392,1.1264,1.1194,1.1194,1.1194,1.1255,1.1383,1.1255,1.1255,1.1383,1.1255,1.1194,1.1194,1.1194,1.1194,1.1184,1.0981,1.0844,1.0745,1.0583,1.0447,1.0483,1.0393,1.0355,1.0331,1.0085,0.9942,0.9838,0.9966,0.9937,0.9823,0.9823,0.9908,0.997,0.9752,0.9776,0.9871,0.9833,1.0008,1.0179,1.0107,1.0417,1.0627,1.0355,1.0496,1.0622,1.035,1.0502,1.0653,1.0522,1.0496,1.0496,1.0496,1.0298,1.0001,0.955,0.9804,0.9786,0.9097,0.8723,0.8237,0.7483,0.7183,0.6861,0.6421,0.6379,0.6327,0.621,0.5982,0.5867,0.5897,0.5547,0.5403,0.547,0.5363,0.5157,0.4881,0.4698,0.4455,0.418,0.4072,0.4015,0.2684,0.3219,0.3754,0.3841,0.4459,0.5166,0.5603,0.5822,0.6065,0.6624,0.7235,0.7737,0.7923,0.9341,1.051,1.0649,1.1638,1.2387,1.2387,1.2212,1.2085,1.2085,1.1897,1.1883,1.2184,1.2081,1.1977,1.1921,1.1742,1.1576,1.152,1.142,1.1368,1.1368,1.1312,1.1359,1.1515,1.1302,1.1274,1.1425,1.1269,1.1194,1.1194,1.1194,1.1194,1.1189,1.1042,1.0976,1.0962,1.0749,1.0664,1.0702,1.064,1.0621,1.0583,1.0279,1.0165,1.0151,1.0037,1.007,1.0156,1.0104,1.0194,1.0289,1.0132,1.0151,1.0198,1.0042,0.9994,0.9961,0.9767,0.9838,0.9919,0.9568,0.9776,0.9999,0.9653,0.9871,1.0123,0.9932,0.9813,0.9776,0.9776,0.955,0.9324,0.9178,0.9712,0.9801,0.8802,0.8422,0.7894,0.7005,0.6854,0.673,0.6605,0.6591,0.6472,0.6183,0.5888,0.5693,0.5598,0.5233,0.5074,0.5156,0.5078,0.4849,0.4503,0.4503,0.435,0.4005,0.4126,0.4167,0.3154,0.3749,0.4463,0.5144,0.5862,0.6398,0.6519,0.6643,0.6823,0.6948,0.6883,0.6892,0.7015,0.8437,0.962,0.9624,1.1225,1.2387,1.2387,1.2212,1.2085,1.2085,1.1897,1.1822,1.1836,1.1831,1.1746,1.1548,1.1704,1.1723,1.1529,1.1694,1.1798,1.1798,1.1609,1.151,1.152,1.1302,1.1198,1.1203,1.1198,1.1194,1.1194,1.1194,1.1194,1.1194,1.1189,1.1184,1.117,1.0967,1.0886,1.0868,1.0702,1.0621,1.0616,1.0607,1.0597,1.054,1.0137,1.026,1.0569,1.0369,1.0312,1.0317,1.0312,1.0165,1.0004,0.9999,0.9994,0.9994,0.9985,0.999,0.9994,0.998,1.0146,1.0308,1.0249,1.0409,1.0597,1.0592,1.039,1.0298,1.0298,0.9908,0.9592,0.9587,0.9271,0.8893,0.8476,0.7912,0.7445,0.7204,0.6944,0.6791,0.6782,0.6782,0.6598,0.6134,0.61,0.5864,0.5332,0.4984,0.481,0.4814,0.4492,0.4323,0.4323,0.4323,0.4289,0.4289,0.4295,0.4295,0.3395,0.4092,0.4785,0.5494,0.6228,0.6812,0.6853,0.695,0.7027,0.6991,0.6888,0.697,0.759,0.857,0.9511,1.0322,1.0947,1.1414,1.1546,1.1343,1.1173,1.105,1.1382,1.1562,1.142,1.1534,1.1647,1.1713,1.1657,1.1647,1.1713,1.1779,1.1817,1.1817,1.1751,1.1784,1.1878,1.1713,1.1609,1.1605,1.1326,1.1194,1.1194,1.1194,1.1194,1.1194,1.1194,1.1194,1.1189,1.1123,1.1094,1.109,1.1014,1.0986,1.0967,1.0834,1.0872,1.0924,1.0554,1.0502,1.0611,1.054,1.057,1.0636,1.0357,1.046,1.049,1.0113,1.0194,1.0379,1.0246,1.0308,1.0407,1.0407,1.0464,1.0521,1.0521,1.0573,1.0621,1.0621,1.0455,1.0317,1.0317,1.008,0.9804,0.9625,0.9126,0.8713,0.8439,0.7976,0.7679,0.7612,0.709,0.6664,0.6542,0.6214,0.5883,0.5586,0.5271,0.5078,0.4963,0.4573,0.4382,0.4468,0.4345,0.43,0.43,0.43,0.43,0.43,0.43,0.43,0.3824,0.4454,0.5135,0.6076,0.6712,0.7056,0.71,0.7103,0.7117,0.6945,0.6787,0.6823,0.7386,0.8042,0.8875,1.0048,1.0481,1.071,1.0978,1.0811,1.0672,1.0621,1.0918,1.1217,1.138,1.1543,1.1647,1.1704,1.1728,1.1747,1.1874,1.2002,1.1987,1.1987,1.1916,1.1944,1.2085,1.1855,1.1671,1.1595,1.1401,1.1269,1.1194,1.1194,1.1194,1.1194,1.1194,1.1194,1.1194,1.1194,1.1194,1.1194,1.1194,1.1194,1.1179,1.1052,1.1085,1.1137,1.0716,1.0669,1.0783,1.0712,1.0783,1.0844,1.0579,1.0631,1.0693,1.0331,1.0412,1.0588,1.046,1.0521,1.0621,1.0621,1.0631,1.0688,1.0688,1.0745,1.0797,1.0797,1.0631,1.0471,1.0441,1.0189,0.9837,0.9338,0.8932,0.8556,0.8215,0.7888,0.7587,0.7268,0.678,0.6423,0.6314,0.5923,0.5588,0.5234,0.4945,0.4734,0.4634,0.4346,0.4221,0.43,0.43,0.43,0.43,0.43,0.43,0.43,0.43,0.43,0.4373,0.4934,0.5474,0.6858,0.7224,0.7254,0.7296,0.7146,0.6948,0.6812,0.6589,0.6368,0.6368,0.6952,0.777,0.8881,0.9692,1.028,1.0616,1.0493,1.05,1.0715,1.0594,1.085,1.1662,1.1784,1.1667,1.1424,0.0,1.2037,1.21,1.2229,1.2327,1.2387,1.2198,1.21,1.21,1.1751,1.1394,1.1147,1.1325,1.1256,1.1012,1.0998,1.0998,1.0998,1.0998,1.0998,1.0998,1.0998,1.0998,1.0993,1.1096,1.1096,1.1096,1.1145,1.1194,1.1142,1.074,1.0863,1.1161,1.0972,1.091,1.091,1.0896,1.0759,1.0649,1.0626,1.0589,1.0649,1.064,1.0598,1.0654,1.0654,1.0764,1.091,1.091,1.1061,1.1194,1.1194,1.1023,1.0764,1.0547,1.0176,0.9577,0.8704,0.8535,0.833,0.7828,0.7601,0.7122,0.6295,0.613,0.6065,0.6065,0.5925,0.5601,0.51,0.5057,0.4827,0.4334,0.4306,0.4308,0.4308,0.4317,0.4319,0.4319,0.4319,0.4319,0.4319,0.4319,0.4319,0.4714,0.5223,0.5687,0.6963,0.7358,0.7364,0.7127,0.7029,0.6899,0.6592,0.6342,0.6176,0.6176,0.6786,0.7541,0.813,0.8419,0.8692,0.9036,0.9054,0.9164,0.952,1.0174,1.0716,1.1062,1.1407,1.1177,1.015,1.0757,1.1496,1.2302,1.1755,1.1728,1.2382,1.2172,1.2144,1.2307,1.2057,1.1365,1.0245,1.008,0.9388,0.8268,0.8261,0.8212,0.8212,0.8212,0.8212,0.8212,0.8212,0.8212,0.8312,0.93,0.9596,0.955,1.0743,1.1047,1.0935,1.1027,1.1104,1.1189,1.1137,1.1118,1.109,1.0943,1.0962,1.0972,1.066,1.0797,1.1,1.0853,1.0924,1.1038,1.1038,1.108,1.1118,1.1118,1.1161,1.1194,1.1194,1.0466,0.9791,0.9603,0.8913,0.8257,0.8039,0.7824,0.7569,0.7236,0.7014,0.681,0.6541,0.5945,0.5568,0.5568,0.512,0.48,0.4663,0.4546,0.4431,0.43,0.4382,0.446,0.446,0.455,0.4599,0.4599,0.4599,0.4599,0.4599,0.4599,0.4599,0.5037,0.5647,0.6189,0.7167,0.7385,0.7293,0.7043,0.6861,0.6657,0.6347,0.6135,0.6005,0.6005,0.6334,0.6842,0.7592,0.7777,0.7901,0.8252,0.8077,0.8105,0.842,0.8761,0.9113,0.9637,0.9909,0.9778,0.9043,0.9857,1.0464,1.0501,1.0061,0.9975,1.0445,1.0335,1.0245,1.0333,1.0313,0.9793,0.8786,0.8723,0.8193,0.7304,0.7231,0.7223,0.7223,0.0,0.7223,0.7223,0.7223,0.7223,0.7273,0.8011,0.8209,0.8212,0.9106,0.9653,0.9953,1.01,1.0547,1.1047,1.1145,1.1194,1.1175,1.1061,1.1104,1.1146,1.091,1.1014,1.117,1.1057,1.1109,1.1194,1.1194,1.0949,1.0654,1.0654,1.0408,1.0158,1.0158,0.9577,0.8992,0.8824,0.8283,0.7782,0.7404,0.7249,0.6957,0.6398,0.6341,0.6213,0.5945,0.5436,0.5136,0.5136,0.48,0.4586,0.4586,0.4525,0.449,0.449,0.455,0.4586,0.4586,0.4654,0.469,0.469,0.469,0.469,0.469,0.469,0.469,0.5324,0.604,0.6771,0.7328,0.7334,0.7188,0.6953,0.6641,0.6323,0.6086,0.5939,0.5855,0.5855,0.5801,0.6093,0.7161,0.7337,0.7496,0.7824,0.7443,0.7236,0.749,0.7107,0.7117,0.7905,0.808,0.8041,0.7866,0.8787,0.8984,0.8162,0.7992,0.793,0.7965,0.7959,0.7904,0.7687,0.7904,0.7735,0.719,0.7284,0.7162,0.679,0.6709,0.6698,0.6698,0.6698,0.0,0.6701,0.6667,0.6715,0.6698,0.6898,0.6939,0.6924,0.7123,0.7766,0.8555,0.8559,0.9357,1.0404,1.0949,1.1145,1.1194,1.1194,1.1194,1.1194,1.1194,1.1194,1.1198,1.1047,1.1047,1.0998,1.09,1.0359,0.9821,0.9821,0.9274,0.8825,0.8825,0.8589,0.8335,0.8204,0.7951,0.7517,0.6783,0.6659,0.6383,0.5607,0.5708,0.5638,0.5079,0.4893,0.482,0.482,0.4746,0.4712,0.4712,0.4698,0.469,0.469,0.4703,0.4712,0.4712,0.4731,0.4739,0.4739,0.4739,0.4739,0.4739,0.4739,0.4739,0.5396,0.6143,0.685,0.7245,0.7336,0.7168,0.6597,0.6331,0.6081,0.5844,0.5653,0.5567,0.5567,0.571,0.6007,0.6415,0.6541,0.6735,0.7116,0.6696,0.6566,0.722,0.6884,0.6831,0.7409,0.7573,0.7226,0.616,0.6188,0.6784,0.8052,0.7431,0.7209,0.7636,0.7904,0.7895,0.7601,0.7895,0.7332,0.6088,0.6056,0.536,0.4159,0.4031,0.3972,0.3972,0.3972,0.0,0.3977,0.4037,0.4026,0.4073,0.5199,0.5454,0.5381,0.6725,0.7167,0.7164,0.7419,0.7621,0.8166,1.0203,1.1002,1.1194,1.1194,1.1194,1.1194,1.1194,1.1194,1.1047,1.0359,1.0216,1.0019,0.9369,0.9122,0.9023,0.9023,0.8924,0.8825,0.8825,0.8199,0.7649,0.7626,0.6982,0.6336,0.607,0.597,0.5775,0.5524,0.5493,0.5391,0.5167,0.5053,0.4947,0.4947,0.4836,0.4766,0.4766,0.4744,0.469,0.469,0.4749,0.4766,0.4766,0.4901,0.4953,0.4953,0.4953,0.4953,0.4953,0.4953,0.4953,0.5427,0.6167,0.6855,0.7147,0.7149,0.6918,0.6377,0.6072,0.5833,0.5594,0.5496,0.5474,0.5497,0.565,0.5893,0.6135,0.6219,0.6302,0.6404,0.5822,0.5526,0.5816,0.5412,0.5246,0.5527,0.561,0.5418,0.4754,0.466,0.5006,0.5807,0.5425,0.5244,0.5532,0.5639,0.5639,0.553,0.5639,0.5363,0.4644,0.4565,0.4201,0.3493,0.3407,0.3369,0.3369,0.3369,0.0,0.3371,0.3401,0.3395,0.342,0.4047,0.4209,0.4092,0.4902,0.5425,0.5777,0.5929,0.6426,0.7167,0.8358,0.8905,0.9106,0.9106,0.9308,0.9558,0.9558,0.976,0.9862,0.9472,0.9373,0.9274,0.8874,0.8474,0.8077,0.763,0.7531,0.7531,0.7531,0.723,0.692,0.6903,0.6506,0.614,0.6015,0.5896,0.5711,0.5384,0.5185,0.5123,0.5295,0.5233,0.5175,0.511,0.505,0.4991,0.4895,0.4874,0.4766,0.4535,0.4589,0.4502,0.4275,0.4324,0.4389,0.4389,0.4389,0.4389,0.4389,0.4389,0.4389,0.5232,0.5903,0.657,0.6873,0.6797,0.6512,0.6162,0.5863,0.558,0.5379,0.5372,0.5368,0.5445,0.5567,0.5734,0.6043,0.5992,0.5904,0.5865,0.5206,0.4668,0.4617,0.4151,0.3812,0.3873,0.3922,0.3889,0.3889,0.3877,0.3884,0.3775,0.3666,0.3601,0.3589,0.3587,0.3587,0.3587,0.3587,0.3587,0.3587,0.354,0.3516,0.3514,0.3456,0.3431,0.3431,0.3431,0.0,0.0,0.3444,0.3443,0.3431,0.3431,0.3386,0.3322,0.3322,0.3792,0.4433,0.4433,0.5129,0.6022,0.6022,0.657,0.7223,0.7223,0.7471,0.7822,0.7822,0.8124,0.8425,0.8226,0.8177,0.8173,0.7975,0.7528,0.6983,0.6384,0.6237,0.6237,0.6237,0.6237,0.6161,0.6025,0.5961,0.5922,0.5807,0.5712,0.5506,0.5115,0.4883,0.4833,0.5155,0.512,0.5041,0.4948,0.494,0.4894,0.4786,0.4778,0.4609,0.4268,0.4268,0.4114,0.3802,0.3802,0.3802,0.3802,0.3802,0.3802,0.3802,0.3802,0.3802,0.4657,0.5232,0.5882,0.6153,0.6095,0.5975,0.5912,0.5691,0.5454,0.5254,0.5203,0.5241,0.5405,0.5485,0.5637,0.6029,0.5708,0.549,0.5765,0.4959,0.4412,0.4574,0.4193,0.3875,0.3875,0.3885,0.3889,0.3889,0.3899,0.3899,0.3831,0.3706,0.3644,0.359,0.3587,0.3587,0.3587,0.3587,0.3587,0.3587,0.3582,0.3579,0.3576,0.3516,0.3489,0.3489,0.3489,0.0,0.0,0.3548,0.3538,0.3489,0.3489,0.342,0.3322,0.3322,0.3333,0.3331,0.3331,0.343,0.353,0.353,0.5179,0.7223,0.7223,0.7223,0.7273,0.7273,0.7322,0.7173,0.6429,0.6279,0.6079,0.5334,0.5484,0.5787,0.5687,0.5684,0.5684,0.5684,0.5684,0.5532,0.5024,0.4922,0.4891,0.4846,0.4825,0.4743,0.4569,0.4545,0.45,0.4499,0.4222,0.403,0.4022,0.4022,0.4024,0.4014,0.4008,0.397,0.3845,0.3841,0.3841,0.3802,0.3802,0.3802,0.3802,0.3802,0.3802,0.3802,0.3802,0.3802,0.4332,0.4748,0.5098,0.5445,0.5627,0.5641,0.5361,0.5393,0.5374,0.5135,0.5086,0.5143,0.5375,0.5199,0.5236,0.5969,0.5266,0.4774,0.5222,0.4528,0.3996,0.3988,0.3872,0.3789,0.3887,0.3929,0.3889,0.3889,0.3928,0.3888,0.3887,0.3824,0.3688,0.359,0.3623,0.3624,0.3589,0.3587,0.3587,0.3587,0.3587,0.3587,0.3587,0.3563,0.355,0.355,0.355,0.0,0.0,0.3578,0.3574,0.355,0.355,0.348,0.3376,0.3376,0.3315,0.318,0.318,0.318,0.318,0.318,0.393,0.478,0.478,0.5031,0.5281,0.5281,0.5529,0.5679,0.5384,0.5284,0.5183,0.4885,0.4985,0.5135,0.5135,0.5135,0.5135,0.5135,0.5135,0.5035,0.4834,0.4784,0.4772,0.4785,0.4734,0.4539,0.417,0.4122,0.3938,0.3675,0.3963,0.4142,0.4034,0.4024,0.3988,0.3904,0.3898,0.3798,0.3516,0.3515,0.3371,0.3085,0.3085,0.3062,0.302,0.302,0.302,0.302,0.3064,0.3085,0.3866,0.4129,0.4396,0.491,0.5165,0.5209,0.5139,0.5253,0.5257,0.5059,0.5018,0.5049,0.516,0.4912,0.4915,0.5544,0.4765,0.4215,0.4541,0.4095,0.3657,0.3566,0.3604,0.3699,0.3881,0.3905,0.3889,0.3889,0.3872,0.3898,0.3896,0.3851,0.3722,0.3617,0.3639,0.3631,0.3589,0.3587,0.3587,0.3587,0.3587,0.3587,0.3587,0.3587,0.3587,0.3587,0.3587,0.0,0.0,0.3587,0.3587,0.3585,0.3568,0.35,0.341,0.3392,0.332,0.318,0.318,0.318,0.318,0.318,0.318,0.318,0.318,0.3482,0.3783,0.3783,0.4033,0.4334,0.4334,0.4433,0.4533,0.4383,0.4433,0.4583,0.4583,0.4583,0.4583,0.4583,0.4583,0.4535,0.4334,0.4334,0.4334,0.4334,0.4285,0.4049,0.3409,0.332,0.3043,0.2451,0.2939,0.333,0.3461,0.3227,0.3057,0.2931,0.2927,0.2792,0.2477,0.2477,0.2333,0.1971,0.197,0.1953,0.1922,0.1922,0.1922,0.1923,0.1954,0.197,0.3117,0.3281,0.3664,0.4633,0.4672,0.462,0.5517,0.545,0.5156,0.504,0.5018,0.493,0.4748,0.4703,0.4678,0.453,0.4133,0.3832,0.391,0.3604,0.3412,0.3414,0.3518,0.3636,0.3816,0.3879,0.3889,0.3889,0.3895,0.0,0.3833,0.3829,0.3741,0.3679,0.362,0.3589,0.3587,0.3587,0.3587,0.3587,0.3587,0.3587,0.3587,0.3587,0.3587,0.0,0.0,0.0,0.0,0.3587,0.3587,0.358,0.3521,0.3463,0.3405,0.3345,0.3232,0.318,0.318,0.318,0.318,0.318,0.318,0.318,0.318,0.318,0.323,0.323,0.323,0.323,0.323,0.3632,0.3883,0.3331,0.3632,0.4033,0.4033,0.4033,0.4033,0.4033,0.4033,0.3833,0.3331,0.323,0.323,0.323,0.323,0.2925,0.2117,0.2017,0.1701,0.0834,0.0734,0.1061,0.1856,0.1202,0.0727,0.0653,0.0651,0.0602,0.0546,0.0546,0.0546,0.0504,0.0504,0.0504,0.0504,0.0504,0.0504,0.0504,0.0504,0.0504,0.3005,0.3122,0.3248,0.3521,0.3747,0.398,0.4377,0.4626,0.4836,0.4964,0.4779,0.4587,0.4608,0.4155,0.3906,0.4437,0.3854,0.3468,0.393,0.3594,0.338,0.3461,0.365,0.3805,0.3886,0.3867,0.3889,0.3889,0.3894,0.3912,0.3892,0.3752,0.3679,0.3619,0.3638,0.363,0.3589,0.3587,0.3587,0.3587,0.3587,0.3587,0.3587,0.3587,0.3587,0.0,0.0,0.0,0.0,0.3587,0.3563,0.3523,0.3504,0.3436,0.3347,0.3328,0.3283,0.318,0.318,0.318,0.318,0.318,0.318,0.318,0.318,0.318,0.3188,0.323,0.3212,0.3189,0.3282,0.3363,0.343,0.323,0.3331,0.3432,0.3432,0.3432,0.3432,0.3432,0.3432,0.3381,0.323,0.318,0.3027,0.2472,0.2371,0.2068,0.126,0.1159,0.1056,0.08,0.03,0.0246,0.0948,0.0756,0.0654,0.0682,0.068,0.0674,0.0616,0.0615,0.0611,0.0559,0.0559,0.0554,0.0504,0.0504,0.0508,0.0559,0.0559,0.0344,0.274,0.2929,0.3067,0.3209,0.3355,0.3608,0.4101,0.4385,0.4584,0.4753,0.4582,0.4337,0.4118,0.3637,0.3416,0.381,0.3446,0.3219,0.3592,0.3456,0.3365,0.3482,0.3692,0.3841,0.3879,0.3903,0.3917,0.3917,0.3839,0.3851,0.3851,0.3698,0.3627,0.3589,0.3624,0.3625,0.3589,0.3587,0.3587,0.3587,0.3587,0.3587,0.3587,0.3587,0.3587,0.0,0.0,0.0,0.0,0.3563,0.353,0.3492,0.3447,0.3386,0.3319,0.3296,0.3212,0.318,0.318,0.318,0.318,0.318,0.318,0.318,0.318,0.318,0.3192,0.3304,0.3278,0.3193,0.3305,0.3224,0.318,0.318,0.318,0.318,0.318,0.318,0.318,0.318,0.318,0.3079,0.2775,0.2725,0.2472,0.1664,0.1563,0.1261,0.0454,0.0353,0.0252,-0.005,-0.0555,-0.07,-0.0244,-0.0242,-0.0191,-0.0141,-0.014,-0.0139,-0.0136,-0.0136,-0.0135,-0.0176,-0.0176,-0.0175,-0.0215,-0.0215,-0.0217,-0.0176,-0.0176,-0.0352,0.0,0.2662,0.2974,0.3503,0.3444,0.3468,0.4388,0.4447,0.0,0.4345,0.4345,0.4064,0.3361,0.3228,0.3178,0.2872,0.2985,0.3098,0.3102,0.3221,0.3382,0.3491,0.3669,0.3777,0.3823,0.3881,0.3919,0.3914,0.3745,0.3679,0.3679,0.362,0.3587,0.3587,0.3587,0.3587,0.3587,0.3587,0.3587,0.3587,0.3587,0.3587,0.3587,0.3587,0.3587,0.0,0.0,0.0,0.0,0.3519,0.3492,0.3473,0.3369,0.3323,0.3308,0.3201,0.318,0.318,0.318,0.318,0.318,0.318,0.318,0.318,0.318,0.318,0.3192,0.3304,0.323,0.3199,0.3307,0.3279,0.3185,0.3181,0.318,0.318,0.318,0.318,0.318,0.313,0.313,0.2876,0.2068,0.1916,0.1664,0.0857,0.0706,0.0403,-0.0404,-0.0505,-0.0758,-0.1516,-0.1617,-0.1617,-0.1617,-0.1591,-0.1562,-0.1531,-0.1529,-0.1515,-0.1485,-0.1482,-0.1468,-0.1394,-0.1391,-0.1436,-0.1436,-0.1436,-0.148,-0.1524,-0.1524,-0.1524,0.226,0.0,0.2565,0.2684,0.2698,0.283,0.0,0.3441,0.3491,0.388,0.3647,0.3376,0.3309,0.3056,0.2869,0.2938,0.3037,0.3113,0.3112,0.3353,0.3536,0.3563,0.3768,0.3853,0.3713,0.3856,0.3901,0.3854,0.3721,0.3679,0.3679,0.362,0.3587,0.3587,0.3587,0.3587,0.3587,0.3587,0.3587,0.3587,0.3587,0.3587,0.3587,0.3587,0.3587,0.0,0.0,0.0,0.3516,0.3501,0.3443,0.3364,0.3384,0.3334,0.3199,0.3185,0.318,0.318,0.318,0.318,0.318,0.318,0.318,0.318,0.318,0.318,0.3192,0.3304,0.3311,0.3304,0.3318,0.3311,0.3289,0.3191,0.318,0.318,0.318,0.318,0.3027,0.2422,0.2269,0.2017,0.121,0.1058,0.0807,0.0,-0.0101,-0.0404,-0.1212,-0.1314,-0.1415,-0.1566,-0.1617,-0.1617,-0.1617,-0.161,-0.1593,-0.1563,-0.1561,-0.1547,-0.1517,-0.1493,-0.1477,-0.147,-0.1447,-0.1615,-0.2019,-0.2019,-0.2198,-0.2553,-0.2553,-0.2553,0.2203,0.233,0.2462,0.2462,0.2507,0.2631,0.3069,0.3125,0.318,0.3413,0.3295,0.3056,0.3002,0.284,0.2743,0.294,0.3039,0.3138,0.3207,0.3387,0.3538,0.362,0.377,0.3839,0.3768,0.3855,0.3852,0.3732,0.3672,0.3636,0.3636,0.3605,0.3587,0.3587,0.3587,0.3587,0.3587,0.3587,0.3587,0.3587,0.3587,0.3587,0.3587,0.3559,0.3545,0.0,0.0,0.0,0.3455,0.3428,0.3379,0.3322,0.3327,0.3289,0.318,0.318,0.318,0.318,0.318,0.318,0.318,0.318,0.318,0.318,0.318,0.318,0.3192,0.3304,0.3322,0.3327,0.3356,0.3342,0.3209,0.2766,0.269,0.2573,0.2169,0.2118,0.1967,0.1513,0.1462,0.121,0.0404,0.0252,0.0,-0.0808,-0.1161,-0.1463,-0.1918,-0.2171,-0.2323,-0.2323,-0.2323,-0.2323,-0.2323,-0.2323,-0.2212,-0.199,-0.1988,-0.2071,-0.2273,-0.2296,-0.2272,-0.2252,-0.218,-0.2306,-0.263,-0.263,-0.2722,-0.2997,-0.2997,-0.2997,0.221,0.2342,0.2506,0.2488,0.2544,0.2682,0.3044,0.3081,0.3043,0.3054,0.3056,0.2961,0.2713,0.2685,0.2759,0.2926,0.3047,0.3192,0.3335,0.3414,0.3506,0.3647,0.3734,0.3848,0.3863,0.3834,0.373,0.3669,0.3617,0.3587,0.3587,0.3587,0.3587,0.3587,0.3587,0.3583,0.3574,0.3582,0.3587,0.3587,0.3587,0.3587,0.3585,0.3534,0.3506,0.3493,0.0,0.0,0.3394,0.3342,0.3316,0.3304,0.3209,0.3188,0.318,0.318,0.318,0.318,0.318,0.318,0.318,0.318,0.313,0.3027,0.3027,0.2927,0.2835,0.2881,0.3107,0.3279,0.3056,0.3044,0.2913,0.2119,0.184,0.1619,0.0958,0.0806,0.0756,0.0655,0.0605,0.0353,-0.0454,-0.0656,-0.0959,-0.1616,-0.217,-0.2522,-0.2522,-0.2927,-0.318,-0.318,-0.318,-0.318,-0.318,-0.318,-0.3029,-0.2674,-0.2573,-0.2702,-0.3192,-0.3189,-0.316,-0.3098,-0.3097,-0.3144,-0.3238,-0.3238,-0.3239,-0.3334,-0.3334,-0.3334,0.2279,0.2407,0.2486,0.235,0.2482,0.2601,0.2682,0.2675,0.2683,0.2737,0.2748,0.2783,0.2855,0.2884,0.2929,0.305,0.3124,0.3283,0.3514,0.36,0.3628,0.3604,0.3747,0.3827,0.3571,0.3636,0.3668,0.3606,0.3593,0.3587,0.3587,0.3587,0.3587,0.3587,0.3587,0.3563,0.3511,0.3561,0.3587,0.3587,0.3587,0.3587,0.3587,0.3578,0.3545,0.3493,0.0,0.3383,0.3335,0.3326,0.3292,0.3197,0.329,0.3224,0.318,0.318,0.318,0.318,0.318,0.318,0.318,0.318,0.2725,0.2169,0.2169,0.1714,0.116,0.1163,0.2202,0.3001,0.1582,0.1714,0.2053,0.1224,0.0971,0.0925,0.0809,0.0806,0.0605,-0.0101,-0.0202,-0.0454,-0.1263,-0.1817,-0.2119,-0.227,-0.2725,-0.3079,-0.3079,-0.313,-0.318,-0.318,-0.318,-0.318,-0.318,-0.318,-0.3381,-0.3731,-0.333,-0.3103,-0.3192,-0.3189,-0.316,-0.3098,-0.3097,-0.3333,-0.376,-0.376,-0.4,-0.4381,-0.4381,-0.4381,0.2222,0.2346,0.2403,0.232,0.2519,0.2691,0.2658,0.265,0.2658,0.2687,0.2692,0.2729,0.2896,0.292,0.2935,0.3117,0.3275,0.3413,0.3523,0.3591,0.3631,0.3635,0.371,0.3718,0.3605,0.3646,0.3653,0.3593,0.3587,0.3587,0.3587,0.3587,0.3572,0.354,0.3538,0.3511,0.3451,0.351,0.3538,0.3538,0.3571,0.3587,0.3585,0.3522,0.3477,0.3446,0.0,0.3298,0.3221,0.3221,0.3205,0.3183,0.3211,0.3204,0.318,0.318,0.318,0.318,0.318,0.2927,0.2573,0.2573,0.2017,0.1361,0.1361,0.1109,0.0706,0.0252,0.1023,0.1811,0.1077,0.114,0.1254,0.0411,0.0153,0.0051,-0.0404,-0.0706,-0.1059,-0.1413,-0.1716,-0.2019,-0.2424,-0.2675,-0.2826,-0.2826,-0.3279,-0.3632,-0.3632,-0.3882,-0.4083,-0.4083,-0.4083,-0.4083,-0.4083,-0.4083,-0.4033,-0.3982,-0.4033,-0.4067,-0.4081,-0.4079,-0.4063,-0.4027,-0.4027,-0.4125,-0.4368,-0.4368,-0.4516,-0.4714,-0.4714,-0.4714,0.2265,0.2337,0.2397,0.2367,0.2571,0.2736,0.2718,0.2713,0.2725,0.2767,0.2775,0.28,0.2924,0.2917,0.3006,0.3217,0.339,0.3506,0.3536,0.3579,0.3625,0.3673,0.3679,0.3673,0.3658,0.3657,0.3638,0.3478,0.3475,0.3469,0.3344,0.3344,0.3317,0.3315,0.3313,0.3287,0.3285,0.3286,0.3367,0.3477,0.3538,0.3559,0.3544,0.3454,0.3405,0.3386,0.3292,0.3193,0.313,0.313,0.3079,0.3027,0.3079,0.313,0.3079,0.3029,0.2876,0.2623,0.2623,0.2067,0.136,0.136,0.0806,0.0151,0.0151,0.0,-0.0252,-0.0858,-0.0561,0.0,0.0257,0.0362,0.0207,-0.0618,-0.092,-0.127,-0.188,-0.2329,-0.2576,-0.2638,-0.2935,-0.318,-0.318,-0.3281,-0.3381,-0.3381,-0.3833,-0.4183,-0.4183,-0.4533,-0.4784,-0.4784,-0.4784,-0.4784,-0.4784,-0.4784,-0.4634,-0.4234,-0.4583,-0.4784,-0.4784,-0.4784,-0.4784,-0.4784,-0.4784,-0.4784,-0.4784,-0.4784,-0.4784,-0.4784,-0.4784,-0.4784,0.2455,0.2495,0.2516,0.257,0.2598,0.2643,0.2752,0.2777,0.2868,0.3036,0.307,0.3055,0.3007,0.3045,0.3114,0.3293,0.3417,0.3536,0.365,0.3669,0.3673,0.3677,0.3679,0.3655,0.36,0.3594,0.3479,0.3138,0.3137,0.3006,0.2687,0.2685,0.2664,0.267,0.2669,0.2753,0.2912,0.2752,0.2937,0.342,0.3476,0.3476,0.3425,0.3417,0.3382,0.3327,0.3319,0.3128,0.2826,0.2826,0.2674,0.2472,0.2725,0.2826,0.2775,0.2573,0.1815,0.0958,0.0958,0.0302,-0.0604,-0.0604,-0.1157,-0.1812,-0.1812,-0.2318,-0.2927,-0.2978,-0.293,-0.268,-0.167,-0.128,-0.1342,-0.2081,-0.2659,-0.3102,-0.3256,-0.3216,-0.3195,-0.3298,-0.3266,-0.318,-0.318,-0.3632,-0.3932,-0.3932,-0.4383,-0.4734,-0.4734,-0.4784,-0.4784,-0.4784,-0.4784,-0.4784,-0.4784,-0.4784,-0.4784,-0.4734,-0.4784,-0.4784,-0.4784,-0.4784,-0.4784,-0.4784,-0.4784,-0.4784,-0.4784,-0.4784,-0.4784,-0.4784,-0.4784,-0.4784,0.2342,0.2455,0.2516,0.254,0.2602,0.268,0.2764,0.2914,0.3003,0.3033,0.3083,0.3143,0.3082,0.317,0.3216,0.3313,0.3451,0.3582,0.3666,0.3711,0.3721,0.3683,0.3679,0.3597,0.3311,0.3277,0.3147,0.2815,0.2788,0.2709,0.2584,0.2583,0.2563,0.2517,0.2516,0.2545,0.2601,0.2545,0.2605,0.2784,0.2865,0.3002,0.3144,0.295,0.2819,0.28,0.2768,0.2692,0.2573,0.2573,0.2472,0.2422,0.2522,0.2169,0.1563,0.1462,0.0705,-0.0201,-0.0201,-0.0805,-0.156,-0.156,-0.2115,-0.2723,-0.2723,-0.2976,-0.318,-0.318,-0.318,-0.313,-0.2676,-0.2536,-0.2551,-0.292,-0.3196,-0.3378,-0.3469,-0.367,-0.3923,-0.3949,-0.4155,-0.4307,-0.4307,-0.4418,-0.4483,-0.4483,-0.4731,-0.49,-0.4792,-0.4883,-0.4898,-0.479,-0.4784,-0.4784,-0.4784,-0.4784,-0.4784,-0.4784,-0.4784,-0.4784,-0.4784,-0.4784,-0.4784,-0.4784,-0.4784,-0.4885,-0.5037,-0.5037,-0.5138,-0.5286,-0.5286,-0.5286,0.2342,0.2411,0.2515,0.2534,0.2631,0.2743,0.2864,0.2993,0.3102,0.3117,0.3142,0.3145,0.3122,0.3187,0.3298,0.3319,0.3471,0.3602,0.3644,0.3669,0.3668,0.3514,0.3493,0.3353,0.2983,0.2949,0.2821,0.2495,0.2468,0.2445,0.0,0.2326,0.2306,0.2213,0.2212,0.2249,0.2271,0.2249,0.23,0.2422,0.233,0.2463,0.2829,0.2585,0.2468,0.2467,0.2435,0.2371,0.2271,0.2271,0.2271,0.2221,0.1816,0.126,0.0605,0.0202,-0.0655,-0.156,-0.156,-0.2163,-0.2868,-0.2868,-0.3274,-0.3682,-0.3682,-0.3682,-0.3682,-0.3682,-0.3682,-0.3737,-0.3761,-0.3598,-0.3503,-0.3638,-0.3797,-0.3909,-0.4005,-0.4328,-0.4534,-0.4559,-0.4814,-0.5014,-0.5014,-0.4963,-0.4869,-0.4869,-0.4975,-0.4992,-0.4928,-0.4951,-0.4937,-0.4794,-0.4784,-0.4784,-0.4784,-0.4885,-0.4937,-0.4937,-0.4985,-0.4985,-0.4784,-0.4885,-0.4937,-0.4937,-0.4985,-0.5135,-0.5338,-0.5338,-0.5436,-0.5586,-0.5586,-0.5586,0.2511,0.2511,0.2526,0.2589,0.2695,0.2815,0.2979,0.3055,0.3151,0.3285,0.3176,0.311,0.3171,0.3181,0.3201,0.3312,0.347,0.3586,0.3586,0.3534,0.3387,0.3118,0.3017,0.2878,0.2611,0.2611,0.2503,0.2237,0.2183,0.2062,0.0,0.1714,0.1648,0.1618,0.1617,0.1718,0.1971,0.1718,0.1869,0.2371,0.1869,0.1869,0.2422,0.2371,0.2371,0.2371,0.2371,0.2221,0.1971,0.1971,0.1971,0.1869,0.0504,0.0151,0.0202,-0.1109,-0.2318,-0.3224,-0.3224,-0.3929,-0.4784,-0.4784,-0.4784,-0.4784,-0.4784,-0.4784,-0.4784,-0.4784,-0.4784,-0.4855,-0.4949,-0.4498,-0.4072,-0.4279,-0.4674,-0.5024,-0.5152,-0.5173,-0.5137,-0.5174,-0.5171,-0.511,-0.511,-0.5108,-0.5108,-0.5108,-0.511,-0.511,-0.511,-0.5028,-0.4937,-0.4845,-0.4784,-0.4784,-0.4784,-0.5037,-0.519,-0.519,-0.5438,-0.5386,-0.4834,-0.5037,-0.519,-0.519,-0.5486,-0.5586,-0.5586,-0.5586,-0.5586,-0.5636,-0.5636,-0.5636,0.2499,0.2542,0.26,0.2703,0.2789,0.2901,0.3104,0.3164,0.3228,0.3407,0.335,0.3286,0.3347,0.3358,0.3259,0.3118,0.3322,0.3425,0.3246,0.3203,0.3114,0.3062,0.2834,0.2611,0.2344,0.2265,0.2144,0.1884,0.181,0.0,0.0,0.163,0.1626,0.1617,0.1617,0.1617,0.1718,0.1617,0.1667,0.1818,0.1667,0.1768,0.2121,0.1919,0.1818,0.1818,0.1818,0.1768,0.1667,0.0908,0.0605,0.0454,-0.0655,-0.1562,-0.2165,-0.2569,-0.3425,-0.4331,-0.4331,-0.4533,-0.4784,-0.4784,-0.4784,-0.4784,-0.4784,-0.4784,-0.4784,-0.4784,-0.4784,-0.4821,-0.5026,-0.5054,-0.4979,-0.4947,-0.5022,-0.5196,-0.5314,-0.5482,-0.5579,-0.5607,-0.5702,-0.5798,-0.5798,-0.5739,-0.5744,-0.5744,-0.5752,-0.5798,-0.5798,-0.5645,-0.5527,-0.5495,-0.5429,-0.5386,-0.5386,-0.5436,-0.5486,-0.5486,-0.5536,-0.5536,-0.5386,-0.5436,-0.5486,-0.5486,-0.5536,-0.5687,-0.5889,-0.5889,-0.6387,-0.7276,-0.7276,-0.7673,0.25,0.2555,0.2631,0.2752,0.2891,0.2965,0.3181,0.3285,0.3373,0.3506,0.3439,0.3317,0.3245,0.3234,0.3111,0.2847,0.297,0.305,0.2919,0.2826,0.2742,0.2636,0.2463,0.2245,0.1983,0.1911,0.1848,0.1695,0.0,0.0,0.0,0.1605,0.1605,0.1616,0.1617,0.1617,0.1617,0.1617,0.1617,0.1617,0.1605,0.1699,0.185,0.1662,0.161,0.1598,0.1598,0.1348,0.0899,0.0251,-0.0252,-0.0756,-0.1814,-0.262,-0.3274,-0.3676,-0.423,-0.4784,-0.4784,-0.4784,-0.4784,-0.4784,-0.4784,-0.4784,-0.4784,-0.4885,-0.4937,-0.4937,-0.5035,-0.5179,-0.5376,-0.5542,-0.56,-0.5471,-0.5488,-0.5597,-0.575,-0.5882,-0.5991,-0.5991,-0.6111,-0.6179,-0.6179,-0.6124,-0.6136,-0.6136,-0.6136,-0.6148,-0.6063,-0.5939,-0.5827,-0.5741,-0.5624,-0.5784,-0.6182,-0.6331,-0.6581,-0.7024,-0.7123,-0.7176,-0.7176,-0.6681,-0.6384,-0.6384,-0.6927,-0.7276,-0.7431,-0.7431,-0.7826,-0.8616,-0.8616,-0.8966,0.2511,0.2555,0.2632,0.2759,0.2938,0.3083,0.3202,0.3315,0.3504,0.356,0.3491,0.3313,0.3046,0.2952,0.2762,0.2496,0.2527,0.2604,0.2551,0.2513,0.238,0.2121,0.2041,0.1869,0.1617,0.1617,0.1615,0.1613,0.0,0.0,0.0,0.1585,0.1583,0.1608,0.1609,0.1609,0.1609,0.1609,0.1609,0.1608,0.1581,0.1567,0.1568,0.1596,0.1544,0.1469,0.1469,0.088,-0.0147,-0.0249,-0.0852,-0.1856,-0.2912,-0.3316,-0.3468,-0.4429,-0.4834,-0.4834,-0.4834,-0.4834,-0.4885,-0.4885,-0.4885,-0.4885,-0.4885,-0.5037,-0.524,-0.524,-0.5388,-0.5684,-0.5953,-0.6001,-0.5993,-0.5872,-0.5969,-0.6155,-0.6253,-0.6323,-0.6374,-0.6492,-0.6487,-0.6538,-0.6659,-0.6707,-0.6642,-0.6631,-0.6647,-0.6638,-0.6419,-0.6384,-0.6294,-0.6035,-0.5994,-0.6384,-0.7388,-0.7633,-0.8226,-0.9221,-0.9464,-0.9612,-0.9632,-0.8428,-0.7786,-0.7796,-0.9034,-0.964,-0.9657,-0.964,-0.969,-0.9805,-0.9789,-0.9838,0.2511,0.2555,0.2642,0.2812,0.305,0.3253,0.3293,0.321,0.3165,0.3393,0.3305,0.3156,0.3102,0.2874,0.2585,0.2283,0.2416,0.2452,0.2243,0.2158,0.2084,0.2033,0.1823,0.1667,0.1617,0.1617,0.1607,0.0,0.0,0.0,0.1548,0.1562,0.1564,0.1546,0.1545,0.1545,0.1545,0.1545,0.1545,0.0,0.1539,0.1536,0.1536,0.1543,0.1108,0.0432,0.0432,-0.0144,-0.1101,-0.1971,-0.2502,-0.2797,-0.3922,-0.439,-0.4398,-0.471,-0.4937,-0.514,-0.514,-0.5238,-0.5434,-0.5434,-0.5434,-0.5434,-0.5434,-0.5486,-0.5536,-0.5536,-0.5536,-0.5684,-0.5953,-0.6053,-0.62,-0.631,-0.6303,-0.6246,-0.627,-0.6371,-0.6767,-0.7849,-0.8114,-0.8509,-0.9552,-0.9581,-0.9398,-0.9213,-0.9518,-0.9668,-0.9419,-0.9279,-0.9172,-0.915,-0.8916,-0.8912,-0.9342,-0.9237,-0.9367,-0.9803,-0.9681,-0.9718,-0.9907,-0.9432,-0.9271,-0.9458,-0.976,-0.9985,-1.0133,-0.9985,-1.0441,-1.1406,-1.1199,-1.1762,0.2503,0.2576,0.2695,0.2951,0.3097,0.3191,0.3066,0.2992,0.2915,0.2942,0.2936,0.2803,0.2671,0.2454,0.228,0.198,0.201,0.1998,0.1895,0.183,0.1819,0.1819,0.1667,0.1617,0.1617,0.1604,0.1589,0.0,0.0,0.1544,0.1479,0.1528,0.1528,0.1478,0.1478,0.1478,0.1478,0.1478,0.1478,0.1478,0.1511,0.1262,0.0788,0.0795,0.0517,0.0047,-0.0423,-0.1173,-0.2159,-0.2748,-0.3281,-0.381,-0.443,-0.4766,-0.4905,-0.4952,-0.5146,-0.5388,-0.5388,-0.5486,-0.5586,-0.5586,-0.5586,-0.5586,-0.5586,-0.5687,-0.5789,-0.5789,-0.5887,-0.6025,-0.6251,-0.6717,-0.7179,-0.7375,-0.737,-0.7311,-0.7311,-0.784,-0.8501,-0.9226,-0.9508,-0.9856,-1.0601,-1.0595,-1.0419,-1.0188,-1.0443,-1.0578,-1.0261,-1.027,-1.0286,-1.02,-1.0028,-1.0205,-1.0859,-1.0775,-1.0964,-1.1638,-1.1543,-1.1579,-1.1882,-1.1731,-1.1423,-1.0919,-1.1383,-1.175,-1.1808,-1.1843,-1.22,-1.2879,-1.2867,-1.3284,0.2493,0.26,0.2747,0.3023,0.3031,0.2992,0.285,0.2718,0.2633,0.246,0.2456,0.2429,0.2132,0.2074,0.1959,0.1672,0.1617,0.1617,0.1617,0.1617,0.1615,0.1609,0.1613,0.1613,0.1602,0.1583,0.1616,0.0,0.0,0.1495,0.1463,0.1491,0.149,0.1463,0.1463,0.1463,0.1463,0.1463,0.1463,0.1463,0.1299,0.0729,-0.0269,-0.0456,-0.0552,-0.0552,-0.1332,-0.2251,-0.3221,-0.3227,-0.3767,-0.4622,-0.4653,-0.4855,-0.5121,-0.5154,-0.5414,-0.5687,-0.5687,-0.5687,-0.5734,-0.5734,-0.5734,-0.5734,-0.5734,-0.5887,-0.6092,-0.6092,-0.6337,-0.6715,-0.6842,-0.7671,-0.8554,-0.8609,-0.8834,-0.8979,-0.8724,-0.9501,-1.0274,-1.0518,-1.0936,-1.1213,-1.1183,-1.1235,-1.1188,-1.0828,-1.1061,-1.1149,-1.0801,-1.0944,-1.1036,-1.0937,-1.0893,-1.1252,-1.2161,-1.2189,-1.255,-1.3483,-1.3553,-1.3691,-1.398,-1.4037,-1.3534,-1.2479,-1.3292,-1.3716,-1.3754,-1.3962,-1.4059,-1.4099,-1.4265,-1.4424,0.2493,0.26,0.2737,0.2969,0.2827,0.2691,0.2794,0.2445,0.2114,0.2084,0.2135,0.2132,0.2126,0.1921,0.1703,0.1622,0.1617,0.1617,0.1617,0.1617,0.1607,0.1581,0.16,0.1596,0.1495,0.1558,0.0,0.0,0.151,0.1452,0.1405,0.1468,0.147,0.1403,0.1402,0.1402,0.1402,0.1402,0.1402,0.1402,0.0586,-0.0314,-0.1253,-0.2287,-0.2695,-0.2519,-0.2654,-0.3238,-0.4139,-0.4148,-0.4336,-0.4716,-0.4882,-0.5097,-0.5274,-0.545,-0.5727,-0.5942,-0.5942,-0.6089,-0.6284,-0.6284,-0.6284,-0.6284,-0.6284,-0.6337,-0.6337,-0.6337,-0.703,-0.7809,-0.7957,-0.8855,-0.9735,-0.9618,-1.0588,-1.12,-1.0067,-0.9832,-1.0203,-1.1295,-1.2546,-1.3325,-1.3184,-1.3482,-1.3481,-1.2836,-1.3289,-1.3654,-1.333,-1.332,-1.3325,-1.3351,-1.3174,-1.3189,-1.354,-1.3381,-1.3406,-1.376,-1.3835,-1.3968,-1.4247,-1.4462,-1.4616,-1.4607,-1.4575,-1.4628,-1.4778,-1.4674,-1.468,-1.4826,-1.4721,-1.4902,0.2527,0.2601,0.2677,0.2868,0.2723,0.2548,0.2459,0.2172,0.191,0.1817,0.1776,0.1794,0.1833,0.1738,0.1633,0.1619,0.1617,0.1611,0.1594,0.1592,0.158,0.155,0.1558,0.1555,0.148,0.1523,0.0,0.0,0.1477,0.1418,0.1392,0.1448,0.1449,0.1391,0.1391,0.1391,0.1391,0.1391,0.1121,0.0583,-0.0896,-0.188,-0.2459,-0.3534,-0.3671,-0.3087,-0.3803,-0.4295,-0.4699,-0.4699,-0.4743,-0.4895,-0.5041,-0.5275,-0.5534,-0.5689,-0.5983,-0.6239,-0.6239,-0.6287,-0.6387,-0.6387,-0.6387,-0.6537,-0.7132,-0.7279,-0.7428,-0.8024,-0.8665,-0.9126,-0.9203,-1.0156,-1.1096,-1.1041,-1.1982,-1.2656,-1.2109,-1.2024,-1.235,-1.3174,-1.3802,-1.4256,-1.4342,-1.4526,-1.4515,-1.4047,-1.4376,-1.4582,-1.4337,-1.4414,-1.4445,-1.4445,-1.4403,-1.4387,-1.4439,-1.4403,-1.4387,-1.4492,-1.4498,-1.465,-1.4934,-1.5099,-1.5252,-1.5517,-1.5092,-1.4933,-1.4987,-1.5098,-1.521,-1.5256,-1.5352,-1.5836,0.2501,0.2505,0.2505,0.2623,0.2477,0.2265,0.2132,0.1952,0.1756,0.1582,0.1531,0.1492,0.1585,0.16,0.1605,0.1605,0.1605,0.1595,0.1564,0.156,0.1549,0.1518,0.1521,0.1473,0.1457,0.1489,0.0,0.0,0.1448,0.1391,0.1391,0.1391,0.1391,0.1391,0.1391,0.1297,0.1068,0.0845,0.0222,-0.0711,-0.2233,-0.3178,-0.3623,-0.4478,-0.4476,-0.3801,-0.465,-0.501,-0.501,-0.501,-0.5072,-0.5153,-0.5259,-0.5553,-0.5854,-0.5968,-0.6163,-0.6387,-0.6387,-0.6387,-0.6437,-0.6783,-0.693,-0.7129,-0.8266,-0.8609,-0.8757,-0.96,-1.0141,-1.0489,-1.0489,-1.1468,-1.2446,-1.2398,-1.3039,-1.3696,-1.3619,-1.3779,-1.4059,-1.4521,-1.4618,-1.4674,-1.4915,-1.4995,-1.4902,-1.4716,-1.4881,-1.4973,-1.479,-1.4927,-1.4987,-1.4987,-1.4987,-1.4987,-1.4987,-1.4987,-1.4987,-1.4987,-1.5095,-1.5261,-1.5482,-1.585,-1.6111,-1.6311,-1.6146,-1.5773,-1.525,-1.5791,-1.601,-1.6064,-1.6524,-1.7199,0.2324,0.2242,0.2155,0.2299,0.2033,0.1739,0.1822,0.1666,0.1522,0.1448,0.144,0.1479,0.1482,0.1554,0.1623,0.1623,0.1623,0.1563,0.1533,0.1528,0.1517,0.1487,0.1508,0.1456,0.1401,0.1465,0.0,0.0,0.1391,0.1391,0.1391,0.1391,0.1391,0.1391,0.1391,0.1021,0.0174,-0.0696,-0.1653,-0.2564,-0.2968,-0.3669,-0.4661,-0.5149,-0.5327,-0.5282,-0.5099,-0.501,-0.501,-0.501,-0.5207,-0.5591,-0.5649,-0.5907,-0.6274,-0.6336,-0.6381,-0.6387,-0.6387,-0.6387,-0.6634,-0.7869,-0.8315,-0.8559,-0.9878,-1.0271,-1.0271,-1.032,-1.1112,-1.1907,-1.1907,-1.284,-1.3738,-1.3491,-1.3871,-1.4177,-1.3935,-1.3899,-1.4065,-1.4573,-1.4676,-1.4681,-1.4693,-1.4887,-1.4902,-1.4716,-1.4881,-1.4982,-1.4965,-1.4976,-1.4987,-1.4987,-1.4987,-1.4987,-1.4987,-1.4987,-1.4987,-1.4987,-1.5315,-1.5482,-1.5482,-1.6796,-1.7477,-1.7529,-1.8506,-1.7923,-1.5838,-1.6948,-1.7477,-1.7529,-1.8558,-1.9072,0.2295,0.2303,0.228,0.2205,0.2001,0.1814,0.1705,0.1537,0.1397,0.1405,0.1423,0.1451,0.149,0.1522,0.1543,0.1543,0.1543,0.1532,0.1501,0.1497,0.1485,0.1455,0.1415,0.1414,0.1393,0.1427,0.0,0.0,0.0,0.1143,0.0615,0.0356,0.0089,-0.0308,-0.0483,-0.0694,-0.0934,-0.1869,-0.2547,-0.3012,-0.3862,-0.4518,-0.5046,-0.5294,-0.5463,-0.5597,-0.5508,-0.5463,-0.5463,-0.5463,-0.5573,-0.5826,-0.5897,-0.6112,-0.6331,-0.6393,-0.6387,-0.6537,-0.7375,-0.7673,-0.7918,-0.9243,-0.9686,-0.9882,-1.1063,-1.1409,-1.1556,-1.2198,-1.2791,-1.3238,-1.3238,-1.3678,-1.4159,-1.4234,-1.4423,-1.4635,-1.4865,-1.4779,-1.4767,-1.5122,-1.5192,-1.5292,-1.5464,-1.5512,-1.5541,-1.55,-1.5512,-1.5571,-1.5571,-1.5571,-1.5571,-1.5571,-1.5571,-1.5571,-1.5571,-1.5571,-1.5571,-1.5571,-1.658,-1.7152,-1.7152,-1.8616,-1.9374,-1.9374,-1.9531,-1.9058,-1.8028,-1.8454,-1.861,-1.8662,-1.902,-1.9687,0.2293,0.2266,0.2157,0.2046,0.1835,0.1648,0.1528,0.1393,0.1296,0.1356,0.1369,0.1388,0.1429,0.1453,0.143,0.1506,0.151,0.1497,0.1456,0.1451,0.1439,0.1366,0.1362,0.1362,0.1362,0.1344,0.0,0.0,0.0,0.0,-0.0434,-0.0654,-0.1001,-0.146,-0.1916,-0.2147,-0.2032,-0.2985,-0.3483,-0.3647,-0.4531,-0.5031,-0.5203,-0.5409,-0.5552,-0.5688,-0.5688,-0.5688,-0.5691,-0.5729,-0.5858,-0.5975,-0.61,-0.627,-0.6533,-0.6901,-0.7129,-0.7375,-0.8658,-0.9049,-0.9296,-1.0618,-1.1058,-1.1253,-1.2436,-1.278,-1.2931,-1.3576,-1.3877,-1.4022,-1.4022,-1.4226,-1.4509,-1.4781,-1.4914,-1.5077,-1.553,-1.5412,-1.5318,-1.5578,-1.5626,-1.5686,-1.5861,-1.5891,-1.5891,-1.5891,-1.5891,-1.5891,-1.5891,-1.5891,-1.5891,-1.5891,-1.5891,-1.5891,-1.5891,-1.6339,-1.6656,-1.6656,-1.8037,-1.8848,-1.8848,-2.0293,-2.1117,-2.1117,-2.1315,-2.1291,-2.1018,-2.0266,-1.9893,-1.9893,-2.0408,-2.1183,0.0,0.0,0.0,0.1781,0.1544,0.1296,0.1296,0.132,0.1301,0.1301,0.1284,0.1304,0.1304,0.1305,0.1333,0.1463,0.1477,0.1456,0.1397,0.1388,0.1378,0.1309,0.1305,0.1305,0.1305,0.1305,0.0,0.0,0.0126,-0.0381,-0.1598,-0.161,-0.1675,-0.1884,-0.2707,-0.3162,-0.316,-0.4051,-0.4499,-0.4546,-0.5004,-0.5198,-0.5206,-0.5543,-0.5688,-0.5688,-0.5688,-0.5688,-0.5696,-0.5855,-0.5977,-0.615,-0.627,-0.6536,-0.6992,-0.8021,-0.8609,-0.9,-1.0075,-1.0467,-1.0663,-1.194,-1.2339,-1.2581,-1.3908,-1.4298,-1.4298,-1.4298,-1.4298,-1.4298,-1.431,-1.4509,-1.4781,-1.5052,-1.5312,-1.5609,-1.5933,-1.5771,-1.5636,-1.5896,-1.5945,-1.5945,-1.5945,-1.5945,-1.5945,-1.5945,-1.5945,-1.5945,-1.5992,-1.5998,-1.6004,-1.6004,-1.6064,-1.6016,-1.6016,-1.7313,-1.8165,-1.8171,-1.9646,-2.0481,-2.0481,-2.1842,-2.2601,-2.2601,-2.3894,-2.4596,-2.4596,-2.2449,-2.1412,-2.1404,-2.2787,-2.3546,0.2083,0.0,0.0,0.0,0.0,0.0,0.1335,0.1303,0.131,0.131,0.1294,0.1315,0.1315,0.1291,0.1313,0.1338,0.1341,0.1336,0.1319,0.1317,0.1314,0.1307,0.1305,0.1305,0.1305,0.0,0.0,0.0,0.0746,0.0247,-0.0827,-0.2095,-0.3193,-0.4012,-0.407,-0.4143,-0.4272,-0.4508,-0.4785,-0.5028,-0.522,-0.5379,-0.5424,-0.5632,-0.5688,-0.5688,-0.5688,-0.5688,-0.5696,-0.5855,-0.6167,-0.6554,-0.6591,-0.7263,-0.8266,-0.8563,-0.9243,-1.0124,-1.1351,-1.1745,-1.1994,-1.3318,-1.3757,-1.3806,-1.4202,-1.4298,-1.4298,-1.4298,-1.4298,-1.4388,-1.4783,-1.4937,-1.5165,-1.5788,-1.6008,-1.6367,-1.7447,-1.7644,-1.7357,-1.6605,-1.6465,-1.6465,-1.6465,-1.6465,-1.6465,-1.6465,-1.6465,-1.6783,-1.7608,-1.7948,-1.8397,-1.8975,-1.9288,-1.9377,-1.9175,-1.9523,-1.9838,-2.0047,-2.1449,-2.2408,-2.2618,-2.4035,-2.4798,-2.4798,-2.4923,-2.4952,-2.4952,-2.4114,-2.3531,-2.3253,-2.353,-2.3755,0.0,0.0,0.1692,0.1577,0.0,0.0,0.1335,0.1296,0.1296,0.1296,0.1261,0.1265,0.1265,0.1239,0.1251,0.1251,0.1302,0.1314,0.1286,0.1288,0.1283,0.1311,0.131,0.131,0.131,0.1213,0.0807,-0.0041,-0.0161,-0.084,-0.2237,-0.3427,-0.4359,-0.4922,-0.48,-0.4728,-0.4818,-0.4818,-0.4954,-0.5186,-0.5353,-0.5434,-0.551,-0.5634,-0.5688,-0.5691,-0.5874,-0.5969,-0.607,-0.6743,-0.7139,-0.7292,-0.7508,-0.8434,-0.9694,-1.0132,-1.0716,-1.1546,-1.2727,-1.3119,-1.327,-1.4052,-1.4298,-1.4298,-1.4298,-1.4394,-1.4496,-1.4496,-1.4624,-1.4917,-1.5338,-1.5887,-1.6483,-1.7046,-1.7509,-1.8112,-1.9007,-1.9258,-1.8998,-1.8224,-1.8073,-1.8073,-1.8073,-1.8073,-1.8115,-1.8291,-1.8202,-1.8377,-1.9232,-1.9512,-1.9833,-2.0317,-2.0719,-2.0924,-2.0769,-2.134,-2.1752,-2.1907,-2.3297,-2.4225,-2.4436,-2.5327,-2.5852,-2.5852,-2.5747,-2.5739,-2.5739,-2.5066,-2.4672,-2.4602,-2.4349,-2.4299,0.0,0.0,0.0,0.0,0.1415,0.0,0.1296,0.1296,0.1295,0.1292,0.123,0.1211,0.1207,0.1209,0.1211,0.1207,0.1274,0.1306,0.1294,0.1298,0.1288,0.13,0.1296,0.1296,0.1296,0.0982,0.0157,-0.1371,-0.1803,-0.2741,-0.4504,-0.487,-0.5039,-0.5021,-0.5018,-0.5018,-0.5018,-0.5018,-0.508,-0.5208,-0.5358,-0.5439,-0.5532,-0.5684,-0.5733,-0.5783,-0.6162,-0.6461,-0.6773,-0.8097,-0.8475,-0.8255,-0.8788,-0.9842,-1.1121,-1.1999,-1.2581,-1.3022,-1.3956,-1.4298,-1.4298,-1.4346,-1.4346,-1.4346,-1.4394,-1.4544,-1.4796,-1.491,-1.5341,-1.5806,-1.6267,-1.7282,-1.8316,-1.8629,-1.942,-2.0187,-2.0538,-2.0641,-2.059,-2.0495,-2.029,-2.0084,-2.0084,-2.0084,-2.0251,-2.0633,-2.035,-2.0318,-2.0897,-2.0944,-2.1012,-2.1104,-2.1515,-2.1712,-2.1719,-2.2953,-2.3758,-2.3813,-2.5029,-2.5743,-2.5798,-2.6017,-2.6181,-2.6181,-2.6473,-2.6591,-2.6591,-2.56,-2.5227,-2.5479,-2.5177,-2.5228,0.0,0.0,0.0,0.0,0.1335,0.0,0.1296,0.1296,0.1289,0.1226,0.1216,0.1204,0.1217,0.1196,0.1204,0.1216,0.126,0.1298,0.1305,0.1305,0.1303,0.1297,0.1296,0.1296,0.1296,0.0471,-0.0274,-0.0744,-0.1801,-0.2856,-0.391,-0.4045,-0.4364,-0.4979,-0.5018,-0.5018,-0.5018,-0.5018,-0.5124,-0.5375,-0.5399,-0.5485,-0.5653,-0.5897,-0.6041,-0.6041,-0.6284,-0.6947,-0.7907,-0.8532,-0.8842,-0.9067,-1.0062,-1.1214,-1.2339,-1.2533,-1.3216,-1.4004,-1.425,-1.4298,-1.4346,-1.4544,-1.464,-1.464,-1.4885,-1.4987,-1.5265,-1.6375,-1.6767,-1.7232,-1.8838,-1.9491,-1.983,-2.0287,-2.057,-2.0979,-2.1903,-2.2106,-2.2367,-2.322,-2.1946,-2.0723,-2.0723,-2.0723,-2.0842,-2.1285,-2.0988,-2.1306,-2.2892,-2.3081,-2.3472,-2.4446,-2.493,-2.5049,-2.483,-2.5119,-2.5336,-2.5555,-2.5854,-2.6127,-2.6418,-2.6473,-2.6473,-2.6473,-2.6582,-2.6591,-2.6591,-2.6087,-2.5839,-2.5883,-2.6374,-2.6611,0.0,0.0,0.0,0.1303,0.0,0.0,0.0,0.1307,0.1292,0.1277,0.1222,0.1202,0.1208,0.1191,0.1202,0.1208,0.1243,0.1234,0.1234,0.1287,0.1291,0.1236,0.1287,0.0,0.0695,0.0,-0.0939,-0.2112,-0.3169,-0.3954,-0.4384,-0.4384,-0.4582,-0.4979,-0.5018,-0.5018,-0.5018,-0.5072,-0.5192,-0.541,-0.5555,-0.5726,-0.5908,-0.6124,-0.6257,-0.6305,-0.708,-0.7824,-0.862,-0.9961,-1.0696,-1.1023,-1.156,-1.2441,-1.3511,-1.3511,-1.3902,-1.449,-1.4346,-1.4496,-1.4688,-1.4688,-1.479,-1.4933,-1.5083,-1.5645,-1.6587,-1.7919,-1.8532,-1.9018,-2.0009,-2.078,-2.1369,-2.1608,-2.2114,-2.2669,-2.3238,-2.3338,-2.3538,-2.4102,-2.3447,-2.286,-2.286,-2.286,-2.3049,-2.3651,-2.3418,-2.3548,-2.4703,-2.4836,-2.5076,-2.5674,-2.6118,-2.63,-2.6136,-2.6136,-2.619,-2.6354,-2.6354,-2.6418,-2.6582,-2.6591,-2.6591,-2.6591,-2.7152,-2.7413,-2.7413,-2.7772,-2.7656,-2.7125,-2.7263,-2.7683,0.0,0.0,0.0,0.0,0.0,0.1301,0.0,0.0,0.0,0.1288,0.1229,0.1202,0.1208,0.1187,0.1193,0.1199,0.0,0.0,0.0,0.1056,0.0,0.0985,0.0847,0.0,-0.0229,-0.081,-0.1946,-0.3871,-0.46,-0.4991,-0.5015,-0.5018,-0.5018,-0.5018,-0.5018,-0.5018,-0.5018,-0.5129,-0.529,-0.5455,-0.5744,-0.5999,-0.6171,-0.6561,-0.6735,-0.683,-0.8106,-0.896,-0.9583,-1.148,-1.2574,-1.3071,-1.3022,-1.3559,-1.4394,-1.4394,-1.4544,-1.4742,-1.4544,-1.4742,-1.5083,-1.4927,-1.5166,-1.556,-1.5851,-1.6826,-1.813,-1.955,-2.0297,-2.0767,-2.1039,-2.1987,-2.2837,-2.2837,-2.3546,-2.4202,-2.4202,-2.4266,-2.4321,-2.4321,-2.4661,-2.4876,-2.4794,-2.4849,-2.5133,-2.5901,-2.5672,-2.5589,-2.6076,-2.6067,-2.6039,-2.6122,-2.6389,-2.6591,-2.6591,-2.6591,-2.6591,-2.6591,-2.6591,-2.6591,-2.6591,-2.6791,-2.6999,-2.7215,-2.8082,-2.8542,-2.8542,-2.944,-2.945,-2.8532,-2.8396,-2.9052,0.0,0.0,0.0,0.0,0.1305,0.0,0.0,0.0,0.1288,0.1223,0.0,0.1202,0.1208,0.0,0.0,0.0,0.0,0.0,0.0376,0.0308,0.0281,0.015,-0.0606,0.0,0.0,-0.2377,-0.3518,-0.4774,-0.4838,-0.4863,-0.5012,-0.5018,-0.5018,-0.5018,-0.5018,-0.5018,-0.5018,-0.5129,-0.5371,-0.5669,-0.5832,-0.6086,-0.6384,-0.7482,-0.8006,-0.8049,-0.9205,-1.0489,-1.1742,-1.2002,-1.3036,-1.4442,-1.4196,-1.4346,-1.464,-1.464,-1.4838,-1.5035,-1.5035,-1.5035,-1.5131,-1.5356,-1.6157,-1.7283,-1.8533,-1.9028,-1.9574,-2.128,-2.1867,-2.2169,-2.3426,-2.3908,-2.4003,-2.4003,-2.4102,-2.4202,-2.4202,-2.4496,-2.4711,-2.4711,-2.5032,-2.5197,-2.484,-2.512,-2.5506,-2.5947,-2.5672,-2.5647,-2.6417,-2.6241,-2.6159,-2.6481,-2.6564,-2.6591,-2.6591,-2.6591,-2.6591,-2.6591,-2.6591,-2.6591,-2.6591,-2.7511,-2.8499,-2.9503,-2.966,-2.9713,-2.9713,-2.9817,-2.9817,-2.9713,-3.0689,-3.1214,0.0,0.0,0.0,0.0,0.0,0.0,0.129,0.0,0.1293,0.0,0.0,0.0,0.0,0.0,0.0,0.0,0.0822,0.0,0.0,0.0,-0.0886,0.0,0.0,0.0,0.0,0.0,0.0,0.0,-0.4825,-0.4849,-0.501,-0.5018,-0.5018,-0.5018,-0.508,-0.5116,-0.5116,-0.5424,-0.5672,-0.5814,-0.6794,-0.7287,-0.7482,-0.8659,-0.9288,-0.9482,-1.0333,-1.1311,-1.2365,-1.2923,-1.3775,-1.4688,-1.4742,-1.4838,-1.4933,-1.4933,-1.5124,-1.5404,-1.5764,-1.6103,-1.648,-1.7171,-1.777,-1.8442,-1.9819,-2.0451,-2.0917,-2.2487,-2.3108,-2.3471,-2.4057,-2.4202,-2.4202,-2.4202,-2.4202,-2.4266,-2.4514,-2.4799,-2.5043,-2.513,-2.5601,-2.5928,-2.5761,-2.5758,-2.5901,-2.6261,-2.6178,-2.6206,-2.6545,-2.6435,-2.6389,-2.6564,-2.6591,-2.6591,-2.6591,-2.7152,-2.7511,-2.7511,-2.8145,-2.8518,-2.8518,-2.8923,-2.9398,-2.9869,-3.0546,-3.0908,-3.0908,-3.1545,-3.1863,-3.1863,-3.1688,-3.1942,0.1402,0.0,0.0,0.0,0.0,0.0,0.0,0.0,0.0,0.0,0.0,0.0,0.0,0.0,0.0,0.0,0.0,0.0104,0.0,-0.1161,0.0,0.0,0.0,0.0,0.0,0.0,0.0,-0.4739,-0.4754,-0.4803,-0.492,-0.4928,-0.4944,-0.5015,-0.5127,-0.5227,-0.527,-0.5678,-0.6101,-0.6487,-0.7668,-0.8352,-0.8703,-0.9792,-1.0436,-1.0731,-1.1455,-1.2243,-1.3046,-1.3753,-1.4359,-1.4927,-1.5124,-1.541,-1.5696,-1.5642,-1.5778,-1.6103,-1.6875,-1.7397,-1.7878,-1.888,-1.9274,-1.9605,-2.1023,-2.1733,-2.2263,-2.3399,-2.3923,-2.4202,-2.4202,-2.4202,-2.4202,-2.4202,-2.4334,-2.455,-2.4854,-2.5298,-2.5694,-2.5733,-2.6281,-2.6764,-2.7074,-2.6648,-2.6386,-2.6754,-2.6745,-2.6691,-2.6691,-2.6646,-2.6691,-2.6999,-2.7053,-2.7152,-2.7476,-2.8242,-2.8648,-2.8648,-2.944,-3.0026,-3.0338,-3.039,-3.0494,-3.0815,-3.1637,-3.2055,-3.2055,-3.2958,-3.3431,-3.3381,-3.2482,-3.2533,0.0,0.0,0.0,0.1397,0.0,0.0,0.0,0.0,0.1293,0.0,0.0,0.0,0.0,0.0,0.0,0.0,0.0,0.0,0.0,0.0,0.0,0.0,0.0,0.0,0.0,0.0,-0.4564,-0.4687,-0.4583,-0.4586,-0.479,-0.4801,-0.4858,-0.5012,-0.5127,-0.531,-0.5474,-0.5762,-0.6573,-0.794,-0.8103,-0.879,-0.9879,-1.0842,-1.1407,-1.1716,-1.2662,-1.3507,-1.4238,-1.4279,-1.4769,-1.5493,-1.5493,-1.6197,-1.7185,-1.6936,-1.699,-1.7372,-1.838,-1.875,-1.8934,-1.9931,-2.0514,-2.1078,-2.2429,-2.3112,-2.3563,-2.4015,-2.4192,-2.4202,-2.4202,-2.4202,-2.4202,-2.4202,-2.4696,-2.5185,-2.5194,-2.5994,-2.6735,-2.6744,-2.7075,-2.7716,-2.8807,-2.7858,-2.7088,-2.7314,-2.7152,-2.6989,-2.6989,-2.6736,-2.6999,-2.8019,-2.8179,-2.8595,-2.9713,-2.9817,-2.9869,-2.9869,-2.9869,-3.039,-3.1524,-3.1534,-3.2055,-3.3181,-3.3231,-3.3231,-3.3231,-3.353,-3.3679,-3.3679,-3.3381,-3.3381,0.0,0.0,-0.0756,0.0,0.0,0.0,0.0,0.0,0.0,0.0,0.0,0.0,0.0,0.0,0.0,0.0,0.0,0.0,0.0,0.0,0.0,0.0,0.0,-0.3934,0.0,0.0,0.0,-0.4558,-0.4605,-0.4698,-0.4787,-0.4874,-0.4936,-0.5015,-0.5329,-0.5559,-0.5644,-0.6823,-0.7661,-0.8143,-0.9591,-1.0448,-1.0842,-1.1794,-1.2467,-1.2913,-1.3232,-1.3837,-1.4586,-1.478,-1.5465,-1.6426,-1.6615,-1.7365,-1.8195,-1.7458,-1.7638,-1.8427,-1.943,-2.0212,-2.0772,-2.1132,-2.149,-2.194,-2.2682,-2.3274,-2.3823,-2.4141,-2.4301,-2.439,-2.4251,-2.4291,-2.439,-2.439,-2.4955,-2.5531,-2.5805,-2.7104,-2.8217,-2.8295,-2.9128,-2.9985,-3.0348,-3.0037,-2.9671,-2.9587,-2.9525,-2.9472,-2.9472,-2.9377,-2.943,-2.9838,-2.9828,-2.9995,-3.0411,-3.1143,-3.1717,-3.2117,-3.2331,-3.2533,-3.2695,-3.2745,-3.3008,-3.353,-3.358,-3.363,-3.3828,-3.3927,-3.3977,-3.3977,-3.3878,-3.3878,-0.1922,-0.2011,0.0,-0.1177,-0.0981,0.0,0.049,0.0,0.0,0.0,0.0,0.0,0.0,0.0,0.0,0.0,0.0,0.0,0.0,-0.3203,0.0,0.0,-0.3878,-0.3925,-0.3956,-0.4191,-0.4374,-0.4443,-0.4555,-0.4676,0.0,0.0,-0.4991,-0.5156,-0.5519,-0.5978,-0.6525,-0.7613,-0.8571,-0.9314,-1.0669,-1.1451,-1.1843,-1.24,-1.3044,-1.3643,-1.3639,-1.4155,-1.5003,-1.5524,-1.6253,-1.7077,-1.7645,-1.8473,-1.9247,-1.8611,-1.898,-1.994,-2.0574,-2.1177,-2.1714,-2.1861,-2.2263,-2.2704,-2.3137,-2.3734,-2.4272,-2.4247,-2.4711,-2.511,-2.483,-2.5227,-2.5752,-2.5947,-2.6517,-2.7162,-2.7641,-2.885,-2.9879,-2.9964,-3.068,-3.1389,-3.1785,-3.1836,-3.1633,-3.1081,-3.0916,-3.0854,-3.0854,-3.0762,-3.0865,-3.1276,-3.1276,-3.1491,-3.1858,-3.2588,-3.3174,-3.358,-3.3729,-3.3779,-3.358,-3.358,-3.3761,-3.4085,-3.391,-3.4009,-3.4334,-3.4245,-3.4211,-3.4211,-3.431,-3.4359]},{"header":{"parameterUnit":"m.s-1","parameterCategory":1,"la1":30.6,"la2":29.2853,"lo1":-89.7004,"lo2":-87.6739,"dx":0.0162,"dy":0.0183,"nx":112,"ny":82,"refTime":"2023-01-31T06:00:00:Z","depth":0,"parameterNumber":3,"parameterNumberName":"V-component_of_WINDS"},"data":[0.0,0.0,0.0,0.0,0.0,0.0,0.0,0.0,0.0,0.0,0.0,0.0,0.0,0.0,0.0,0.0,0.0,0.0,0.0,0.0,0.0,0.0,0.0,0.0,0.0,0.0,0.0,0.0,0.0,0.0,0.0,0.0,0.0,0.0,0.0,0.0,0.0,0.0,0.0,0.0,0.0,0.0,0.0,0.0,0.0,0.0,0.0,0.0,0.0,0.0,0.0,0.0,0.0,0.0,0.0,0.0,0.0,0.0,0.0,0.0,0.0,0.0,0.0,0.0,0.0,0.0,0.0,0.0,0.0,0.0,0.0,0.0,0.0,0.0,0.0,0.0,0.0,0.0,0.0,0.0,0.0,0.0,0.0,0.0,0.0,0.0,0.0,0.0,0.0,0.0,1.6768,1.7718,2.0105,2.0737,1.8538,1.8829,1.8336,1.6448,0.0,0.0,0.0,0.0,0.0,0.0,0.0,0.0,0.0,0.0,0.0,0.0,0.0,0.0,0.0,0.0,0.0,0.0,0.0,0.0,0.0,0.0,0.0,0.0,0.0,0.0,0.0,0.0,0.0,0.0,0.0,0.0,0.0,0.0,0.0,0.0,0.0,0.0,0.0,0.0,0.0,0.0,0.0,0.0,0.0,0.0,0.0,0.0,0.0,0.0,0.0,0.0,0.0,0.0,0.0,0.0,0.0,0.0,0.0,0.0,0.0,0.0,0.0,0.0,0.0,0.0,0.0,0.0,0.0,0.0,0.0,0.0,0.0,0.0,0.0,0.0,0.0,0.0,0.0,0.0,0.0,0.0,0.0,0.0,0.0,0.0,0.0,0.0,0.0,0.0,0.0,0.0,0.0,0.0,0.0,0.0,0.0,0.0,0.0,0.0,0.0,0.0,0.0,0.0,1.7138,1.9068,2.0224,1.9989,1.7834,1.7339,1.6694,1.5633,0.0,0.0,0.0,0.0,0.0,0.0,0.0,0.0,0.0,0.0,0.0,0.0,0.0,0.0,0.0,0.0,0.0,0.0,0.0,0.0,0.0,0.0,0.0,0.0,0.0,0.0,0.0,0.0,0.0,0.0,0.0,0.0,0.0,0.0,0.0,0.0,0.0,0.0,0.0,0.0,0.0,0.0,0.0,0.0,0.0,0.0,0.0,0.0,0.0,0.0,0.0,0.0,0.0,0.0,0.0,0.0,0.0,0.0,0.0,0.0,0.0,0.0,0.0,0.0,0.0,0.0,0.0,0.0,0.0,0.0,0.0,0.0,0.0,0.0,0.0,0.0,0.0,0.0,0.0,0.0,0.0,0.0,0.0,0.0,0.0,0.0,0.0,0.0,0.0,0.0,0.0,0.0,0.0,0.0,0.0,0.0,0.0,0.0,0.0,0.0,0.0,0.0,0.0,1.7541,1.822,2.0009,2.0533,1.9864,1.7688,1.6948,1.648,1.6228,1.6812,0.0,0.0,0.0,0.0,0.0,0.0,0.0,0.0,0.0,0.0,0.0,0.0,0.0,0.0,0.0,0.0,0.0,0.0,0.0,0.0,0.0,0.0,0.0,0.0,0.0,0.0,0.0,0.0,0.0,0.0,0.0,0.0,0.0,0.0,0.0,0.0,0.0,0.0,0.0,0.0,0.0,0.0,0.0,0.0,0.0,0.0,0.0,0.0,0.0,0.0,0.0,0.0,0.0,0.0,0.0,0.0,0.0,0.0,0.0,0.0,0.0,0.0,0.0,0.0,0.0,0.0,0.0,0.0,0.0,0.0,0.0,0.0,0.0,0.0,0.0,0.0,0.0,0.0,0.0,0.0,0.0,0.0,0.0,0.0,0.0,0.0,0.0,0.0,0.0,0.0,0.0,0.0,0.0,0.0,0.0,0.0,0.0,0.0,0.0,0.0,0.0,0.0,1.8356,1.8833,2.0274,2.0196,1.9192,1.7151,1.6402,1.6217,1.6622,1.6387,0.0,0.0,0.0,0.0,0.0,0.0,0.0,0.0,0.0,0.0,0.0,0.0,0.0,0.0,0.0,0.0,0.0,0.0,0.0,0.0,0.0,0.0,0.0,0.0,0.0,0.0,0.0,0.0,0.0,0.0,0.0,0.0,0.0,0.0,0.0,0.0,0.0,0.0,0.0,0.0,0.0,0.0,0.0,0.0,0.0,0.0,0.0,0.0,0.0,0.0,0.0,0.0,0.0,0.0,0.0,0.0,0.0,0.0,0.0,0.0,0.0,0.0,0.0,0.0,0.0,0.0,0.0,0.0,0.0,0.0,0.0,0.0,0.0,0.0,0.0,0.0,0.0,0.0,0.0,0.0,0.0,0.0,0.0,0.0,0.0,0.0,0.0,0.0,0.0,0.0,0.0,0.0,0.0,0.0,0.0,0.0,0.0,0.0,0.0,0.0,0.0,0.0,1.7955,1.8104,1.9531,1.851,1.7102,1.5577,1.5009,1.5059,1.5836,1.6193,0.0,0.0,0.0,0.0,0.0,0.0,0.0,0.0,0.0,0.0,0.0,0.0,0.0,0.0,0.0,0.0,0.0,0.0,0.0,0.0,0.0,0.0,0.0,0.0,0.0,0.0,0.0,0.0,0.0,0.0,0.0,0.0,0.0,0.0,0.0,0.0,0.0,0.0,0.0,0.0,0.0,0.0,0.0,0.0,0.0,0.0,0.0,0.0,0.0,0.0,0.0,0.0,0.0,0.0,0.0,0.0,0.0,0.0,0.0,0.0,0.0,0.0,0.0,0.0,0.0,0.0,0.0,0.0,0.0,0.0,0.0,0.0,0.0,0.0,0.0,0.0,0.0,0.0,0.0,0.0,0.0,0.0,0.0,0.0,0.0,0.0,0.0,0.0,0.0,0.0,0.0,0.0,0.0,0.0,0.0,0.0,0.0,0.0,0.0,0.0,0.0,0.0,1.8021,1.8182,1.8278,1.7852,1.6809,1.49,1.462,1.492,1.5805,0.0,0.0,0.0,0.0,0.0,0.0,0.0,0.0,0.0,0.0,0.0,0.0,0.0,0.0,0.0,0.0,0.0,0.0,0.0,0.0,0.0,0.0,0.0,0.0,0.0,0.0,0.0,0.0,0.0,0.0,0.0,0.0,0.0,0.0,0.0,0.0,0.0,0.0,0.0,0.0,0.0,0.0,0.0,0.0,0.0,0.0,0.0,0.0,0.0,0.0,0.0,0.0,0.0,0.0,0.0,0.0,0.0,0.0,0.0,0.0,0.0,0.0,0.0,0.0,0.0,0.0,0.0,0.0,0.0,0.0,0.0,0.0,0.0,0.0,0.0,0.0,0.0,0.0,0.0,0.0,0.0,0.0,0.0,0.0,0.0,0.0,0.0,0.0,0.0,0.0,0.0,0.0,0.0,0.0,0.0,0.0,0.0,0.0,0.0,0.0,0.0,0.0,1.7801,1.7822,1.7751,1.7522,1.6937,1.5996,1.4571,1.4579,1.5037,1.5904,0.0,0.0,0.0,0.0,0.0,0.0,0.0,0.0,0.0,0.0,0.0,0.0,0.0,0.0,0.0,0.0,0.0,0.0,0.0,0.0,0.0,0.0,0.0,0.0,0.0,0.0,0.0,0.0,0.0,0.0,0.0,0.0,0.0,0.0,0.0,0.0,0.0,0.0,0.0,0.0,0.0,0.0,0.0,0.0,0.0,0.0,0.0,0.0,0.0,0.0,0.0,0.0,0.0,0.0,0.0,0.0,0.0,0.0,0.0,0.0,0.0,0.0,0.0,0.0,0.0,0.0,0.0,0.0,0.0,0.0,0.0,0.0,0.0,0.0,0.0,0.0,0.0,0.0,0.0,0.0,0.0,0.0,0.0,0.0,0.0,0.0,0.0,0.0,0.0,0.0,0.0,0.0,0.0,0.0,0.0,0.0,0.0,0.0,0.0,0.0,0.0,0.0,1.8406,1.7259,1.6697,1.7401,1.5585,1.439,1.4572,1.4843,1.5314,0.0,0.0,0.0,0.0,0.0,0.0,0.0,0.0,0.0,0.0,0.0,0.0,0.0,0.0,0.0,0.0,0.0,0.0,0.0,0.0,0.0,0.0,0.0,0.0,0.0,0.0,0.0,0.0,0.0,0.0,0.0,0.0,0.0,0.0,0.0,0.0,0.0,0.0,0.0,0.0,0.0,0.0,0.0,0.0,0.0,0.0,0.0,0.0,0.0,0.0,0.0,0.0,0.0,0.0,0.0,0.0,0.0,0.0,0.0,0.0,0.0,0.0,0.0,0.0,0.0,0.0,0.0,0.0,0.0,0.0,0.0,0.0,0.0,0.0,0.0,0.0,0.0,0.0,0.0,0.0,0.0,0.0,0.0,0.0,0.0,0.0,0.0,0.0,0.0,0.0,0.0,0.0,0.0,0.0,0.0,0.0,0.0,0.0,0.0,0.0,0.0,0.0,0.0,1.7768,1.7427,1.688,1.6102,1.5503,1.4768,1.382,1.4425,1.5166,1.5913,0.0,0.0,0.0,0.0,0.0,0.0,0.0,0.0,0.0,0.0,0.0,0.0,0.0,0.0,0.0,0.0,0.0,0.0,0.0,0.0,0.0,0.0,0.0,0.0,0.0,0.0,0.0,0.0,0.0,0.0,0.0,0.0,0.0,0.0,0.0,0.0,0.0,0.0,0.0,0.0,0.0,0.0,0.0,0.0,0.0,0.0,0.0,0.0,0.0,0.0,0.0,0.0,0.0,0.0,0.0,0.0,0.0,0.0,0.0,0.0,0.0,0.0,0.0,0.0,0.0,0.0,0.0,0.0,0.0,0.0,0.0,0.0,0.0,0.0,0.0,0.0,0.0,0.0,0.0,0.0,0.0,0.0,0.0,0.0,0.0,0.0,0.0,0.0,0.0,0.0,0.0,0.0,0.0,0.0,0.0,0.0,0.0,0.0,0.0,0.0,0.0,0.0,1.7905,1.7439,1.6653,1.5522,1.5466,1.4948,1.359,1.4899,1.5854,1.5975,0.0,0.0,0.0,0.0,0.0,0.0,0.0,0.0,0.0,0.0,0.0,0.0,0.0,0.0,0.0,0.0,0.0,0.0,0.0,0.0,0.0,0.0,0.0,0.0,0.0,0.0,0.0,0.0,0.0,0.0,0.0,0.0,0.0,0.0,0.0,0.0,0.0,0.0,0.0,0.0,0.0,0.0,0.0,0.0,0.0,0.0,0.0,0.0,0.0,0.0,0.0,0.0,0.0,0.0,0.0,0.0,0.0,0.0,0.0,0.0,0.0,0.0,0.0,0.0,0.0,0.0,0.0,0.0,0.0,0.0,0.0,0.0,0.0,0.0,0.0,0.0,0.0,0.0,0.0,0.0,0.0,0.0,0.0,0.0,0.0,0.0,0.0,0.0,0.0,0.0,0.0,0.0,0.0,0.0,0.0,0.0,0.0,0.0,0.0,0.0,0.0,0.0,1.8505,1.7389,1.6292,1.5499,1.552,1.5082,1.3798,1.5906,1.6984,1.6256,0.0,0.0,0.0,0.0,0.0,0.0,0.0,0.0,0.0,0.0,0.0,0.0,0.0,0.0,0.0,0.0,0.0,0.0,0.0,0.0,0.0,0.0,0.0,0.0,0.0,0.0,0.0,0.0,0.0,0.0,0.0,0.0,0.0,0.0,0.0,0.0,0.0,0.0,0.0,0.0,0.0,0.0,0.0,0.0,0.0,0.0,0.0,0.0,0.0,0.0,0.0,0.0,0.0,0.0,0.0,0.0,0.0,0.0,0.0,0.0,2.3878,0.0,0.0,0.0,0.0,0.0,0.0,0.0,0.0,0.0,0.0,0.0,0.0,0.0,0.0,0.0,0.0,0.0,0.0,0.0,0.0,0.0,0.0,0.0,0.0,0.0,0.0,0.0,0.0,0.0,0.0,0.0,0.0,0.0,0.0,0.0,0.0,0.0,0.0,0.0,0.0,0.0,1.8505,1.784,1.687,1.5532,1.6031,1.5859,1.4422,1.6157,1.723,1.7055,1.8341,0.0,0.0,0.0,0.0,0.0,0.0,0.0,0.0,0.0,0.0,0.0,0.0,0.0,0.0,0.0,0.0,0.0,0.0,0.0,0.0,0.0,0.0,0.0,0.0,0.0,0.0,0.0,0.0,0.0,0.0,0.0,0.0,0.0,0.0,0.0,0.0,0.0,0.0,0.0,0.0,0.0,0.0,0.0,0.0,0.0,0.0,0.0,0.0,0.0,0.0,0.0,0.0,0.0,0.0,0.0,0.0,0.0,0.0,0.0,0.0,2.405,0.0,0.0,0.0,0.0,0.0,0.0,0.0,0.0,0.0,0.0,0.0,0.0,0.0,0.0,0.0,0.0,0.0,0.0,0.0,0.0,0.0,0.0,0.0,0.0,0.0,0.0,0.0,0.0,0.0,0.0,0.0,0.0,0.0,0.0,0.0,0.0,0.0,0.0,0.0,0.0,1.9074,1.8209,1.7177,1.6093,1.6726,1.6669,1.5279,1.6828,1.7778,1.7515,1.8509,0.0,0.0,0.0,0.0,0.0,0.0,0.0,0.0,0.0,0.0,0.0,0.0,0.0,0.0,0.0,0.0,0.0,0.0,0.0,0.0,0.0,0.0,0.0,0.0,0.0,0.0,0.0,0.0,0.0,0.0,0.0,0.0,0.0,0.0,0.0,0.0,0.0,0.0,0.0,0.0,0.0,0.0,0.0,0.0,0.0,0.0,0.0,0.0,0.0,0.0,0.0,0.0,0.0,2.6464,2.6758,2.7382,2.7227,2.7232,2.7307,2.5551,2.4737,2.4585,2.4084,0.0,0.0,0.0,0.0,0.0,0.0,0.0,0.0,0.0,0.0,0.0,0.0,0.0,0.0,0.0,0.0,0.0,0.0,0.0,0.0,0.0,0.0,0.0,0.0,2.3539,2.3505,0.0,0.0,0.0,0.0,0.0,0.0,0.0,0.0,0.0,0.0,0.0,0.0,1.9721,1.8584,1.7524,1.6737,1.7376,1.7386,1.6249,1.7613,1.8365,1.7921,1.865,1.9095,0.0,0.0,0.0,0.0,0.0,0.0,0.0,0.0,0.0,0.0,0.0,0.0,0.0,0.0,0.0,0.0,0.0,0.0,0.0,0.0,0.0,0.0,0.0,0.0,0.0,0.0,0.0,0.0,0.0,0.0,0.0,0.0,2.6041,2.6046,0.0,0.0,0.0,0.0,0.0,0.0,0.0,0.0,0.0,0.0,0.0,0.0,0.0,2.821,2.821,2.8869,2.9277,2.9372,2.9246,2.9231,2.9325,2.9298,2.8913,2.8226,2.7774,0.0,2.5448,2.4477,0.0,0.0,0.0,0.0,0.0,0.0,0.0,0.0,0.0,0.0,0.0,0.0,0.0,0.0,0.0,0.0,0.0,0.0,0.0,0.0,0.0,0.0,2.3505,2.3517,2.3505,2.3505,0.0,2.3313,2.3144,2.3107,2.2871,0.0,0.0,0.0,0.0,0.0,0.0,0.0,1.9787,1.9073,1.8182,1.699,1.7587,1.7796,1.7167,1.8126,1.8734,1.8663,1.8939,1.9095,1.9095,1.8779,0.0,0.0,0.0,0.0,0.0,0.0,0.0,0.0,0.0,0.0,0.0,0.0,0.0,0.0,0.0,0.0,0.0,0.0,0.0,0.0,0.0,0.0,0.0,0.0,0.0,0.0,0.0,0.0,0.0,2.5998,2.6387,2.6861,2.6501,2.6197,0.0,0.0,0.0,0.0,0.0,0.0,0.0,0.0,0.0,2.9545,3.036,3.0787,3.0787,3.1128,3.1545,3.2019,3.1484,3.1393,3.1701,3.1104,3.0611,3.0226,2.9528,2.8592,2.7403,2.5419,2.4624,2.4598,0.0,0.0,0.0,0.0,2.4343,2.4864,2.4816,2.4844,0.0,2.4647,0.0,0.0,0.0,0.0,0.0,0.0,0.0,0.0,0.0,0.0,0.0,2.4389,2.427,2.4098,2.3606,2.3448,2.336,0.0,2.3151,2.2879,2.2537,0.0,0.0,0.0,0.0,2.0978,2.0692,1.9571,1.8698,1.844,1.8232,1.8113,1.8144,1.8555,1.8843,1.8958,1.9045,1.9095,1.9095,1.9095,1.9313,0.0,0.0,0.0,0.0,0.0,0.0,0.0,0.0,0.0,0.0,0.0,0.0,0.0,0.0,0.0,0.0,0.0,0.0,0.0,0.0,0.0,0.0,0.0,0.0,0.0,0.0,0.0,0.0,2.6577,2.7088,2.7733,2.743,2.7062,0.0,0.0,0.0,0.0,0.0,0.0,2.9916,3.0541,3.1261,3.2122,3.2937,3.3373,3.3373,3.3581,3.3998,3.4643,3.3998,3.3913,3.431,3.3307,3.2723,3.2456,3.1402,3.0508,2.9588,2.687,2.5658,2.5471,2.4785,2.4569,2.4641,2.4641,2.5274,2.6104,2.5834,2.5918,2.6066,2.5674,0.0,2.4602,2.4375,0.0,0.0,0.0,0.0,2.5273,2.5865,2.6033,2.5895,2.5344,2.517,2.495,2.4307,2.4043,2.3858,0.0,2.3412,2.323,2.2905,0.0,0.0,0.0,0.0,2.1656,2.1517,2.0218,1.9413,1.9671,1.8848,1.845,1.8843,1.8878,1.8941,1.9087,1.9095,1.9095,1.9095,1.9095,1.9385,1.9974,0.0,0.0,0.0,0.0,0.0,0.0,0.0,0.0,0.0,0.0,0.0,0.0,0.0,0.0,0.0,0.0,0.0,0.0,0.0,0.0,0.0,0.0,0.0,0.0,0.0,0.0,0.0,0.0,0.0,2.8627,2.929,0.0,0.0,0.0,0.0,2.9669,3.0522,3.1724,3.3354,3.3486,3.3884,3.468,3.5552,3.6017,3.6017,3.6775,3.7173,3.7211,3.7173,3.7163,3.7172,3.6347,3.5523,3.468,3.3662,3.2743,3.1728,2.8973,2.7187,2.6184,2.6391,2.6319,2.6088,2.6088,2.6607,2.7187,2.6426,2.6673,2.7235,2.6706,2.6455,2.6315,2.6065,2.5985,0.0,0.0,2.6039,2.6039,2.6075,2.6093,2.6093,2.6039,2.6039,2.6021,2.5973,2.5362,2.4595,0.0,2.3652,2.3582,2.3313,0.0,2.3158,2.281,2.2788,2.2571,2.1866,2.1161,2.0509,2.0037,1.9251,1.8852,1.9062,1.9078,1.9078,1.9095,1.9095,1.9095,1.9095,1.9095,1.9113,1.9168,2.0827,0.0,0.0,0.0,0.0,0.0,0.0,0.0,0.0,0.0,0.0,0.0,0.0,0.0,0.0,0.0,0.0,0.0,0.0,0.0,0.0,0.0,0.0,0.0,0.0,0.0,0.0,0.0,0.0,3.1014,3.1829,0.0,3.1951,3.1933,3.2255,3.307,3.3922,3.5154,3.6832,3.7409,3.8081,3.8925,3.9759,4.0195,4.0195,3.9968,3.9854,3.9835,3.8746,3.8142,3.7954,3.7095,3.6471,3.6005,3.5089,3.4542,3.4136,3.2214,3.0472,2.8993,2.8571,2.842,2.846,2.846,2.9051,2.9792,2.9373,2.9302,2.9229,2.8213,2.7992,2.8065,2.7792,2.735,2.7037,2.7505,2.7277,2.6988,2.7511,2.7637,2.7511,2.6988,2.6862,2.6724,2.6213,2.5865,2.5426,2.4658,2.4093,2.3667,2.3348,2.3479,2.3461,2.2935,2.3117,2.32,2.2934,2.2076,2.1578,2.172,2.0448,1.9649,1.9857,1.9403,1.9095,1.9095,1.9095,1.9145,1.9222,1.9222,1.9515,2.0123,2.1388,2.1655,0.0,0.0,0.0,0.0,0.0,0.0,0.0,0.0,0.0,0.0,0.0,0.0,0.0,0.0,0.0,0.0,0.0,0.0,0.0,0.0,0.0,0.0,0.0,0.0,0.0,3.1223,3.2766,3.3581,3.468,3.5268,3.4984,3.5211,3.5723,3.6538,3.739,3.849,3.9873,4.0449,4.0999,4.1586,4.2117,4.2401,4.2401,4.187,4.1586,4.1586,4.0195,3.9448,3.9236,3.8094,3.7506,3.7328,3.6443,3.6098,3.6058,3.509,3.3978,3.272,3.0992,3.0355,3.0404,3.0404,3.0988,3.1788,3.1641,3.1354,3.0884,2.9982,2.9844,2.9991,2.9655,2.9162,2.8828,2.922,2.8748,2.826,2.8802,2.8748,2.8391,2.788,2.7754,2.7597,2.7054,2.6736,2.6399,2.5904,2.4946,2.405,2.3555,2.3657,2.3761,2.3632,2.3599,2.3688,2.3968,2.2928,2.2307,2.265,2.139,2.056,2.0689,2.021,1.9902,1.9902,1.9648,1.9688,2.0087,1.9845,2.0154,2.112,2.1022,2.1901,2.3797,0.0,0.0,0.0,0.0,0.0,0.0,0.0,0.0,0.0,0.0,0.0,0.0,0.0,0.0,0.0,0.0,0.0,0.0,0.0,0.0,0.0,0.0,0.0,3.1553,3.3468,3.5363,3.6225,3.7799,3.8481,3.7647,3.8329,3.9153,3.9957,4.079,4.1624,4.2439,4.2477,4.2477,4.2477,4.2477,4.2477,4.2477,4.2439,4.2439,4.242,4.1586,4.1188,4.1143,3.9505,3.8746,3.869,3.7818,3.7457,3.7466,3.742,3.742,3.7096,3.3617,3.2146,3.1964,3.1946,3.2419,3.3066,3.3073,3.2689,3.2142,3.1933,3.2008,3.2091,3.1616,3.1458,3.1378,3.1116,3.0455,2.9839,2.9839,2.9264,2.8672,2.8672,2.8654,2.8636,2.8636,2.8002,2.7423,2.7405,2.6138,2.4809,2.3976,2.386,2.4121,2.4846,2.432,0.0,2.4864,2.3668,2.2735,2.2735,2.2011,2.155,2.155,2.1504,2.1514,2.1514,2.078,2.0752,2.1673,2.0962,2.1039,2.2028,1.9812,2.0747,2.4984,0.0,0.0,0.0,0.0,0.0,0.0,0.0,0.0,0.0,0.0,0.0,0.0,0.0,0.0,0.0,0.0,0.0,0.0,0.0,0.0,0.0,3.4461,3.5135,3.4036,3.6547,3.8612,3.8839,4.0366,4.1294,4.1048,4.1237,4.1749,4.2602,4.2886,4.336,4.4175,4.4213,4.4213,4.4213,4.4213,4.4213,4.4213,4.3625,4.3341,4.3322,4.1889,4.1188,4.115,4.0071,3.9559,3.9532,3.8709,3.866,3.9123,3.7902,3.778,3.8167,3.6563,3.5907,3.579,3.5205,3.4723,3.4447,3.4891,3.4639,3.4054,3.3672,3.3713,3.3813,3.3308,3.2719,3.2208,3.1951,3.1288,3.0672,3.0672,3.0496,3.0333,3.0333,2.988,2.9463,2.9463,2.8848,2.8093,2.7514,2.7043,2.6312,2.49,2.5153,2.5226,2.4266,2.4429,0.0,2.4176,2.3759,2.3506,2.3506,2.2817,2.2373,2.2373,2.183,2.1514,2.1514,2.137,2.1507,2.1901,2.1809,2.2208,2.3205,2.2596,2.3158,0.0,0.0,0.0,0.0,0.0,0.0,0.0,0.0,0.0,0.0,0.0,0.0,0.0,0.0,0.0,0.0,0.0,0.0,0.0,0.0,0.0,0.0,3.6985,3.8243,3.8073,3.9711,4.1075,4.1454,4.2647,4.3455,4.3455,4.3777,4.4042,4.4194,4.4535,4.4781,4.4895,4.4895,4.4895,4.4895,4.4895,4.4895,4.4895,4.444,4.4194,4.4194,4.2867,4.2261,4.2223,4.0999,4.0449,0.0,3.957,3.9475,3.9824,3.885,3.8755,0.0,0.0,0.0,0.0,0.0,3.6083,3.5959,3.597,3.5737,3.54,3.5133,3.4908,3.4639,3.4257,3.3814,3.3376,3.3117,3.2378,3.1677,3.1677,3.1347,3.0998,3.0998,3.0636,3.031,3.031,2.9934,2.9481,2.8993,2.892,0.0,2.6801,2.6059,2.5497,2.49,2.4628,2.4447,2.432,2.4013,2.3806,2.3806,2.3415,2.3161,2.3161,2.2806,0.0,0.0,0.0,2.2417,2.2619,2.311,0.0,0.0,0.0,2.4491,2.5003,0.0,0.0,0.0,2.4979,2.4938,0.0,0.0,0.0,0.0,0.0,0.0,0.0,0.0,0.0,0.0,0.0,0.0,0.0,0.0,0.0,0.0,3.9949,4.1844,4.2829,4.295,4.3227,4.391,4.4687,4.5179,4.5179,4.588,4.5975,4.5103,4.5767,4.5824,4.4952,0.0,0.0,0.0,0.0,4.4895,4.4895,4.4895,4.4895,4.4895,4.408,4.3701,4.3644,4.2071,4.1351,4.1283,4.0412,4.0052,4.0033,3.9938,3.99,3.9748,3.8262,3.7628,3.7476,3.6841,3.6879,3.7192,3.6661,0.0,0.0,3.6206,3.5685,3.4983,3.4695,3.4612,3.4558,3.4393,3.3561,3.2768,3.286,3.2082,3.127,3.127,3.1197,3.1143,3.1143,3.1057,3.0998,3.0998,3.0998,3.055,2.9125,2.7019,2.5697,2.6131,2.4972,2.4302,2.4918,2.4302,2.3806,2.3806,0.0,0.0,2.3837,2.4029,2.4126,2.4126,2.3651,2.3456,2.3651,2.4532,2.5003,2.5003,2.5003,2.5003,2.5003,2.5017,2.5044,2.5107,2.5051,2.5012,0.0,0.0,0.0,0.0,0.0,0.0,0.0,0.0,0.0,0.0,0.0,0.0,0.0,0.0,0.0,4.0978,4.245,4.3966,4.6127,4.643,4.6241,4.5767,4.643,4.6923,4.6923,4.7074,4.6828,4.6013,4.6089,4.5824,4.4952,4.4895,4.4895,4.4895,4.4895,4.4895,4.4895,4.4895,4.4895,4.4895,0.0,0.0,4.3663,4.264,4.2174,4.2117,4.1302,4.0942,4.0885,4.0184,3.99,3.9862,3.954,3.902,3.8519,3.9001,3.8016,3.6604,3.7799,3.7325,3.6206,3.6206,3.6093,3.5788,3.4864,3.4612,0.0,3.5056,3.4393,3.3728,3.438,3.3743,3.294,3.294,3.2433,3.1962,3.1962,3.1469,3.0998,3.0998,3.0998,3.0908,3.0586,2.9621,2.825,2.6475,2.595,2.557,2.5063,2.4302,2.3806,2.3806,2.3949,2.403,2.403,2.4229,2.4337,2.4337,2.4377,2.4501,2.4697,2.4895,2.5003,2.5003,2.5003,2.5003,2.5003,2.5044,2.5088,2.5107,2.5095,2.5112,0.0,0.0,0.0,0.0,0.0,0.0,0.0,0.0,0.0,0.0,0.0,3.7205,3.8346,0.0,4.1627,4.4007,4.5043,4.5975,4.7226,4.7776,4.7738,4.6904,4.715,4.7397,4.7397,4.7776,4.77,4.6866,4.679,4.643,4.5596,4.5141,4.4895,4.4895,4.4895,4.4895,4.4895,4.4895,4.4895,4.4895,4.4497,4.4308,4.427,4.3436,4.3057,4.3,4.2155,4.1567,4.1132,4.026,3.99,3.99,3.99,3.9654,3.9304,3.9304,3.8774,3.8111,3.8557,3.8159,3.7457,3.7457,3.7154,3.6698,3.6151,3.6006,3.6061,3.6329,3.5916,3.5392,3.5392,3.5238,3.4839,3.4004,3.4127,3.4228,3.338,3.3535,3.3726,3.329,3.3204,3.3057,3.2665,3.193,3.0491,2.7798,2.7061,2.6558,2.5892,2.5072,2.4602,2.4742,2.4459,2.4247,2.4247,2.4424,2.4583,2.4689,2.4791,2.4901,2.5003,2.5003,2.5003,2.5003,2.5003,2.503,2.5057,2.5082,2.5136,2.5212,2.5658,2.5622,0.0,0.0,0.0,0.0,0.0,0.0,0.0,3.5671,3.6789,3.7783,3.9102,4.0575,4.2233,4.357,4.4955,4.6614,4.7307,4.77,4.7851,4.849,4.8679,4.7965,4.7889,4.7889,4.7889,4.8528,4.8509,4.7472,4.7397,4.6961,4.5994,4.5274,4.4895,4.4895,4.4895,4.4895,4.4895,4.4895,4.4895,4.4895,4.4895,4.4895,4.4876,4.4232,4.3929,4.3891,4.3038,4.2204,4.1359,4.0506,4.0146,4.0146,3.9976,3.99,3.9824,3.9172,3.9248,3.9597,3.9096,3.8822,3.869,3.869,3.8216,3.7628,3.7457,3.7401,3.7438,3.7609,3.7338,3.6878,3.6408,3.6489,3.6347,3.5002,3.5721,3.6329,3.4983,3.5739,3.649,3.5795,3.5646,3.5442,3.4797,3.4003,3.2506,2.9661,2.8391,2.7616,2.7182,2.6244,2.5622,2.5698,2.5092,2.4634,2.4537,2.4665,2.4832,2.4996,2.5003,2.5003,2.5003,2.5182,2.5271,2.5271,2.5443,2.5565,2.562,2.5638,2.5705,2.5818,2.6549,2.64,3.4606,3.3821,3.3621,3.4925,3.5383,3.6323,0.0,3.9544,3.9541,4.1197,4.2234,4.3341,4.4889,4.5792,4.6814,4.8373,4.858,4.8812,4.9533,4.9703,4.9741,4.9627,4.9627,4.9627,4.9627,4.9722,4.9115,4.751,4.7397,4.6714,4.5122,4.4952,4.4895,4.4895,4.4895,4.4895,4.4895,4.4895,4.4895,4.4895,4.4895,4.4895,4.4895,4.4819,4.4762,4.4724,4.391,4.3057,4.2192,4.1378,4.1056,4.098,4.0203,3.99,3.99,3.9805,3.938,3.8917,3.9551,3.9304,3.869,3.869,3.8633,3.8405,3.7628,3.7401,3.7571,3.8348,3.7791,3.7171,3.784,3.7361,3.6658,3.6472,3.6565,3.6658,3.6472,3.6565,3.6676,3.6565,3.6546,3.6527,3.6434,3.5696,3.4296,3.1808,3.01,2.907,2.9016,2.7668,2.6461,2.5763,2.5716,2.5517,2.4979,2.495,2.4983,2.5003,2.5003,2.5003,2.5003,2.5793,2.6231,2.6231,2.7057,2.7487,2.7493,2.7552,2.7599,2.7614,2.7777,2.7379,3.5597,3.5804,3.6199,3.5887,3.7292,3.9267,4.1177,4.2047,4.2954,4.466,4.5629,4.6491,4.7608,4.7884,4.8315,4.9468,4.9512,4.9514,4.9855,4.9495,4.921,4.921,4.8755,4.8831,4.9817,4.9476,4.8907,4.8225,4.7245,4.6392,4.5691,4.5179,4.4895,4.4895,4.4895,4.5141,4.5653,4.5141,4.5141,4.5653,4.5141,4.4895,4.4895,4.4895,4.4895,4.4857,4.4042,4.3493,4.3095,4.2249,4.1901,4.1851,4.1491,4.134,4.1245,4.026,3.9692,3.9456,3.9786,3.9673,3.9399,3.9399,3.974,3.9987,3.9115,3.921,3.9589,3.9437,3.905,3.8663,3.8561,3.8539,3.8319,3.7341,3.7849,3.83,3.7322,3.7868,3.8413,3.7943,3.7849,3.7849,3.7849,3.7134,3.6061,3.4584,3.2703,3.1155,3.0345,2.9214,2.8033,2.6868,2.6808,2.6529,2.5754,2.5705,2.5496,2.5022,2.5037,2.5285,2.5799,2.6236,2.6705,2.719,2.7589,2.7827,2.7857,2.7888,2.7928,2.7971,2.8519,2.8567,3.6111,3.7263,3.8548,3.7735,3.9908,4.246,4.3291,4.4602,4.6067,4.7509,4.8052,4.8508,4.9329,4.9199,4.9182,4.9832,4.9911,4.9912,4.9912,4.921,4.8698,4.8698,4.794,4.7883,4.9097,4.8679,4.8262,4.8035,4.7093,4.643,4.6203,4.5805,4.5596,4.5596,4.5369,4.5558,4.6184,4.5331,4.5217,4.5824,4.5198,4.4895,4.4895,4.4895,4.4895,4.4876,4.4289,4.4023,4.3966,4.3114,4.2773,4.2723,4.2477,4.2401,4.2249,4.1037,4.0582,4.0525,4.0071,4.0203,4.0544,4.0336,4.0696,4.1075,4.0449,4.0525,4.0715,4.0089,3.99,3.9767,3.9172,3.9456,3.9597,3.8376,3.921,3.9919,3.8717,3.9589,4.0412,3.9835,3.9543,3.9391,3.9391,3.8481,3.7571,3.6984,3.5168,3.3355,3.1873,3.0499,2.9206,2.7964,2.7619,2.7247,2.6614,2.6558,2.6325,2.5753,2.5761,2.6085,2.6765,2.7077,2.7544,2.8165,2.8437,2.8596,2.8632,2.8632,2.8676,2.8726,2.936,2.965,3.6054,3.7646,3.9947,4.1518,4.3789,4.5884,4.6755,4.7644,4.8546,4.9436,4.8972,4.8655,4.9525,4.9422,4.9205,4.9224,4.9605,4.9912,4.9912,4.921,4.8698,4.8698,4.794,4.7416,4.7472,4.7453,4.7112,4.6316,4.6942,4.7018,4.6241,4.6904,4.7321,4.7321,4.6563,4.6165,4.6203,4.5331,4.4914,4.4933,4.4914,4.4895,4.4895,4.4895,4.4895,4.4895,4.4876,4.4857,4.48,4.3985,4.3663,4.3587,4.2723,4.2401,4.2382,4.2344,4.2306,4.2079,4.0468,4.0961,4.2192,4.1397,4.1169,4.1188,4.1169,4.0582,3.9938,3.9919,3.99,3.99,3.9862,3.9881,3.99,3.9843,4.0506,4.115,4.1105,4.1749,4.2306,4.2287,4.1673,4.1113,4.1113,3.974,3.8652,3.8633,3.7182,3.5505,3.3837,3.1442,2.9585,2.876,2.7979,2.7494,2.7456,2.7456,2.7481,2.7528,2.7515,2.7587,2.7754,2.8632,2.9137,2.9156,3.0057,3.0516,3.0516,3.0516,3.052,3.052,3.0559,3.0559,3.8326,4.0634,4.3252,4.4348,4.6518,4.8469,4.8759,4.9455,4.9997,4.9745,4.901,4.8446,4.861,4.7991,4.7813,4.8823,4.9127,4.9442,5.0012,4.9378,4.8635,4.8102,4.7182,4.6373,4.5805,4.6259,4.6714,4.698,4.6752,4.6714,4.698,4.7245,4.7397,4.7397,4.7131,4.7264,4.7864,4.698,4.6563,4.6544,4.5426,4.4895,4.4895,4.4895,4.4895,4.4895,4.4895,4.4895,4.4876,4.4611,4.4497,4.4478,4.4175,4.4061,4.3985,4.3455,4.3606,4.3815,4.2136,4.1927,4.2363,4.2079,4.2393,4.2659,4.1541,4.1757,4.2071,4.0374,4.0696,4.1435,4.0904,4.115,4.1548,4.1548,4.1776,4.2003,4.2003,4.2211,4.2401,4.2401,4.1738,4.1188,4.1188,4.0241,3.9323,3.8784,3.6775,3.4946,3.3847,3.1989,3.0654,3.0389,2.9673,2.901,2.8477,2.847,2.8281,2.7764,2.7766,2.808,2.8695,2.9076,2.954,3.012,3.0434,3.0598,3.0598,3.0598,3.0598,3.0598,3.0598,3.0598,4.0641,4.3287,4.5964,4.7346,4.8917,5.021,5.0519,5.0538,5.0241,4.9417,4.8295,4.7422,4.7298,4.62,4.5928,4.7783,4.777,4.8059,4.952,4.9017,4.8388,4.8159,4.7291,4.6498,4.5855,4.6297,4.6714,4.6942,4.7036,4.7334,4.7845,4.8136,4.83,4.83,4.8016,4.813,4.8698,4.7548,4.6809,4.6506,4.5729,4.5198,4.4895,4.4895,4.4895,4.4895,4.4895,4.4895,4.4895,4.4895,4.4895,4.4895,4.4895,4.4895,4.4838,4.4326,4.4459,4.4668,4.2981,4.2791,4.3246,4.2962,4.3246,4.3493,4.2431,4.264,4.2886,4.1245,4.1567,4.2268,4.1757,4.2003,4.2401,4.2401,4.264,4.2867,4.2867,4.3095,4.3303,4.3303,4.264,4.1996,4.1681,4.0677,3.9637,3.8895,3.7385,3.5808,3.4384,3.3016,3.2064,3.1797,3.1065,3.0383,2.9867,2.9609,2.9256,2.8766,2.8777,2.907,2.9679,2.9743,3.0037,3.0598,3.0598,3.0598,3.0598,3.0598,3.0598,3.0598,3.0598,3.0598,4.2961,4.5514,4.8048,5.0395,5.0995,5.1207,5.1912,5.0848,4.9436,4.8469,4.6883,4.5671,4.5671,4.4203,4.3788,4.6225,4.5842,4.6134,4.864,4.8327,4.8106,4.8838,4.8285,4.7707,4.7435,4.7485,4.7233,4.6468,0.0,4.8731,4.8755,4.9508,4.9906,4.9912,4.9153,4.8755,4.8755,4.7131,4.5912,4.5128,4.5848,4.5785,4.5,4.4943,4.4943,4.4943,4.4943,4.4943,4.4943,4.4943,4.4943,4.4924,4.4919,4.4919,4.4919,4.4907,4.4895,4.4687,4.3076,4.3568,4.4762,4.4004,4.3758,4.3758,4.3701,4.3152,4.2515,4.242,4.2469,4.2515,4.2477,4.2507,4.2533,4.2533,4.317,4.3758,4.3758,4.4364,4.4895,4.4895,4.4213,4.3372,4.25,4.1002,3.9701,3.9061,3.8899,3.7964,3.5495,3.4465,3.3689,3.2959,3.2096,3.1571,3.1571,3.0842,3.0406,3.0475,3.0422,3.0479,3.0593,3.0636,3.0656,3.0656,3.0714,3.0733,3.0733,3.0733,3.0733,3.0733,3.0733,3.0733,4.5813,4.8175,5.0403,5.1583,5.2356,5.2395,5.0712,5.0016,4.9088,4.6902,4.5123,4.3943,4.3943,4.3458,4.3888,4.6402,4.7145,4.8068,4.9971,5.0067,4.9749,4.9264,4.9453,4.9098,4.7679,4.8681,4.9396,4.9338,4.9029,4.9062,4.957,4.9924,5.005,4.9893,4.9743,4.9629,4.9589,4.8585,4.8029,4.7941,4.6918,4.6403,4.6299,4.5685,4.5416,4.5416,4.5416,4.5416,4.5416,4.5416,4.5416,4.5398,4.5206,4.5144,4.5173,4.4965,4.4931,4.4898,4.4433,4.4535,4.4876,4.4668,4.4592,4.4478,4.3891,4.3966,4.4004,4.2754,4.3303,4.4118,4.3531,4.3815,4.427,4.427,4.444,4.4592,4.4592,4.4762,4.4895,4.4895,4.3806,4.262,4.1802,4.0835,4.0136,3.9961,3.8889,3.7625,3.6377,3.5465,3.463,3.3846,3.3083,3.2614,3.2614,3.1877,3.1413,3.1433,3.0878,3.0559,3.0598,3.1178,3.1483,3.1483,3.2121,3.2469,3.2469,3.2469,3.2469,3.2469,3.2469,3.2469,4.843,5.0545,5.2291,5.2659,5.255,5.1892,5.0113,4.8817,4.7366,4.5162,4.3653,4.2725,4.2725,4.2381,4.2895,4.5365,4.6166,4.7214,4.9314,4.9937,5.011,4.9979,5.0654,5.0711,4.958,5.0681,5.1502,5.1616,5.0711,5.031,5.0761,5.087,5.0728,5.0214,5.0237,5.0076,4.9679,4.9583,4.9231,4.8587,4.7645,4.7066,4.6777,4.5978,4.5603,4.5603,0.0,4.5603,4.5603,4.5603,4.5603,4.5595,4.5432,4.5396,4.5416,4.5265,4.5171,4.5126,4.5094,4.5011,4.4931,4.4907,4.4895,4.4819,4.4364,4.4535,4.4706,4.3758,4.4175,4.48,4.4345,4.4554,4.4895,4.4895,4.4955,4.5026,4.5026,4.5084,4.5121,4.5121,4.4109,4.2995,4.2193,4.1406,4.0748,4.0441,3.9596,3.8716,3.798,3.6425,3.5238,3.4828,3.4081,3.3614,3.3614,3.2854,3.2372,3.2372,3.1947,3.1695,3.1695,3.2121,3.2372,3.2372,3.2856,3.3107,3.3107,3.3107,3.3107,3.3107,3.3107,3.3107,5.0658,5.2505,5.3696,5.3406,5.2182,5.0743,4.9475,4.725,4.4987,4.3305,4.226,4.1661,4.1661,4.1274,4.1706,4.3971,4.4437,4.5401,4.8039,4.9068,4.9908,5.0877,5.18,5.2291,5.2119,5.2882,5.3402,5.3428,5.2512,5.1944,5.1901,5.1927,5.1522,5.0647,5.0608,5.0261,4.9583,5.0261,4.9892,4.8473,4.838,4.7925,4.719,4.6274,4.5841,4.5841,4.5841,0.0,4.5861,4.5984,4.5957,4.5841,4.5812,4.5746,4.565,4.5619,4.5494,4.5332,4.5352,4.5234,4.5065,4.4955,4.4907,4.4895,4.4895,4.4895,4.4895,4.4895,4.4895,4.4914,4.4931,4.4931,4.4943,4.4967,4.5095,4.5235,4.5235,4.533,4.54,4.54,4.471,4.3903,4.3212,4.2386,4.1572,4.0807,4.061,4.0298,3.9585,3.7359,3.5848,3.5853,3.509,3.4568,3.4568,3.377,3.3262,3.3262,3.3165,3.3107,3.3107,3.3204,3.3262,3.3262,3.3397,3.3455,3.3455,3.3455,3.3455,3.3455,3.3455,3.3455,5.1888,5.3398,5.4316,5.2806,5.2202,5.1003,4.7316,4.5045,4.3266,4.1583,4.0545,3.9926,3.9926,4.0951,4.2409,4.4244,4.5114,4.6448,4.9077,4.9609,5.0296,5.1784,5.2736,5.3235,5.3138,5.3884,5.4425,5.4595,5.3786,5.2867,5.1938,5.205,5.1707,5.0717,5.0617,5.0559,5.0486,5.0559,5.0565,5.0494,4.977,4.9437,4.9395,4.7877,4.7177,4.7177,4.7177,0.0,4.7235,4.7955,4.7819,4.7148,4.6998,4.6517,4.5896,4.5679,4.5573,4.5553,4.5552,4.5539,4.5444,4.509,4.4962,4.4895,4.4895,4.4895,4.4895,4.4895,4.4895,4.4931,4.5095,4.5148,4.5192,4.5291,4.5341,4.5361,4.5361,4.5381,4.54,4.54,4.4783,4.4226,4.4091,4.3466,4.2716,4.1867,4.1171,4.0449,3.9617,3.8477,3.7466,3.6767,3.5955,3.5477,3.5477,3.4684,3.4181,3.4181,3.3494,3.3107,3.3107,3.3789,3.4181,3.4181,3.4872,3.524,3.524,3.524,3.524,3.524,3.524,3.524,5.2179,5.3611,5.4355,5.209,5.0867,4.9223,4.5374,4.3208,4.1506,3.9804,3.9108,3.8953,3.9423,4.0526,4.1932,4.3653,4.4253,4.5562,4.8643,4.8735,4.9458,5.2059,5.3163,5.3866,5.429,5.5106,5.5635,5.5735,5.5351,5.4477,5.3023,5.216,5.1511,5.1029,5.0978,5.0978,5.101,5.0978,5.1027,5.1157,5.0281,4.9901,4.9956,4.8729,4.8183,4.8183,4.8183,0.0,4.8202,4.8631,4.8553,4.816,4.8072,4.7509,4.6774,4.6638,4.6265,4.5809,4.5809,4.5722,4.5573,4.5369,4.5285,4.5265,4.5265,4.5244,4.5211,4.5211,4.5188,4.5186,4.529,4.531,4.533,4.539,4.5447,4.5519,4.5596,4.5613,4.5613,4.5613,4.5325,4.4959,4.4527,4.4192,4.3692,4.2802,4.1951,4.1287,4.0897,3.9721,3.8587,3.7677,3.7232,3.6826,3.6361,3.5936,3.551,3.511,3.4679,3.4457,3.4449,3.4855,3.5083,3.5131,3.5539,3.5747,3.5747,3.5747,3.5747,3.5747,3.5747,3.5747,5.1964,5.3366,5.3996,5.1339,4.9536,4.7465,4.3846,4.1719,4.0023,3.8276,3.7922,3.8199,3.9056,3.9926,4.1126,4.2995,4.3318,4.4473,4.7766,4.8019,4.9036,5.212,5.3491,5.4515,5.5392,5.6093,5.6507,5.6507,5.6331,5.5548,5.3989,5.243,5.1495,5.132,5.13,5.13,5.13,5.13,5.13,5.13,5.0618,5.0287,5.0248,4.943,4.906,4.906,4.906,0.0,0.0,4.9255,4.9235,4.906,4.906,4.8417,4.7501,4.7501,4.6878,4.6037,4.6037,4.5906,4.5738,4.5738,4.5662,4.5603,4.5603,4.5563,4.5524,4.5524,4.5491,4.5456,4.5493,4.5502,4.5482,4.5518,4.5594,4.57,4.5787,4.5827,4.5827,4.5827,4.5827,4.5641,4.5009,4.4899,4.4608,4.3737,4.3021,4.2536,4.2427,4.1255,4.0081,3.9154,3.8568,3.7968,3.7271,3.7212,3.6864,3.6051,3.5993,3.5916,3.5722,3.5722,3.576,3.5795,3.5795,3.5795,3.5795,3.5795,3.5795,3.5795,3.5795,3.5795,5.1293,5.2533,5.3172,5.0564,4.9194,4.7379,4.3092,4.0816,3.9114,3.7386,3.7019,3.729,3.8154,3.903,4.0429,4.2899,4.3356,4.431,4.6952,4.8713,5.0432,5.2281,5.4037,5.5411,5.6292,5.6448,5.6507,5.6507,5.5762,5.4901,5.3946,5.2995,5.2119,5.1339,5.13,5.13,5.13,5.13,5.13,5.13,5.1222,5.1183,5.1145,5.0287,4.9898,4.9898,4.9898,0.0,0.0,5.0735,5.0599,4.9898,4.9898,4.8904,4.7501,4.7501,4.6932,4.6189,4.6189,4.6162,4.6135,4.6135,4.59,4.5603,4.5603,4.5603,4.5595,4.5595,4.5587,4.5611,4.5742,4.5763,4.579,4.5922,4.5904,4.5886,4.5899,4.588,4.588,4.588,4.588,4.5879,4.5878,4.5869,4.5578,4.4699,4.4505,4.4199,4.3471,4.3238,4.2811,4.1927,3.9757,3.8343,3.8266,3.8266,3.7892,3.7029,3.6971,3.6621,3.5829,3.5791,3.5791,3.5795,3.5795,3.5795,3.5795,3.5795,3.5795,3.5795,3.5795,3.5795,5.0145,5.1677,5.235,4.9722,4.7991,4.5944,4.2141,3.995,3.8237,3.6535,3.6187,3.6593,3.7941,3.8518,3.9774,4.2808,4.2507,4.3155,4.674,4.7028,4.8096,5.1388,5.2886,5.4184,5.5587,5.6191,5.6507,5.6507,5.6171,5.5606,5.4725,5.3849,5.2742,5.1339,5.1807,5.1826,5.132,5.13,5.13,5.13,5.13,5.13,5.13,5.095,5.0774,5.0774,5.0774,0.0,0.0,5.1164,5.1106,5.0774,5.0774,4.9761,4.828,4.828,4.7404,4.6199,4.6199,4.6199,4.6199,4.6199,4.6083,4.5963,4.5963,4.5936,4.5908,4.5908,4.5859,4.5841,4.5916,4.5927,4.5939,4.5991,4.598,4.5964,4.5964,4.5964,4.5964,4.5964,4.5964,4.5975,4.5997,4.6002,4.5885,4.553,4.5045,4.4594,4.4316,4.381,4.3376,4.3086,4.1628,4.0256,3.9207,3.911,3.876,3.7944,3.7886,3.7719,3.7374,3.7354,3.7132,3.6648,3.6648,3.6375,3.5869,3.5869,3.5869,3.5869,3.6395,3.6648,4.7793,4.9692,5.0885,4.8757,4.6688,4.4422,4.148,3.924,3.7406,3.5994,3.5704,3.6212,3.7912,3.828,3.9323,4.2472,4.2232,4.2801,4.6105,4.6225,4.7124,5.0205,5.1534,5.2898,5.4647,5.584,5.6507,5.6507,5.6253,5.5743,5.4862,5.4219,5.3229,5.1729,5.2041,5.1924,5.132,5.13,5.13,5.13,5.13,5.13,5.13,5.13,5.13,5.13,5.13,0.0,0.0,5.13,5.13,5.1261,5.1028,5.0053,4.8768,4.8514,4.7482,4.6199,4.6199,4.6199,4.6199,4.6199,4.6199,4.6199,4.6199,4.6177,4.6134,4.6134,4.6093,4.6066,4.6066,4.6037,4.6027,4.6042,4.6037,4.6022,4.6022,4.6022,4.6022,4.6022,4.6022,4.6047,4.6066,4.6066,4.6066,4.6066,4.5541,4.5151,4.5204,4.4681,4.4212,4.4014,4.3397,4.231,4.0575,4.0438,3.9961,3.8874,3.8815,3.8708,3.8436,3.8436,3.8151,3.7605,3.7585,3.7273,3.6668,3.6668,3.6668,3.6688,3.7292,3.7585,4.3893,4.6192,4.8592,4.7568,4.5405,4.3053,4.1214,3.8779,3.669,3.5858,3.5704,3.6228,3.7986,3.8306,3.9155,4.1786,4.2926,4.3797,4.4692,4.7108,4.8787,4.8826,5.0307,5.2002,5.3732,5.547,5.6507,5.6507,5.5704,0.0,5.3966,5.3907,5.3502,5.2606,5.1768,5.132,5.13,5.13,5.13,5.13,5.13,5.13,5.13,5.13,5.13,0.0,0.0,0.0,0.0,5.13,5.13,5.1203,5.0346,4.9527,4.869,4.7832,4.6959,4.6199,4.6199,4.6199,4.6199,4.6199,4.6199,4.6199,4.6199,4.6199,4.6196,4.6196,4.6196,4.6196,4.6196,4.6146,4.6126,4.6189,4.6146,4.6093,4.6093,4.6093,4.6093,4.6093,4.6093,4.613,4.6189,4.6196,4.6196,4.6196,4.6196,4.6177,4.6182,4.6186,4.5847,4.4973,4.4877,4.4186,4.2518,4.2366,4.1634,3.9897,3.9799,3.9409,3.8531,3.8492,3.8492,3.8493,3.8493,3.8473,3.8473,3.8473,3.8473,3.8473,3.8473,3.8493,4.2315,4.3952,4.5039,4.4117,4.2825,4.1332,3.9563,3.802,3.6734,3.5889,3.5697,3.6057,3.7196,3.7937,3.922,4.1777,4.2972,4.4063,4.5495,4.6972,4.8339,4.9488,5.2197,5.4418,5.5567,5.6176,5.6507,5.6507,5.5684,5.5076,5.4803,5.3658,5.2606,5.1749,5.2021,5.1904,5.132,5.13,5.13,5.13,5.13,5.13,5.13,5.13,5.13,0.0,0.0,0.0,0.0,5.13,5.095,5.0385,5.0112,4.9138,4.7871,4.7599,4.6956,4.6199,4.6199,4.6199,4.6199,4.6199,4.6199,4.6199,4.6199,4.6199,4.6316,4.692,4.6667,4.6336,4.6936,4.6637,4.6162,4.6196,4.6189,4.6181,4.6181,4.6181,4.6181,4.6181,4.6181,4.6185,4.6196,4.6199,4.619,4.6203,4.6209,4.6204,4.6194,4.6196,4.6082,4.5813,4.5839,4.5155,4.3427,4.3294,4.2807,4.1654,4.1576,4.1186,4.0308,4.0288,3.9995,3.939,3.939,3.9098,3.8493,3.8493,3.8805,3.939,3.939,3.9393,3.9182,4.1244,4.2526,4.1948,4.0917,3.9739,3.8611,3.74,3.6353,3.5799,3.5703,3.597,3.686,3.7774,3.905,4.0975,4.2595,4.3964,4.5013,4.6512,4.8125,4.98,5.2801,5.4924,5.547,5.5821,5.6015,5.6015,5.4905,5.4219,5.4219,5.2879,5.1865,5.132,5.1826,5.1846,5.132,5.13,5.13,5.13,5.13,5.13,5.13,5.13,5.13,0.0,0.0,0.0,0.0,5.095,5.0482,4.9937,4.9294,4.8417,4.7462,4.7131,4.6667,4.6199,4.6199,4.6199,4.6199,4.6199,4.6199,4.6199,4.6199,4.6199,4.6375,4.7248,4.6878,4.6394,4.7267,4.6842,4.6199,4.6199,4.6199,4.6199,4.6199,4.6199,4.6199,4.6199,4.6199,4.6206,4.6206,4.6209,4.6203,4.62,4.6204,4.6213,4.6228,4.6249,4.6249,4.623,4.6286,4.5854,4.4765,4.4374,4.3828,4.2949,4.289,4.25,4.1621,4.1582,4.1172,4.0312,4.0292,4.0019,3.9472,3.9472,3.9765,4.0292,4.0292,4.0291,0.0,3.8071,4.0614,4.0552,3.9361,3.8202,3.8147,3.6881,0.0,3.5713,3.5713,3.6021,3.7016,3.7851,3.8757,3.9818,4.2023,4.362,4.3679,4.6059,4.8358,4.9917,5.2469,5.4009,5.3829,5.4647,5.5173,5.5115,5.356,5.2606,5.2606,5.1768,5.13,5.13,5.13,5.13,5.13,5.13,5.13,5.13,5.13,5.13,5.13,5.13,5.13,0.0,0.0,0.0,0.0,5.0326,4.9937,4.9664,4.8183,4.7521,4.7306,4.6511,4.6199,4.6199,4.6199,4.6199,4.6199,4.6199,4.6199,4.6199,4.6199,4.6199,4.6375,4.7248,4.692,4.6472,4.7287,4.6897,4.6277,4.6219,4.6199,4.6199,4.6199,4.6199,4.6199,4.6203,4.6203,4.62,4.6204,4.6191,4.62,4.6203,4.6205,4.6229,4.6287,4.6306,4.6302,4.6303,4.63,4.63,4.63,4.5558,4.4719,4.384,4.3782,4.3391,4.2533,4.2435,4.2025,4.1207,4.1129,4.1108,4.1108,4.1108,4.1106,4.1085,4.1085,4.1085,3.2832,0.0,3.612,3.6111,3.6306,3.6472,0.0,3.6145,3.5846,3.5786,3.583,3.6308,3.7824,3.8296,3.9192,4.1361,4.2763,4.3835,4.4501,4.7949,5.056,5.095,5.3892,5.51,5.3093,5.4297,5.492,5.4258,5.321,5.2606,5.2606,5.1768,5.13,5.13,5.13,5.13,5.13,5.13,5.13,5.13,5.13,5.13,5.13,5.13,5.13,0.0,0.0,0.0,5.0287,5.0073,4.9235,4.8105,4.8397,4.7676,4.6472,4.6277,4.6199,4.6199,4.6199,4.6199,4.6199,4.6199,4.6199,4.6199,4.6199,4.6199,4.6375,4.7248,4.7345,4.7248,4.7443,4.7345,4.7033,4.6355,4.6199,4.6199,4.6199,4.6199,4.619,4.6206,4.6194,4.6206,4.6195,4.6199,4.6223,4.6269,4.6289,4.6287,4.6293,4.6309,4.6306,4.6302,4.63,4.63,4.63,4.6105,4.5617,4.4758,4.4699,4.4309,4.343,4.2747,4.2298,4.2103,4.1439,4.1101,4.1103,4.1103,4.1074,4.1014,4.1014,4.1014,3.1505,3.3317,3.5207,3.5207,3.585,3.6487,3.6453,3.6174,3.5895,3.5853,3.5864,3.6297,3.7615,3.8215,3.9221,4.14,4.2783,4.4185,4.5864,4.8436,5.0599,5.1768,5.3911,5.4905,5.3892,5.4277,5.4238,5.3366,5.2508,5.2002,5.2002,5.1554,5.13,5.13,5.13,5.13,5.13,5.13,5.13,5.13,5.13,5.13,5.13,5.0891,5.0696,0.0,0.0,0.0,4.941,4.9021,4.8319,4.7501,4.7579,4.7033,4.6199,4.6199,4.6199,4.6199,4.6199,4.6199,4.6199,4.6199,4.6199,4.6199,4.6199,4.6199,4.6375,4.7248,4.7501,4.7579,4.7988,4.7793,4.7372,4.6911,4.6485,4.6198,4.6199,4.6201,4.6208,4.6206,4.6207,4.6215,4.6248,4.6249,4.6269,4.6282,4.6274,4.6246,4.6249,4.6258,4.625,4.625,4.625,4.625,4.625,4.625,4.606,4.5581,4.5542,4.5167,4.4297,4.3807,4.3358,4.2968,4.2483,4.2242,4.2242,4.2242,4.2236,4.2198,4.2198,4.2198,3.1113,3.3492,3.583,3.5577,3.6376,3.7188,3.7121,3.6589,3.6142,3.6278,3.6297,3.6599,3.7617,3.8402,3.9454,4.1205,4.29,4.4945,4.7696,4.8826,5.0131,5.2158,5.3405,5.418,5.4394,5.3985,5.3346,5.2469,5.1729,5.13,5.13,5.13,5.13,5.13,5.13,5.1242,5.1106,5.1222,5.13,5.13,5.13,5.13,5.1261,5.0541,5.0131,4.9956,0.0,0.0,4.8534,4.7793,4.7423,4.7248,4.6628,4.6316,4.6199,4.6199,4.6199,4.6199,4.6199,4.6199,4.6199,4.6199,4.6203,4.619,4.619,4.6196,4.6359,4.7099,4.7398,4.7641,4.8243,4.8048,4.7626,4.7355,4.6839,4.6358,4.622,4.6204,4.6205,4.6206,4.6226,4.6229,4.6287,4.6284,4.6279,4.628,4.6238,4.6201,4.6201,4.6196,4.6199,4.6199,4.6199,4.6199,4.6199,4.6199,4.6209,4.6192,4.6198,4.5819,4.4945,4.4906,4.4497,4.362,4.3601,4.3598,4.3571,4.3571,4.3591,4.3583,4.3583,4.3583,3.2596,3.4428,3.5558,3.4138,3.5499,3.7194,3.7188,3.7091,3.7208,3.7948,3.8104,3.8591,4.0192,4.0601,4.1244,4.2939,4.4676,4.6956,5.0248,5.1476,5.1885,5.1534,5.358,5.3888,5.1067,5.2002,5.245,5.1573,5.1378,5.13,5.13,5.13,5.13,5.13,5.13,5.095,5.0209,5.093,5.13,5.13,5.13,5.13,5.13,5.1164,5.0696,4.9956,0.0,4.8378,4.7696,4.756,4.7072,4.6452,4.7053,4.6842,4.6199,4.6199,4.6199,4.6199,4.6199,4.6199,4.6199,4.6199,4.6209,4.6199,4.6199,4.6199,4.6235,4.6352,4.6921,4.7366,4.675,4.7586,4.8237,4.6742,4.6865,4.71,4.636,4.6204,4.6226,4.6269,4.6289,4.6287,4.6291,4.6253,4.6221,4.6214,4.6209,4.6206,4.6206,4.6203,4.6199,4.6199,4.6199,4.6199,4.6199,4.6199,4.6185,4.6119,4.6169,4.5813,4.4945,4.4906,4.4497,4.362,4.3601,4.3564,4.3529,4.3529,4.3527,4.351,4.351,4.351,3.1778,3.3551,3.4917,3.3709,3.6025,3.848,3.8013,3.7896,3.8013,3.8422,3.85,3.9026,4.0776,4.1107,4.1968,4.4579,4.6839,4.8806,5.0385,5.1359,5.1924,5.1982,5.3054,5.3171,5.1554,5.2138,5.2236,5.1378,5.13,5.13,5.13,5.13,5.1086,5.0618,5.0599,5.0209,4.9352,5.019,5.0599,5.0599,5.1067,5.13,5.1261,5.0365,4.9722,4.9274,0.0,4.717,4.6803,4.6803,4.6569,4.6238,4.6647,4.655,4.6199,4.6199,4.6199,4.6199,4.6199,4.6196,4.6198,4.6198,4.6206,4.6191,4.6191,4.6198,4.6205,4.6249,4.6864,4.7407,4.7019,4.7506,4.7894,4.7088,4.6875,4.6738,4.6346,4.6225,4.6218,4.6248,4.6257,4.6245,4.6245,4.6212,4.6203,4.6203,4.6173,4.6146,4.6146,4.6106,4.6089,4.6089,4.6089,4.6089,4.6089,4.6089,4.6093,4.6098,4.6093,4.5914,4.5501,4.5481,4.5306,4.4898,4.4898,4.4889,4.4846,4.4846,4.4851,4.4851,4.4851,4.4851,3.1892,3.3414,3.482,3.4391,3.6766,3.9123,3.887,3.8792,3.8967,3.9571,3.9688,4.0039,4.1166,4.1714,4.2981,4.6001,4.8475,5.0131,5.056,5.1183,5.1846,5.2528,5.2606,5.2528,5.2314,5.2294,5.2021,5.1347,5.1308,5.1211,5.1023,5.1023,5.0614,4.9753,4.9714,4.9324,4.8502,4.9305,4.971,4.9722,5.0599,5.0891,5.0677,4.9391,4.869,4.8417,4.7072,4.6394,4.6203,4.6203,4.6206,4.619,4.6206,4.6203,4.6206,4.6209,4.62,4.6195,4.6195,4.6184,4.6171,4.6171,4.6184,4.6172,4.6172,4.6191,4.621,4.6261,4.6715,4.7207,4.7206,4.7362,4.7441,4.7242,4.6866,4.6565,4.6564,4.6367,4.6256,4.6449,4.6333,4.6199,4.6199,4.6192,4.6185,4.6185,4.613,4.608,4.608,4.6027,4.6002,4.6002,4.6002,4.6002,4.6002,4.6002,4.6017,4.6075,4.6022,4.6002,4.6002,4.6002,4.6002,4.6002,4.6002,4.6002,4.6002,4.6002,4.6002,4.6002,4.6002,4.6002,3.5109,3.5675,3.5986,3.6746,3.7155,3.7798,3.9357,3.9708,4.0386,4.2744,4.3231,4.3017,4.2335,4.3546,4.5244,4.7092,4.8865,5.056,5.2197,5.2469,5.2528,5.2586,5.2606,5.2275,5.1476,5.1398,5.1367,5.131,5.1291,5.0966,5.0221,5.0182,4.9792,4.8911,4.8892,4.8476,4.7606,4.8457,4.8896,4.8904,4.9703,4.9703,4.8982,4.8865,4.8358,4.7579,4.7462,4.6947,4.6203,4.6203,4.6192,4.6203,4.6209,4.6203,4.6206,4.6198,4.6195,4.6201,4.6201,4.6151,4.6109,4.6109,4.6118,4.6117,4.6117,4.6153,4.6196,4.6213,4.6255,4.6309,4.6376,4.6936,4.7305,4.6496,4.6819,4.732,4.731,4.6725,4.6414,4.717,4.6702,4.6199,4.6199,4.6146,4.6102,4.6102,4.6042,4.6007,4.6007,4.6002,4.6002,4.6002,4.6002,4.6002,4.6002,4.6002,4.6002,4.6007,4.6002,4.6002,4.6002,4.6002,4.6002,4.6002,4.6002,4.6002,4.6002,4.6002,4.6002,4.6002,4.6002,4.6002,3.4021,3.5109,3.5986,3.6317,3.7214,3.8324,3.9532,4.1029,4.2276,4.2705,4.4091,4.4949,4.4072,4.5338,4.6725,4.7384,4.9352,5.1222,5.243,5.3073,5.321,5.2664,5.2606,5.2259,5.1378,5.0851,5.0547,5.0547,5.0059,4.9613,4.9307,4.9288,4.8898,4.802,4.8,4.7569,4.6705,4.7569,4.7722,4.7203,4.8587,4.9088,4.8785,4.823,4.7807,4.7476,4.693,4.6504,4.6198,4.6198,4.6203,4.6206,4.6201,4.6199,4.6204,4.6207,4.6166,4.6132,4.6132,4.6126,4.6106,4.6106,4.6123,4.617,4.617,4.6174,4.6199,4.6199,4.6199,4.6203,4.6231,4.6454,4.6727,4.6901,4.7177,4.7556,4.8098,4.7965,4.7847,4.8159,4.7494,4.6873,4.6873,4.6411,4.6032,4.6032,4.6478,4.6618,4.6079,4.6463,4.6599,4.606,4.6002,4.6002,4.6002,4.6002,4.6002,4.6002,4.6002,4.6002,4.6002,4.6002,4.6002,4.6002,4.6002,4.5991,4.5994,4.5994,4.5983,4.5947,4.5947,4.5947,3.4021,3.5034,3.5967,3.624,3.7623,3.9221,4.0328,4.214,4.3679,4.3893,4.4929,4.5693,4.5361,4.6297,4.717,4.7462,4.9644,5.1515,5.2119,5.2469,5.245,5.1873,5.1561,5.116,5.0576,5.0011,4.9685,4.9683,4.9137,4.8689,0.0,4.8421,4.8011,4.7155,4.7116,4.6821,4.6233,4.6821,4.6818,4.6206,4.7423,4.8003,4.7963,4.7351,4.7084,4.7064,4.646,4.6209,4.6233,4.6233,4.6233,4.6236,4.6214,4.6194,4.6207,4.6191,4.6167,4.6106,4.6106,4.6082,4.6063,4.6063,4.6095,4.6142,4.6142,4.6142,4.6142,4.6142,4.6142,4.6197,4.6489,4.6364,4.645,4.7556,4.7583,4.7672,4.884,4.8852,4.8754,4.9027,4.8335,4.7706,4.7706,4.722,4.6818,4.6818,4.7337,4.7492,4.689,4.7104,4.6968,4.6099,4.6002,4.6002,4.6002,4.5991,4.6005,4.6005,4.598,4.598,4.6002,4.5991,4.6005,4.6005,4.598,4.5964,4.596,4.596,4.5929,4.5911,4.5911,4.5911,3.5908,3.5908,3.6123,3.7019,3.8539,4.0253,4.1945,4.3017,4.4361,4.6975,4.6141,4.5186,4.6063,4.6219,4.6511,4.7365,4.9625,5.1281,5.1281,5.0541,5.0002,5.0079,4.9322,4.8802,4.8797,4.8797,4.8783,4.8796,4.8779,4.8433,0.0,4.7586,4.7198,4.6339,4.63,4.6296,4.6306,4.6296,4.6271,4.6209,4.6271,4.6271,4.6206,4.6209,4.6209,4.6209,4.6209,4.6236,4.6306,4.6306,4.6306,4.629,4.6228,4.6191,4.6191,4.6198,4.6153,4.6098,4.6098,4.6063,4.6002,4.6002,4.6002,4.6002,4.6002,4.6002,4.6002,4.6002,4.6002,4.6191,4.7084,4.6717,4.6541,4.8307,4.7995,4.7803,4.9537,4.9221,4.8871,4.9751,4.9202,4.8619,4.8619,4.8599,4.8599,4.8599,4.8619,4.8619,4.8619,4.7842,4.6968,4.6094,4.6002,4.6002,4.6002,4.5994,4.5997,4.5997,4.5949,4.5935,4.5997,4.5994,4.5997,4.5997,4.5923,4.5911,4.5911,4.5911,4.5911,4.5905,4.5905,4.5905,3.5733,3.6356,3.7175,3.8656,3.9883,4.1481,4.4384,4.5241,4.6157,4.8729,4.791,4.6995,4.7871,4.8027,4.8112,4.8376,4.9048,4.9765,5.0364,4.9701,4.9159,4.9182,4.8961,4.8797,4.8791,4.8248,4.7901,4.7951,4.7387,0.0,0.0,4.669,4.6573,4.63,4.63,4.63,4.6296,4.63,4.6298,4.6273,4.6298,4.6294,4.626,4.6269,4.6273,4.6273,4.6273,4.6275,4.6298,4.6241,4.6226,4.6228,4.6206,4.6165,4.6121,4.6139,4.6084,4.6027,4.6027,4.6027,4.6002,4.6002,4.6002,4.6002,4.6002,4.6002,4.6002,4.6002,4.6002,4.6351,4.7822,4.7584,4.7376,4.9126,4.9335,4.9435,5.0561,5.0563,5.0434,5.0687,5.0047,4.9446,4.9446,4.8942,4.8528,4.8528,4.9058,4.9446,4.9446,4.8147,4.7138,4.6866,4.6304,4.5935,4.5935,4.5929,4.5923,4.5923,4.5917,4.5917,4.5935,4.5929,4.5923,4.5923,4.5917,4.5899,4.5893,4.5893,4.5807,4.5615,4.5615,4.5549,3.5752,3.6532,3.7623,3.9357,4.0698,4.2396,4.5494,4.6975,4.8241,5.0131,4.9177,4.8187,4.87,4.8525,4.8279,4.8275,4.8561,4.8987,4.9504,4.8824,4.8281,4.8287,4.8003,4.7818,4.781,4.7325,4.7034,4.7079,0.0,0.0,0.0,4.5968,4.5948,4.628,4.63,4.63,4.63,4.63,4.63,4.63,4.5948,4.5789,4.5802,4.6142,4.6105,4.5773,4.5773,4.5761,4.5772,4.6073,4.6191,4.6205,4.6175,4.6137,4.6095,4.6064,4.6036,4.6002,4.6002,4.6002,4.6002,4.6002,4.6002,4.6002,4.6002,4.5991,4.6005,4.6005,4.5975,4.6352,4.8118,4.8178,4.8211,4.9955,5.011,5.0098,5.0966,5.1128,5.1095,5.1095,5.0687,5.0325,5.0325,4.9879,4.9524,4.9524,4.9976,5.0073,4.9375,4.8367,4.7456,4.6758,4.6221,4.5867,4.5796,4.5775,4.574,4.5634,4.5619,4.563,4.563,4.5725,4.5787,4.5787,4.5669,4.5615,4.5629,4.5629,4.5543,4.5381,4.5381,4.5333,3.5908,3.6532,3.7642,3.9454,4.1361,4.3406,4.5787,4.8167,5.0112,5.0911,4.9917,4.8911,4.8929,4.8269,4.7713,4.763,4.8215,4.868,4.8683,4.7942,4.7382,4.7394,4.6752,4.629,4.63,4.63,4.6261,4.6183,0.0,0.0,0.0,4.5382,4.5324,4.6046,4.6066,4.6066,4.6066,4.6066,4.6066,4.6046,4.5265,4.4875,4.4914,4.5695,4.5638,4.4878,4.4878,4.4835,4.4843,4.5624,4.5949,4.5959,4.5962,4.5974,4.5983,4.5998,4.5997,4.5997,4.5997,4.5997,4.5991,4.5991,4.5991,4.5991,4.5991,4.5994,4.5991,4.5991,4.5955,4.6293,4.805,4.8438,4.8813,5.0558,5.0429,5.0131,5.0926,5.1035,5.099,5.1034,5.0995,5.0949,5.1012,5.0947,5.0877,5.0799,5.0916,5.0424,4.8759,4.8488,4.781,4.6229,4.5919,4.5787,4.5676,4.5616,4.5493,4.5321,4.5251,4.522,4.5316,4.5475,4.561,4.5667,4.5419,4.5354,4.543,4.5354,4.5343,4.5398,4.5322,4.5311,3.5908,3.6532,3.7779,4.0214,4.3624,4.6527,4.7092,4.8174,4.9117,4.9297,4.9597,4.9822,4.9825,4.9663,4.9327,4.8638,4.8103,4.7789,4.7779,4.706,4.6555,4.6557,4.6409,4.6298,4.63,4.63,4.6027,0.0,0.0,0.0,4.4328,4.4738,4.4777,4.427,4.425,4.425,4.425,4.425,4.425,0.0,4.4075,4.3977,4.3997,4.4172,4.4166,4.3982,4.3982,4.3945,4.3892,4.4038,4.407,4.415,4.4829,4.508,4.5157,4.5774,4.6005,4.6003,4.6003,4.5972,4.591,4.591,4.591,4.591,4.591,4.5923,4.5917,4.5917,4.5917,4.6293,4.805,4.7999,4.7901,4.96,5.0428,5.0868,5.1062,5.0518,5.0131,5.0626,5.0168,4.9845,5.0312,4.9869,4.9208,4.8528,4.9543,5.0031,4.9025,4.8296,4.774,4.7347,4.6138,4.5582,4.6174,4.5657,4.5531,4.6118,4.5545,4.5477,4.6116,4.5597,4.557,4.623,4.6167,4.6478,4.7166,4.6478,4.6378,4.6834,4.6201,4.6101,3.5791,3.6844,3.8539,4.1555,4.4286,4.6355,4.6775,4.7229,4.7665,4.8094,4.8877,4.9354,4.8931,4.8864,4.8579,4.7732,4.7223,4.693,4.6934,4.6566,4.6292,4.6292,4.6298,4.63,4.63,4.5929,4.55,0.0,0.0,4.4211,4.3725,4.3743,4.3743,4.3705,4.3705,4.3705,4.3705,4.3705,4.3705,4.3686,4.3274,4.2852,4.2473,4.2883,4.3083,4.3086,4.3045,4.3011,4.2993,4.337,4.3509,4.3545,4.3996,4.4413,4.4791,4.5218,4.5609,4.5955,4.5955,4.5923,4.5911,4.5911,4.5911,4.5911,4.5911,4.5899,4.5906,4.5906,4.5874,4.6151,4.7481,4.7417,4.733,4.8623,4.9315,4.966,4.966,4.95,4.947,4.9777,4.9784,4.9835,5.0142,4.9843,4.9282,4.8452,4.9396,4.9767,4.8536,4.8315,4.8132,4.7731,4.6929,4.6511,4.6804,4.6442,4.6338,4.6676,4.6297,4.6228,4.6574,4.619,4.6247,4.683,4.6739,4.691,4.7359,4.6846,4.6755,4.7038,4.6596,4.6519,3.5655,3.7175,3.9279,4.2568,4.4036,4.49,4.5771,4.6092,4.6371,4.6947,4.7867,4.8357,4.7628,4.7513,4.7244,4.6435,4.63,4.63,4.63,4.63,4.6241,4.6085,4.6202,4.6183,4.587,4.5324,4.4873,0.0,0.0,4.2806,4.3237,4.2708,4.2669,4.3237,4.3256,4.3256,4.3256,4.3256,4.3256,4.3237,4.2519,4.179,4.1112,4.1814,4.2145,4.2164,4.2108,4.2069,4.2103,4.2789,4.3058,4.3073,4.3364,4.3892,4.4511,4.4802,4.5322,4.5899,4.5899,4.5899,4.5873,4.5873,4.5873,4.5873,4.5873,4.5874,4.5886,4.5886,4.5814,4.5957,4.6827,4.6777,4.6723,4.7607,4.7665,4.7578,4.7943,4.8313,4.8594,4.8701,4.933,4.9808,4.9675,4.9903,4.9694,4.8593,4.9382,4.9522,4.7979,4.8367,4.8526,4.7848,4.7658,4.7554,4.7451,4.7343,4.7248,4.7214,4.7072,4.6971,4.7008,4.7011,4.7199,4.761,4.7329,4.7249,4.738,4.7136,4.7086,4.7217,4.7025,4.6996,3.5655,3.7175,3.9143,4.1809,4.313,4.4,4.4874,4.5696,4.6104,4.546,4.6572,4.7648,4.7511,4.7559,4.7293,4.6436,4.63,4.63,4.63,4.63,4.6027,4.5265,4.5831,4.5714,4.4193,4.4621,0.0,0.0,4.3235,4.2925,4.1519,4.2045,4.2103,4.1461,4.1441,4.1441,4.1441,4.1441,4.1441,4.1441,4.1324,4.1171,4.1016,4.1069,4.1123,4.1192,4.1184,4.1142,4.1101,4.1198,4.1257,4.1392,4.2848,4.3472,4.3746,4.52,4.5815,4.5906,4.5906,4.5867,4.5801,4.5801,4.5801,4.5801,4.5801,4.5814,4.5814,4.5814,4.5673,4.5744,4.6611,4.6091,4.5553,4.6496,4.5864,4.5557,4.736,4.7269,4.6991,4.7504,4.8077,4.8252,4.7541,4.8614,4.8817,4.6483,4.8121,4.9235,4.8271,4.8234,4.8252,4.8144,4.7504,4.7358,4.801,4.7446,4.7337,4.7988,4.7275,4.7154,4.7907,4.7863,4.8183,4.892,4.8237,4.8221,4.891,4.8186,4.8205,4.8875,4.8151,4.8178,3.6142,3.7194,3.8285,4.0386,4.1551,4.2423,4.3309,4.4204,4.4862,4.4983,4.5199,4.5668,4.6644,4.6843,4.6749,4.6358,4.63,4.6124,4.5636,4.5578,4.5246,4.4387,4.4602,4.4543,4.3764,4.3606,0.0,0.0,4.2298,4.191,4.1148,4.1459,4.1498,4.1109,4.1109,4.1109,4.1109,4.1109,4.1098,4.1109,4.1064,4.1012,4.0942,4.0902,4.0929,4.0938,4.0898,4.0869,4.0844,4.0844,4.0839,4.0978,4.22,4.2959,4.3497,4.4718,4.5448,4.5847,4.5847,4.5821,4.5807,4.5807,4.5807,4.5786,4.5677,4.5634,4.561,4.5509,4.5371,4.5361,4.5744,4.5341,4.4919,4.5335,4.4913,4.4688,4.5587,4.5872,4.6291,4.7504,4.7935,4.8128,4.8225,4.8843,4.8805,4.7233,4.8337,4.903,4.8206,4.8468,4.8765,4.8765,4.8431,4.8375,4.8746,4.8431,4.8375,4.873,4.8362,4.8295,4.8658,4.8628,4.8744,4.9029,4.8793,4.8842,4.9214,4.8812,4.8798,4.9131,4.8692,4.8557,3.5772,3.6398,3.6985,3.872,3.9786,4.0679,4.1547,4.2572,4.348,4.3917,4.384,4.4096,4.5402,4.5812,4.5968,4.5968,4.5968,4.5675,4.4797,4.468,4.4348,4.3469,4.3567,4.353,4.3081,4.265,0.0,0.0,4.1479,4.1109,4.1109,4.1109,4.1109,4.1109,4.1109,4.0995,4.0767,4.0772,4.0761,4.0755,4.0896,4.0951,4.0894,4.0888,4.0869,4.0878,4.081,4.0807,4.0807,4.0807,4.0937,4.1222,4.2075,4.2904,4.3731,4.4583,4.5286,4.5807,4.5807,4.5807,4.58,4.573,4.5688,4.5658,4.5426,4.5342,4.5314,4.5163,4.5044,4.4985,4.4985,4.4745,4.4503,4.4517,4.4374,4.4278,4.4547,4.5069,4.5985,4.7682,4.7999,4.8186,4.8786,4.9048,4.8933,4.8133,4.8674,4.8973,4.8375,4.8824,4.9214,4.9214,4.9214,4.9214,4.9214,4.9214,4.9214,4.9214,4.9181,4.915,4.9101,4.8963,4.8857,4.875,4.8784,4.8906,4.9113,4.8962,4.8911,4.8894,4.8678,4.8402,3.3768,3.4204,3.5227,3.6921,3.7992,3.8867,3.9743,4.1255,4.2258,4.1459,4.2573,4.3725,4.3822,4.4504,4.5068,4.5068,4.5068,4.4758,4.3899,4.3762,4.343,4.2572,4.3196,4.3042,4.1402,4.1947,0.0,0.0,4.1129,4.1109,4.1109,4.1109,4.1109,4.1109,4.1109,4.069,3.9882,3.9877,3.9848,3.9781,4.0536,4.091,4.0907,4.0829,4.0806,4.0812,4.0796,4.0807,4.0807,4.0807,4.1294,4.2111,4.2911,4.3763,4.4639,4.5439,4.5768,4.5807,4.5807,4.5807,4.5752,4.5496,4.5417,4.5352,4.5023,4.4935,4.4935,4.4924,4.4775,4.463,4.463,4.4412,4.4244,4.43,4.4162,4.429,4.5226,4.5462,4.6003,4.7666,4.8002,4.8021,4.8058,4.8693,4.8933,4.8133,4.8674,4.9195,4.9139,4.9176,4.9214,4.9214,4.9214,4.9214,4.9214,4.9214,4.9214,4.9214,4.9133,4.9101,4.9101,4.8606,4.8344,4.8325,4.7897,4.8097,4.8926,4.8532,4.8344,4.8325,4.7877,4.7653,3.3339,3.4004,3.4789,3.542,3.6645,3.7769,3.8106,3.911,4.0015,4.0229,4.0756,4.1537,4.2669,4.3587,4.4172,4.4172,4.4172,4.386,4.2982,4.2864,4.2533,4.1674,4.1831,4.1792,4.1168,4.0873,0.0,0.0,0.0,4.0277,4.0269,4.076,4.0801,4.0272,4.0212,3.9779,3.8914,3.89,3.8862,3.8809,3.9656,4.0039,4.0015,4.0554,4.0808,4.079,4.0802,4.0808,4.0808,4.0808,4.1286,4.2118,4.2976,4.3834,4.469,4.549,4.5807,4.5786,4.5599,4.5549,4.5488,4.5177,4.5084,4.5042,4.4787,4.472,4.4682,4.4552,4.4426,4.4335,4.4335,4.4222,4.4234,4.4805,4.4888,4.521,4.6613,4.6517,4.648,4.7597,4.782,4.7953,4.8492,4.8826,4.8919,4.8604,4.8826,4.9012,4.9012,4.9012,4.9012,4.9012,4.9012,4.9012,4.9012,4.9012,4.9012,4.9012,4.9195,4.9288,4.9288,4.9297,4.934,4.934,4.8647,4.8226,4.8058,4.7917,4.7856,4.7836,4.7674,4.7381,3.332,3.4007,3.464,3.4686,3.5754,3.6819,3.6843,3.7533,3.8318,3.8843,3.9195,3.9741,4.0912,4.1596,4.2261,4.3118,4.3255,4.2864,4.1693,4.1537,4.1205,4.0367,4.025,4.025,4.025,3.9743,0.0,0.0,0.0,0.0,3.9744,3.9995,3.987,3.9348,3.8996,3.8553,3.7973,3.793,3.7907,3.7872,3.9015,3.9544,3.9522,4.0401,4.0796,4.0797,4.0797,4.0797,4.0816,4.1087,4.168,4.2512,4.3401,4.4265,4.5056,4.5495,4.5658,4.5599,4.5333,4.5236,4.5186,4.4874,4.4768,4.4719,4.4465,4.4388,4.4365,4.4233,4.418,4.4135,4.4135,4.4275,4.4655,4.5491,4.59,4.6401,4.7445,4.7257,4.7144,4.7943,4.8091,4.8277,4.8816,4.8909,4.8909,4.8909,4.8909,4.8909,4.8909,4.8909,4.8909,4.8909,4.8909,4.8909,4.8909,4.9008,4.9066,4.9066,4.9388,4.9585,4.9585,4.9603,4.9598,4.9598,4.8875,4.8245,4.7768,4.7455,4.7295,4.7295,4.7075,4.6753,0.0,0.0,0.0,3.47,3.5357,3.5992,3.5992,3.6656,3.7262,3.7262,3.7947,3.8552,3.8552,3.8572,3.9411,4.1888,4.2298,4.1693,3.9995,3.9761,3.9468,3.8689,3.8591,3.8591,3.8591,3.8572,0.0,0.0,3.8476,3.8807,3.9577,3.8814,3.8362,3.8352,3.7539,3.7072,3.7053,3.6986,3.6973,3.7027,3.8662,3.9483,3.9542,4.0403,4.0797,4.0797,4.0797,4.0797,4.0855,4.1661,4.2531,4.3414,4.4265,4.5075,4.5758,4.549,4.5342,4.5246,4.4979,4.489,4.4843,4.4561,4.4493,4.4425,4.4109,4.4005,4.4005,4.4005,4.4005,4.4005,4.4042,4.4655,4.5491,4.6327,4.7125,4.7686,4.762,4.7653,4.7944,4.8743,4.8891,4.8891,4.8891,4.8891,4.8891,4.8891,4.8891,4.8891,4.8855,4.8874,4.8892,4.8892,4.8894,4.893,4.893,4.9232,4.9403,4.9421,4.9716,4.9906,4.9906,4.9347,4.9025,4.9025,4.8452,4.8143,4.8143,4.7199,4.6713,4.6695,4.608,4.5718,3.3451,0.0,0.0,0.0,0.0,0.0,3.5991,3.6187,3.6363,3.6363,3.7048,3.7653,3.7653,3.8162,3.8825,3.9548,3.9645,3.9489,3.9001,3.8923,3.8845,3.863,3.8591,3.8591,3.8591,0.0,0.0,0.0,3.7981,3.7714,3.7882,3.7617,3.7442,3.7383,3.7161,3.672,3.6096,3.6067,3.6346,3.6945,3.8042,3.8887,3.9532,4.039,4.0797,4.0797,4.0797,4.0797,4.0855,4.1661,4.2859,4.4184,4.4436,4.4905,4.5426,4.5371,4.5177,4.4968,4.4694,4.4612,4.4567,4.425,4.4136,4.4121,4.4036,4.4005,4.4005,4.4005,4.4005,4.4119,4.4668,4.4967,4.5488,4.6845,4.7327,4.7534,4.7773,4.7826,4.8014,4.8568,4.8678,4.8678,4.8678,4.8678,4.8678,4.8678,4.8678,4.8569,4.8213,4.865,4.8879,4.8637,4.9122,4.9507,4.9628,4.9722,4.9724,4.9619,4.9923,5.0036,4.9919,4.9969,5.001,5.001,4.9313,4.897,4.897,4.8103,4.7455,4.6895,4.6056,4.5632,0.0,0.0,3.5233,3.5238,0.0,0.0,3.5991,3.5992,3.5992,3.5992,3.6111,3.6228,3.6228,3.6639,3.6971,3.6971,3.7282,3.7633,3.8006,3.8064,3.7927,3.7555,3.7516,3.7516,3.7516,3.705,3.6964,3.7441,3.6992,3.667,3.6572,3.6853,3.6833,3.6466,3.6463,3.6216,3.5692,3.5692,3.6107,3.6903,3.7787,3.8663,3.952,4.041,4.0797,4.0816,4.1145,4.1487,4.1867,4.2575,4.3243,4.3871,4.4567,4.4958,4.5123,4.5006,4.4851,4.4644,4.4383,4.4289,4.4265,4.4064,4.4005,4.4005,4.4005,4.3974,4.3961,4.3961,4.4186,4.4582,4.5347,4.5654,4.6066,4.7316,4.7459,4.7337,4.749,4.7515,4.762,4.7942,4.802,4.802,4.802,4.802,4.813,4.8439,4.8201,4.803,4.8052,4.8445,4.8631,4.8451,4.9109,4.9595,4.9681,4.9821,4.9877,4.9788,5.0102,5.0224,5.0101,5.0247,5.0331,5.0331,4.9857,4.9576,4.9576,4.8539,4.7775,4.7261,4.6402,4.6185,0.0,0.0,0.0,0.0,3.6007,0.0,3.5992,3.5992,3.5973,3.5875,3.5232,3.4666,3.4569,3.4627,3.4666,3.4569,3.5368,3.6265,3.7048,3.7165,3.6872,3.609,3.5992,3.5992,3.5992,3.5983,3.5957,3.5892,3.5892,3.5833,3.5713,3.6375,3.643,3.5723,3.5704,3.5704,3.5704,3.5704,3.6149,3.7058,3.7825,3.8702,3.9675,4.0442,4.079,4.0823,4.1538,4.2283,4.3064,4.3689,4.3598,4.3223,4.4691,4.5091,4.4812,4.4585,4.4425,4.4318,4.4094,4.4005,4.4005,4.3989,4.3989,4.3989,4.3974,4.3945,4.3902,4.3925,4.4397,4.5103,4.5935,4.6377,4.6797,4.7597,4.747,4.7128,4.6955,4.691,4.6932,4.6995,4.7084,4.7172,4.7172,4.7172,4.7419,4.8169,4.7653,4.7433,4.8204,4.8312,4.8325,4.8391,4.9043,4.949,4.9508,4.9788,4.995,4.9924,5.02,5.0387,5.0359,5.0246,5.016,5.016,5.0051,5.0011,5.0011,4.8657,4.7948,4.7793,4.698,4.6952,0.0,0.0,0.0,0.0,3.5991,0.0,3.5992,3.5992,3.5797,3.5096,3.4822,3.4491,3.3787,3.4237,3.4471,3.3767,3.4977,3.6051,3.6226,3.6246,3.6187,3.6012,3.5992,3.5992,3.5992,3.5954,3.5917,3.5891,3.5853,3.5785,3.5704,3.5847,3.5868,3.5709,3.5704,3.5704,3.5704,3.5704,3.6458,3.7941,3.8115,3.903,4.0545,4.0668,4.0726,4.0726,4.0828,4.1235,4.1897,4.2651,4.3704,4.4815,4.4922,4.4769,4.4493,4.4438,4.426,4.4079,4.402,4.4005,4.3989,4.3945,4.3913,4.3913,4.3851,4.3837,4.3865,4.4089,4.4254,4.4599,4.5619,4.5917,4.6155,4.6936,4.7026,4.6845,4.6442,4.6346,4.6242,4.5819,4.64,4.6959,4.6959,4.6959,4.7227,4.7949,4.7418,4.7298,4.8264,4.839,4.8528,4.8897,4.9594,5.0103,5.0212,5.0243,5.0265,5.0154,5.0198,5.0189,5.008,5.0051,5.0051,5.0051,4.9993,5.0011,5.0011,4.9062,4.8596,4.8551,4.7215,4.6678,0.0,0.0,0.0,3.7301,0.0,0.0,0.0,3.6305,3.5875,3.5446,3.4998,3.4432,3.3552,3.412,3.4413,3.3533,3.4509,3.5349,3.5349,3.5738,3.5836,3.5408,3.5738,0.0,3.5384,3.5684,3.5867,3.5817,3.5778,3.5739,3.5708,3.5708,3.5703,3.5709,3.5704,3.5704,3.5704,3.6091,3.6942,3.8193,3.8606,3.9489,4.0746,4.0674,4.0654,4.0666,4.0935,4.1456,4.2135,4.2721,4.371,4.4837,4.4701,4.4484,4.4192,4.4192,4.4091,4.3942,4.3989,4.3961,4.3897,4.3897,4.3883,4.3835,4.3804,4.3876,4.3926,4.38,4.4329,4.5078,4.5609,4.5863,4.6088,4.6472,4.6363,4.6094,4.5854,4.5803,4.5701,4.545,4.6142,4.674,4.674,4.674,4.7126,4.8223,4.775,4.7621,4.8483,4.8613,4.8687,4.8927,4.9642,5.012,5.0206,5.0206,5.0178,5.0092,5.0092,5.008,4.9993,5.0011,5.0011,5.0011,4.9619,4.9453,4.9453,4.8714,4.851,4.8809,4.77,4.7231,0.0,0.0,0.0,0.0,0.0,3.7262,0.0,0.0,0.0,3.5778,3.5193,3.4432,3.3552,3.3983,3.4159,3.3299,0.0,0.0,0.0,3.4554,0.0,3.4713,3.5302,0.0,3.498,3.5362,3.565,3.5709,3.5543,3.551,3.5684,3.5704,3.5704,3.5704,3.5704,3.5704,3.5704,3.6497,3.7342,3.8206,3.9013,3.9844,4.0687,4.0566,4.0518,4.0542,4.0983,4.1705,4.2567,4.2844,4.3492,4.4303,4.4318,4.4177,4.3974,4.3974,4.3945,4.3899,4.3945,4.3899,4.3804,4.3816,4.3734,4.3637,4.3698,4.3834,4.3904,4.3654,4.4538,4.5569,4.5638,4.5839,4.6055,4.6055,4.5718,4.5397,4.5397,4.5518,4.5621,4.5621,4.6259,4.6786,4.6631,4.6734,4.7269,4.8586,4.8155,4.8,4.8913,4.8896,4.8844,4.8999,4.9631,5.0011,5.0011,5.0011,5.0011,5.0011,5.0011,5.0011,5.0011,4.986,4.9725,4.9607,4.9009,4.8697,4.8697,4.816,4.8176,4.868,4.7967,4.7641,0.0,0.0,0.0,0.0,3.7379,0.0,0.0,0.0,3.5778,3.5018,0.0,3.4432,3.3552,0.0,0.0,0.0,0.0,0.0,3.1345,3.1327,3.2206,3.4433,3.4721,0.0,0.0,3.5095,3.494,3.5658,3.4979,3.4877,3.5665,3.5704,3.5704,3.5704,3.5704,3.5704,3.5704,3.6497,3.733,3.8215,3.902,3.9831,4.0595,4.0367,4.0247,4.0238,4.007,4.0742,4.1983,4.2031,4.2805,4.3958,4.4017,4.3989,4.3913,4.3913,4.3867,4.382,4.382,4.382,4.3788,4.3667,4.3357,4.3047,4.3268,4.3373,4.3579,4.4489,4.4834,4.5078,4.5363,4.5442,4.5502,4.5502,4.545,4.5397,4.5397,4.5949,4.6475,4.6475,4.7079,4.7389,4.6717,4.7121,4.7844,4.8672,4.8155,4.8234,4.9683,4.9223,4.9068,4.9804,4.9959,5.0011,5.0011,5.0011,5.0011,5.0011,5.0011,5.0011,5.0011,4.9376,4.8745,4.8144,4.8047,4.8015,4.8015,4.795,4.795,4.8015,4.7257,4.6936,0.0,0.0,0.0,0.0,0.0,0.0,3.695,0.0,3.5895,0.0,0.0,0.0,0.0,0.0,0.0,0.0,3.2763,0.0,0.0,0.0,3.0065,0.0,0.0,0.0,0.0,0.0,0.0,0.0,3.4607,3.4781,3.5646,3.5704,3.5704,3.5704,3.6149,3.64,3.64,3.7698,3.853,3.8904,3.9538,4.0046,4.0367,4.0091,4.0231,4.0667,3.9955,4.0785,4.2597,4.1941,4.2552,4.3897,4.3899,4.3867,4.3835,4.3835,4.3769,4.3651,4.346,4.3356,4.3214,4.2902,4.2637,4.2542,4.2867,4.324,4.3731,4.4373,4.4867,4.5208,4.5363,4.5397,4.5397,4.5397,4.5397,4.5518,4.5983,4.6274,4.6608,4.7138,4.7771,4.8128,4.7819,4.8064,4.8586,4.939,4.9235,4.9286,4.9924,4.9717,4.9631,4.9959,5.0011,5.0011,5.0011,4.9619,4.9376,4.9376,4.8995,4.8779,4.8779,4.8495,4.8208,4.7917,4.7489,4.7254,4.7254,4.6878,4.6687,4.6687,4.6759,4.6585,4.0151,0.0,0.0,0.0,0.0,0.0,0.0,0.0,0.0,0.0,0.0,0.0,0.0,0.0,0.0,0.0,0.0,3.166,0.0,2.9547,0.0,0.0,0.0,0.0,0.0,0.0,0.0,3.3988,3.3828,3.4176,3.5284,3.5342,3.5458,3.5684,3.6477,3.6897,3.6911,3.8569,3.9354,3.9292,3.9915,4.0156,4.0082,3.9829,4.017,4.0941,4.0115,4.1004,4.3006,4.2169,4.2606,4.3816,4.3769,4.3669,4.3567,4.3566,4.3496,4.3356,4.2977,4.279,4.2634,4.2157,4.2171,4.2406,4.2747,4.3353,4.4049,4.4474,4.4992,4.5397,4.5397,4.5397,4.5397,4.5397,4.5526,4.5809,4.6377,4.6715,4.7077,4.7767,4.8403,4.8785,4.8592,4.8826,4.9235,4.9791,4.9906,4.9935,4.9935,4.9982,4.9935,4.9725,4.9696,4.9619,4.9441,4.8917,4.8635,4.8635,4.816,4.7819,4.7622,4.7589,4.7522,4.7338,4.6793,4.6531,4.6531,4.5992,4.5698,4.5735,4.6282,4.6246,0.0,0.0,0.0,4.0015,0.0,0.0,0.0,0.0,3.7028,0.0,0.0,0.0,0.0,0.0,0.0,0.0,0.0,0.0,0.0,0.0,0.0,0.0,0.0,0.0,0.0,0.0,3.2217,3.3088,3.2353,3.2628,3.4355,3.4432,3.4839,3.5665,3.6477,3.6905,3.6901,3.8556,3.9278,3.9025,3.9828,4.0063,3.9808,3.9597,3.9946,4.0691,4.0467,4.1263,4.2709,4.2674,4.3045,4.3599,4.3599,4.3321,4.2939,4.2995,4.2995,4.2863,4.2398,4.2236,4.2154,4.167,4.2061,4.2741,4.3086,4.3698,4.4432,4.5165,4.538,4.5397,4.5397,4.5397,4.5397,4.5397,4.5841,4.6265,4.6282,4.7381,4.8355,4.8372,4.8971,4.9239,4.8541,4.9114,4.9632,4.953,4.9619,4.9708,4.9708,4.9889,4.9725,4.9023,4.8931,4.8666,4.8015,4.795,4.7917,4.7917,4.7917,4.7589,4.6846,4.6862,4.6531,4.588,4.5844,4.5844,4.5844,4.5625,4.5515,4.5515,4.5735,4.5735,0.0,0.0,4.0774,4.0,0.0,0.0,0.0,0.0,0.0,0.0,0.0,0.0,0.0,0.0,0.0,0.0,0.0,0.0,0.0,0.0,0.0,0.0,0.0,3.1474,0.0,0.0,0.0,3.2179,3.2507,3.3165,3.4336,3.4955,3.54,3.5684,3.704,3.7757,3.7764,3.9196,3.9876,3.98,3.9758,3.9683,3.9597,3.9344,3.9996,4.1269,4.0573,4.1504,4.3436,4.2772,4.2779,4.3214,4.3142,4.2845,4.2478,4.2807,4.2713,4.2378,4.1906,4.1556,4.1323,4.114,4.1614,4.2371,4.2997,4.3656,4.4337,4.5164,4.5344,4.5274,4.5371,4.5327,4.5274,4.5274,4.5723,4.6298,4.6794,4.7183,4.7665,4.8276,4.812,4.7753,4.7523,4.7721,4.7948,4.8046,4.8062,4.8094,4.8094,4.8175,4.8143,4.7868,4.7851,4.777,4.7506,4.7053,4.6692,4.6512,4.6388,4.6246,4.6156,4.612,4.5956,4.5625,4.5589,4.5552,4.5405,4.5331,4.5294,4.5294,4.5368,4.5368,4.0951,4.0927,0.0,3.9944,3.9109,0.0,3.7458,0.0,0.0,0.0,0.0,0.0,0.0,0.0,0.0,0.0,0.0,0.0,0.0,3.2518,0.0,0.0,3.1874,3.1396,3.1097,3.1046,3.112,3.1366,3.2159,3.301,0.0,0.0,3.551,3.6118,3.7486,3.8286,3.8474,3.9627,4.011,3.9944,3.9644,3.9446,3.935,3.9178,3.9997,4.1527,4.0911,4.185,4.3728,4.2944,4.2757,4.294,4.2731,4.2358,4.199,4.2297,4.2133,4.1687,4.1378,4.1117,4.0946,4.1222,4.176,4.2477,4.3286,4.3941,4.4471,4.4774,4.481,4.4722,4.4565,4.4476,4.4491,4.4716,4.5243,4.5883,4.6576,4.6849,4.7127,4.772,4.7356,4.6866,4.6574,4.6539,4.6678,4.707,4.7155,4.7173,4.7173,4.7256,4.7189,4.6918,4.6918,4.6797,4.6571,4.6111,4.5765,4.5589,4.5478,4.5442,4.5589,4.5589,4.5625,4.5749,4.5514,4.544,4.5563,4.5238,4.5092,4.5092,4.5017,4.498]}]]